[[{"header":{"parameterUnit":"m.s-1","parameterCategory":1,"la1":31.0,"la2":29.5877,"lo1":-88.7671,"lo2":-86.6584,"dy":0.0162,"dx":0.0185,"nx":115,"ny":88,"refTime":"2023-09-19T12:00:00:Z","depth":0,"parameterNumber":2,"parameterNumberName":"U-component_of_WINDS"},"data":[0.0,0.0,0.0,0.0,0.0,0.0,0.0,0.0,0.0,0.0,0.0,0.0,0.0,0.0,0.0,0.0,0.0,0.0,0.0,0.0,0.0,0.0,0.0,0.0,0.0,0.0,0.0,0.0,0.0,0.0,0.0,0.0,0.0,0.0,0.0,0.0,0.0,0.0,0.0,0.0,0.0,0.0,0.0,0.0,0.0,0.0,0.0,0.0,0.0,0.0,0.0,0.0,0.0,0.0,0.0,0.0,0.0,0.0,0.0,0.0,0.0,0.0,0.0,0.0,0.0,0.0,0.0,0.0,0.0,0.0,0.0,0.0,0.0,0.0,0.0,0.0,0.0,0.0,0.0,0.0,0.0,0.0,0.0,0.0,0.0,0.0,0.0,0.0,0.0,0.0,0.0,0.0,0.0,0.0,0.0,0.0,0.0,0.0,0.0,0.0,0.0,0.0,0.0,0.0,0.0,0.0,0.0,0.0,0.0,0.0,0.0,0.0,0.0,0.0,0.0,0.0,0.0,0.0,0.0,0.0,0.0,0.0,0.0,0.0,0.0,0.0,0.0,0.0,0.0,0.0,0.0,0.0,0.0,0.0,0.0,0.0,0.0,0.0,0.0,0.0,0.0,0.0,0.0,0.0,0.0,0.0,0.0,0.0,0.0,0.0,0.0,0.0,0.0,0.0,0.0,0.0,0.0,0.0,0.0,0.0,0.0,0.0,0.0,0.0,0.0,0.0,0.0,0.0,0.0,0.0,0.0,0.0,0.0,0.0,0.0,0.0,0.0,0.0,0.0,0.0,0.0,0.0,0.0,0.0,0.0,0.0,0.0,0.0,0.0,0.0,0.0,0.0,0.0,0.0,0.0,0.0,0.0,0.0,0.0,0.0,0.0,0.0,0.0,0.0,0.0,0.0,0.0,0.0,0.0,0.0,0.0,0.0,0.0,0.0,0.0,0.0,0.0,0.0,0.0,0.0,0.0,0.0,0.0,0.0,0.0,0.0,0.0,0.0,0.0,0.0,0.0,0.0,0.0,0.0,0.0,0.0,0.0,0.0,0.0,0.0,0.0,0.0,0.0,0.0,0.0,0.0,0.0,0.0,0.0,0.0,0.0,0.0,0.0,0.0,0.0,0.0,0.0,0.0,0.0,0.0,0.0,0.0,0.0,0.0,0.0,0.0,0.0,0.0,0.0,0.0,0.0,0.0,0.0,0.0,0.0,0.0,0.0,0.0,0.0,0.0,0.0,0.0,0.0,0.0,0.0,0.0,0.0,0.0,0.0,0.0,0.0,0.0,0.0,0.0,0.0,0.0,0.0,0.0,0.0,0.0,0.0,0.0,0.0,0.0,0.0,0.0,0.0,0.0,0.0,0.0,0.0,0.0,0.0,0.0,0.0,0.0,0.0,0.0,0.0,0.0,0.0,0.0,0.0,0.0,0.0,0.0,0.0,0.0,0.0,0.0,0.0,0.0,0.0,0.0,0.0,0.0,0.0,0.0,0.0,0.0,0.0,0.0,0.0,0.0,0.0,0.0,0.0,0.0,0.0,0.0,0.0,0.0,0.0,0.0,0.0,0.0,0.0,0.0,0.0,0.0,0.0,0.0,0.0,0.0,0.0,0.0,0.0,0.0,0.0,0.0,0.0,0.0,0.0,0.0,0.0,0.0,0.0,0.0,0.0,0.0,0.0,0.0,0.0,0.0,0.0,0.0,0.0,0.0,0.0,0.0,0.0,0.0,0.0,0.0,0.0,0.0,0.0,0.0,0.0,0.0,0.0,0.0,0.0,0.0,0.0,0.0,0.0,0.0,0.0,0.0,0.0,0.0,0.0,0.0,0.0,0.0,0.0,0.0,0.0,0.0,0.0,0.0,0.0,0.0,0.0,0.0,0.0,0.0,0.0,0.0,0.0,0.0,0.0,0.0,0.0,0.0,0.0,0.0,0.0,0.0,0.0,0.0,0.0,0.0,0.0,0.0,0.0,0.0,0.0,0.0,0.0,0.0,0.0,0.0,0.0,0.0,0.0,0.0,0.0,0.0,0.0,0.0,0.0,0.0,0.0,0.0,0.0,0.0,0.0,0.0,0.0,0.0,0.0,0.0,0.0,0.0,0.0,0.0,0.0,0.0,0.0,0.0,0.0,0.0,0.0,0.0,0.0,0.0,0.0,0.0,0.0,0.0,0.0,0.0,0.0,0.0,0.0,0.0,0.0,0.0,0.0,0.0,0.0,0.0,0.0,0.0,0.0,0.0,0.0,0.0,0.0,0.0,0.0,0.0,0.0,0.0,0.0,0.0,0.0,0.0,0.0,0.0,0.0,0.0,0.0,0.0,0.0,0.0,0.0,0.0,0.0,0.0,0.0,0.0,0.0,0.0,0.0,0.0,0.0,0.0,0.0,0.0,0.0,0.0,0.0,0.0,0.0,0.0,0.0,0.0,0.0,0.0,0.0,0.0,0.0,0.0,0.0,0.0,0.0,0.0,0.0,0.0,0.0,0.0,0.0,0.0,0.0,0.0,0.0,0.0,0.0,0.0,0.0,0.0,0.0,0.0,0.0,0.0,0.0,0.0,0.0,0.0,0.0,0.0,0.0,0.0,0.0,0.0,0.0,0.0,0.0,0.0,0.0,0.0,0.0,0.0,0.0,0.0,0.0,0.0,0.0,0.0,0.0,0.0,0.0,0.0,0.0,0.0,0.0,0.0,0.0,0.0,0.0,0.0,0.0,0.0,0.0,0.0,0.0,0.0,0.0,0.0,0.0,0.0,0.0,0.0,0.0,0.0,0.0,0.0,0.0,0.0,0.0,0.0,0.0,0.0,0.0,0.0,0.0,0.0,0.0,0.0,0.0,0.0,0.0,0.0,0.0,0.0,0.0,0.0,0.0,0.0,0.0,0.0,0.0,0.0,0.0,0.0,0.0,0.0,0.0,0.0,0.0,0.0,0.0,0.0,0.0,0.0,0.0,0.0,0.0,0.0,0.0,0.0,0.0,0.0,0.0,0.0,0.0,0.0,0.0,0.0,0.0,0.0,0.0,0.0,0.0,0.0,0.0,0.0,0.0,0.0,0.0,0.0,0.0,0.0,0.0,0.0,0.0,0.0,0.0,0.0,0.0,0.0,0.0,0.0,0.0,0.0,0.0,0.0,0.0,0.0,0.0,0.0,0.0,0.0,0.0,0.0,0.0,0.0,0.0,0.0,0.0,0.0,0.0,0.0,0.0,0.0,0.0,0.0,0.0,0.0,0.0,0.0,0.0,0.0,0.0,0.0,0.0,0.0,0.0,0.0,0.0,0.0,0.0,0.0,0.0,0.0,0.0,0.0,0.0,0.0,0.0,0.0,0.0,0.0,0.0,0.0,0.0,0.0,0.0,0.0,0.0,0.0,0.0,0.0,0.0,0.0,0.0,0.0,0.0,0.0,0.0,0.0,0.0,0.0,0.0,0.0,0.0,0.0,0.0,0.0,0.0,0.0,0.0,0.0,0.0,0.0,0.0,0.0,0.0,0.0,0.0,0.0,0.0,0.0,0.0,0.0,0.0,0.0,0.0,0.0,0.0,0.0,0.0,0.0,0.0,0.0,0.0,0.0,0.0,0.0,0.0,0.0,0.0,0.0,0.0,0.0,0.0,0.0,0.0,0.0,0.0,0.0,0.0,0.0,0.0,0.0,0.0,0.0,0.0,0.0,0.0,0.0,0.0,0.0,0.0,0.0,0.0,0.0,0.0,0.0,0.0,0.0,0.0,0.0,0.0,0.0,0.0,0.0,0.0,0.0,0.0,0.0,0.0,0.0,0.0,0.0,0.0,0.0,0.0,0.0,0.0,0.0,0.0,0.0,0.0,0.0,0.0,0.0,0.0,0.0,0.0,0.0,0.0,0.0,0.0,0.0,0.0,0.0,0.0,0.0,0.0,0.0,0.0,0.0,0.0,0.0,0.0,0.0,0.0,0.0,0.0,0.0,0.0,0.0,0.0,0.0,0.0,0.0,0.0,0.0,0.0,0.0,0.0,0.0,0.0,0.0,0.0,0.0,0.0,0.0,0.0,0.0,0.0,0.0,0.0,0.0,0.0,0.0,0.0,0.0,0.0,0.0,0.0,0.0,0.0,0.0,0.0,0.0,0.0,0.0,0.0,0.0,0.0,0.0,0.0,0.0,0.0,0.0,0.0,0.0,0.0,0.0,0.0,0.0,0.0,0.0,0.0,0.0,0.0,0.0,0.0,0.0,0.0,0.0,0.0,0.0,0.0,0.0,0.0,0.0,0.0,0.0,0.0,0.0,1.7299,0.0,0.0,0.0,0.0,0.0,0.0,0.0,0.0,0.0,0.0,0.0,0.0,0.0,0.0,0.0,0.0,0.0,0.0,0.0,0.0,0.0,0.0,0.0,0.0,0.0,0.0,0.0,0.0,0.0,0.0,0.0,0.0,0.0,0.0,0.0,0.0,0.0,0.0,0.0,0.0,0.0,0.0,0.0,0.0,0.0,0.0,0.0,0.0,0.0,0.0,0.0,0.0,0.0,0.0,0.0,0.0,0.0,0.0,0.0,0.0,0.0,0.0,0.0,0.0,0.0,0.0,0.0,0.0,0.0,0.0,0.0,0.0,0.0,0.0,0.0,0.0,0.0,0.0,0.0,0.0,0.0,0.0,0.0,0.0,0.0,0.0,0.0,0.0,0.0,0.0,0.0,0.0,0.0,0.0,0.0,0.0,0.0,0.0,0.0,0.0,0.0,0.0,0.0,0.0,0.0,0.0,0.0,0.0,0.0,0.0,1.8393,1.8322,1.8322,1.816,1.7839,0.0,0.0,0.0,0.0,0.0,0.0,0.0,0.0,0.0,0.0,0.0,0.0,0.0,0.0,0.0,0.0,0.0,0.0,0.0,0.0,0.0,0.0,0.0,0.0,0.0,0.0,0.0,0.0,0.0,0.0,0.0,0.0,0.0,0.0,0.0,0.0,0.0,0.0,0.0,0.0,0.0,0.0,0.0,0.0,0.0,0.0,0.0,0.0,0.0,0.0,0.0,0.0,0.0,0.0,0.0,0.0,0.0,0.0,0.0,0.0,0.0,0.0,0.0,0.0,0.0,0.0,0.0,0.0,0.0,0.0,0.0,0.0,0.0,0.0,0.0,0.0,0.0,0.0,0.0,0.0,0.0,0.0,0.0,0.0,0.0,0.0,0.0,0.0,0.0,0.0,0.0,0.0,0.0,0.0,0.0,0.0,0.0,0.0,0.0,0.0,0.0,0.0,0.0,0.0,0.0,0.0,0.0,0.0,0.0,0.0,0.0,0.0,1.8832,1.8697,1.8439,0.0,0.0,0.0,0.0,0.0,0.0,0.0,0.0,0.0,0.0,0.0,0.0,0.0,0.0,0.0,0.0,0.0,0.0,0.0,0.0,0.0,0.0,0.0,0.0,0.0,0.0,0.0,0.0,0.0,0.0,0.0,0.0,0.0,0.0,0.0,0.0,0.0,0.0,0.0,0.0,0.0,0.0,0.0,0.0,0.0,0.0,0.0,0.0,0.0,0.0,0.0,0.0,0.0,0.0,0.0,0.0,0.0,0.0,0.0,0.0,0.0,0.0,0.0,0.0,0.0,0.0,0.0,0.0,0.0,0.0,0.0,0.0,0.0,0.0,0.0,0.0,0.0,0.0,0.0,0.0,0.0,0.0,0.0,0.0,0.0,0.0,0.0,0.0,0.0,0.0,0.0,0.0,0.0,0.0,0.0,0.0,0.0,0.0,0.0,0.0,0.0,0.0,0.0,0.0,0.0,0.0,0.0,0.0,0.0,0.0,2.0117,2.0217,2.0079,0.0,1.9128,0.0,0.0,0.0,0.0,0.0,0.0,0.0,0.0,0.0,0.0,0.0,0.0,0.0,0.0,0.0,0.0,0.0,0.0,0.0,0.0,0.0,0.0,0.0,0.0,0.0,0.0,0.0,0.0,0.0,0.0,0.0,0.0,0.0,0.0,0.0,0.0,0.0,0.0,0.0,0.0,0.0,0.0,0.0,0.0,0.0,0.0,0.0,0.0,0.0,0.0,0.0,0.0,0.0,0.0,0.0,0.0,0.0,0.0,0.0,0.0,0.0,0.0,0.0,0.0,0.0,0.0,0.0,0.0,0.0,0.0,0.0,0.0,0.0,0.0,0.0,0.0,0.0,0.0,0.0,0.0,0.0,0.0,0.0,0.0,0.0,0.0,0.0,0.0,0.0,0.0,0.0,0.0,0.0,0.0,0.0,0.0,0.0,0.0,0.0,0.0,0.0,0.0,0.0,0.0,0.0,0.0,0.0,0.0,0.0,0.0,2.1547,2.1864,2.1212,2.0579,0.0,0.0,0.0,0.0,0.0,0.0,0.0,0.0,0.0,0.0,0.0,0.0,0.0,0.0,0.0,0.0,0.0,0.0,0.0,0.0,0.0,0.0,0.0,0.0,0.0,0.0,0.0,0.0,0.0,0.0,0.0,0.0,0.0,0.0,0.0,0.0,0.0,0.0,0.0,0.0,0.0,0.0,0.0,0.0,0.0,0.0,0.0,0.0,0.0,0.0,0.0,0.0,0.0,0.0,0.0,0.0,0.0,0.0,0.0,0.0,0.0,0.0,0.0,0.0,0.0,0.0,0.0,0.0,0.0,0.0,0.0,0.0,0.0,0.0,0.0,0.0,0.0,0.0,0.0,0.0,0.0,0.0,0.0,0.0,0.0,0.0,0.0,0.0,0.0,0.0,0.0,0.0,0.0,0.0,0.0,0.0,0.0,0.0,0.0,0.0,0.0,0.0,0.0,0.0,0.0,0.0,0.0,0.0,0.0,0.0,2.2347,2.2554,2.2989,2.2234,2.1498,2.0884,0.0,0.0,0.0,0.0,0.0,0.0,0.0,0.0,0.0,0.0,0.0,0.0,0.0,0.0,0.0,0.0,0.0,0.0,0.0,0.0,0.0,0.0,0.0,0.0,0.0,0.0,0.0,0.0,0.0,0.0,0.0,0.0,0.0,0.0,0.0,0.0,0.0,0.0,0.0,0.0,0.0,0.0,0.0,0.0,0.0,0.0,0.0,0.0,0.0,0.0,0.0,0.0,0.0,0.0,0.0,0.0,0.0,0.0,0.0,0.0,0.0,0.0,0.0,0.0,0.0,0.0,0.0,0.0,0.0,0.0,0.0,0.0,0.0,0.0,0.0,0.0,0.0,0.0,0.0,0.0,0.0,0.0,0.0,0.0,0.0,0.0,0.0,0.0,0.0,0.0,0.0,0.0,0.0,0.0,0.0,0.0,0.0,0.0,0.0,0.0,0.0,0.0,0.0,0.0,0.0,0.0,0.0,0.0,2.2745,2.2674,2.2872,2.3474,2.3174,2.2616,0.0,0.0,0.0,0.0,0.0,0.0,0.0,0.0,0.0,0.0,0.0,0.0,0.0,0.0,0.0,0.0,0.0,0.0,0.0,0.0,0.0,0.0,0.0,0.0,0.0,0.0,0.0,0.0,0.0,0.0,0.0,0.0,0.0,0.0,0.0,0.0,0.0,0.0,0.0,0.0,0.0,0.0,0.0,0.0,0.0,0.0,0.0,0.0,0.0,0.0,0.0,0.0,0.0,0.0,0.0,0.0,0.0,0.0,0.0,0.0,0.0,0.0,0.0,0.0,0.0,0.0,0.0,0.0,0.0,0.0,0.0,0.0,0.0,0.0,0.0,0.0,0.0,0.0,0.0,0.0,0.0,0.0,0.0,0.0,0.0,0.0,0.0,0.0,0.0,0.0,0.0,0.0,0.0,0.0,0.0,0.0,0.0,0.0,0.0,0.0,0.0,0.0,0.0,0.0,0.0,0.0,0.0,0.0,0.0,2.3756,2.4477,2.4889,2.5004,2.4324,2.3526,0.0,0.0,0.0,0.0,0.0,0.0,0.0,0.0,0.0,0.0,0.0,0.0,0.0,0.0,0.0,0.0,0.0,0.0,0.0,0.0,0.0,0.0,0.0,0.0,0.0,0.0,0.0,0.0,0.0,0.0,0.0,0.0,0.0,0.0,0.0,0.0,0.0,0.0,0.0,0.0,0.0,0.0,0.0,0.0,0.0,0.0,0.0,0.0,0.0,0.0,0.0,0.0,0.0,0.0,0.0,0.0,0.0,0.0,0.0,0.0,0.0,0.0,0.0,0.0,0.0,0.0,0.0,0.0,0.0,0.0,0.0,0.0,0.0,0.0,0.0,0.0,0.0,0.0,0.0,0.0,0.0,0.0,0.0,0.0,0.0,0.0,0.0,0.0,0.0,0.0,0.0,0.0,0.0,0.0,0.0,0.0,0.0,0.0,0.0,0.0,0.0,0.0,0.0,0.0,0.0,0.0,0.0,0.0,0.0,2.4843,0.0,2.6259,2.6083,2.527,2.4381,0.0,0.0,0.0,0.0,0.0,0.0,0.0,0.0,0.0,0.0,0.0,0.0,0.0,0.0,0.0,0.0,0.0,0.0,0.0,0.0,0.0,0.0,0.0,0.0,0.0,0.0,0.0,0.0,0.0,0.0,0.0,0.0,0.0,0.0,0.0,0.0,0.0,0.0,0.0,0.0,0.0,0.0,0.0,0.0,0.0,0.0,0.0,0.0,0.0,0.0,0.0,0.0,0.0,0.0,0.0,0.0,0.0,0.0,0.0,0.0,0.0,0.0,0.0,0.0,0.0,0.0,0.0,0.0,0.0,0.0,0.0,0.0,0.0,0.0,0.0,0.0,0.0,0.0,0.0,0.0,0.0,0.0,0.0,0.0,0.0,0.0,0.0,0.0,0.0,0.0,0.0,0.0,0.0,0.0,0.0,0.0,0.0,0.0,0.0,0.0,0.0,0.0,0.0,0.0,0.0,0.0,0.0,0.0,2.4498,2.5954,2.6526,2.673,2.6511,2.5989,2.519,0.0,0.0,0.0,0.0,0.0,0.0,0.0,0.0,0.0,0.0,0.0,0.0,0.0,0.0,0.0,0.0,0.0,0.0,0.0,0.0,0.0,0.0,0.0,0.0,0.0,0.0,0.0,0.0,0.0,0.0,0.0,0.0,0.0,0.0,0.0,0.0,0.0,0.0,0.0,0.0,0.0,0.0,0.0,0.0,0.0,0.0,0.0,0.0,0.0,0.0,0.0,0.0,0.0,0.0,0.0,0.0,0.0,0.0,0.0,0.0,0.0,0.0,0.0,0.0,0.0,0.0,0.0,0.0,0.0,0.0,0.0,0.0,0.0,0.0,0.0,0.0,0.0,0.0,0.0,0.0,0.0,0.0,0.0,0.0,0.0,0.0,0.0,0.0,0.0,0.0,0.0,0.0,0.0,0.0,0.0,0.0,0.0,0.0,0.0,0.0,0.0,0.0,0.0,0.0,0.0,0.0,0.0,0.0,0.0,2.7153,2.7316,2.7296,2.7051,2.6665,2.573,0.0,0.0,0.0,0.0,0.0,0.0,0.0,0.0,0.0,0.0,0.0,0.0,0.0,0.0,0.0,0.0,0.0,0.0,0.0,0.0,0.0,0.0,0.0,0.0,0.0,0.0,0.0,0.0,0.0,0.0,0.0,0.0,0.0,0.0,0.0,0.0,0.0,0.0,0.0,0.0,0.0,0.0,0.0,0.0,0.0,0.0,0.0,0.0,0.0,0.0,0.0,0.0,0.0,0.0,0.0,0.0,0.0,0.0,0.0,0.0,0.0,0.0,0.0,0.0,0.0,0.0,0.0,0.0,0.0,0.0,0.0,0.0,0.0,0.0,0.0,0.0,0.0,0.0,0.0,0.0,0.0,0.0,0.0,0.0,0.0,0.0,0.0,0.0,0.0,0.0,0.0,0.0,0.0,0.0,0.0,0.0,0.0,0.0,0.0,0.0,0.0,0.0,0.0,0.0,0.0,0.0,0.0,0.0,0.0,2.7877,2.7988,2.7919,2.7654,2.699,2.5992,2.4607,0.0,0.0,0.0,0.0,0.0,0.0,0.0,0.0,0.0,0.0,0.0,0.0,0.0,0.0,0.0,0.0,0.0,0.0,0.0,0.0,0.0,0.0,0.0,0.0,0.0,0.0,0.0,0.0,0.0,0.0,0.0,0.0,0.0,0.0,0.0,0.0,0.0,0.0,0.0,0.0,0.0,0.0,0.0,0.0,0.0,0.0,0.0,0.0,0.0,0.0,0.0,0.0,0.0,0.0,0.0,0.0,0.0,0.0,0.0,0.0,0.0,0.0,0.0,0.0,0.0,0.0,0.0,0.0,0.0,0.0,0.0,0.0,0.0,0.0,0.0,0.0,0.0,0.0,0.0,0.0,0.0,0.0,0.0,0.0,0.0,0.0,0.0,0.0,0.0,0.0,0.0,0.0,0.0,0.0,0.0,0.0,0.0,0.0,0.0,0.0,0.0,0.0,0.0,0.0,0.0,0.0,0.0,0.0,2.8197,2.8483,2.8483,2.8225,2.7057,2.6118,0.0,0.0,0.0,0.0,0.0,0.0,0.0,0.0,0.0,0.0,0.0,0.0,0.0,0.0,0.0,0.0,0.0,0.0,0.0,0.0,0.0,0.0,0.0,0.0,0.0,0.0,0.0,0.0,0.0,0.0,0.0,0.0,0.0,0.0,0.0,0.0,0.0,0.0,0.0,0.0,0.0,0.0,0.0,0.0,0.0,0.0,0.0,0.0,0.0,0.0,0.0,0.0,0.0,0.0,0.0,0.0,0.0,0.0,0.0,0.0,0.0,0.0,0.0,0.0,0.0,0.0,0.0,0.0,0.0,0.0,0.0,0.0,0.0,0.0,0.0,0.0,0.0,0.0,0.0,0.0,0.0,0.0,0.0,0.0,0.0,0.0,0.0,0.0,0.0,0.0,0.0,0.0,0.0,0.0,0.0,0.0,0.0,0.0,0.0,0.0,0.0,0.0,0.0,0.0,0.0,0.0,0.0,0.0,0.0,2.8347,2.875,2.8854,2.8555,2.7493,2.6437,0.0,0.0,0.0,0.0,0.0,0.0,0.0,0.0,0.0,0.0,0.0,0.0,0.0,0.0,0.0,0.0,0.0,0.0,0.0,0.0,0.0,0.0,0.0,0.0,0.0,0.0,0.0,0.0,0.0,0.0,0.0,0.0,0.0,0.0,0.0,0.0,0.0,0.0,0.0,0.0,0.0,0.0,0.0,0.0,0.0,0.0,0.0,0.0,0.0,0.0,0.0,0.0,0.0,0.0,0.0,0.0,0.0,0.0,0.0,0.0,0.0,0.0,0.0,0.0,0.0,0.0,0.0,0.0,0.0,0.0,0.0,0.0,0.0,0.0,0.0,0.0,0.0,0.0,0.0,0.0,0.0,0.0,0.0,0.0,0.0,0.0,0.0,0.0,0.0,0.0,0.0,0.0,0.0,0.0,0.0,0.0,0.0,0.0,0.0,0.0,0.0,0.0,0.0,0.0,0.0,0.0,0.0,0.0,2.7567,2.8066,2.8515,2.865,2.8404,2.749,2.6526,0.0,0.0,0.0,0.0,0.0,0.0,0.0,0.0,0.0,0.0,0.0,0.0,0.0,0.0,0.0,0.0,0.0,0.0,0.0,0.0,0.0,0.0,0.0,0.0,0.0,0.0,0.0,0.0,0.0,0.0,0.0,0.0,0.0,0.0,0.0,0.0,0.0,0.0,0.0,0.0,0.0,0.0,0.0,0.0,0.0,0.0,0.0,0.0,0.0,0.0,0.0,0.0,0.0,0.0,0.0,0.0,0.0,0.0,0.0,0.0,0.0,0.0,0.0,0.0,0.0,0.0,0.0,0.0,0.0,0.0,0.0,0.0,0.0,0.0,0.0,0.0,0.0,0.0,0.0,0.0,0.0,0.0,0.0,0.0,0.0,0.0,0.0,0.0,0.0,0.0,0.0,0.0,0.0,0.0,0.0,0.0,0.0,0.0,0.0,0.0,0.0,0.0,0.0,0.0,0.0,0.0,0.0,0.0,2.6987,2.7557,2.797,2.8105,2.7878,2.7238,2.6466,0.0,0.0,0.0,0.0,0.0,0.0,0.0,0.0,0.0,0.0,0.0,0.0,0.0,0.0,0.0,0.0,0.0,0.0,0.0,0.0,0.0,0.0,0.0,0.0,0.0,0.0,0.0,0.0,0.0,0.0,0.0,0.0,0.0,0.0,0.0,0.0,0.0,0.0,0.0,0.0,0.0,0.0,0.0,0.0,0.0,0.0,0.0,0.0,0.0,0.0,0.0,0.0,0.0,0.0,0.0,0.0,0.0,0.0,0.0,0.0,0.0,0.0,0.0,0.0,0.0,0.0,0.0,0.0,0.0,0.0,0.0,0.0,0.0,0.0,0.0,0.0,0.0,0.0,0.0,0.0,0.0,0.0,0.0,0.0,0.0,0.0,0.0,0.0,0.0,0.0,0.0,0.0,0.0,0.0,0.0,0.0,0.0,0.0,0.0,0.0,0.0,0.0,0.0,0.0,0.0,0.0,0.0,0.0,2.6464,2.7331,2.7458,2.7419,2.7231,2.6909,2.6303,0.0,0.0,0.0,0.0,0.0,0.0,0.0,0.0,0.0,0.0,0.0,0.0,0.0,0.0,0.0,0.0,0.0,0.0,0.0,0.0,0.0,0.0,0.0,0.0,0.0,0.0,0.0,0.0,0.0,0.0,0.0,0.0,0.0,0.0,0.0,0.0,0.0,0.0,0.0,0.0,0.0,0.0,0.0,0.0,0.0,0.0,0.0,0.0,2.5573,0.0,0.0,0.0,0.0,0.0,0.0,0.0,0.0,0.0,0.0,0.0,0.0,0.0,0.0,0.0,0.0,0.0,0.0,0.0,0.0,0.0,0.0,0.0,0.0,0.0,0.0,0.0,0.0,0.0,0.0,0.0,0.0,0.0,0.0,0.0,0.0,0.0,0.0,0.0,0.0,0.0,0.0,0.0,0.0,0.0,0.0,0.0,0.0,0.0,0.0,0.0,0.0,0.0,0.0,0.0,0.0,0.0,0.0,0.0,2.6469,2.7485,2.7524,2.7575,2.764,2.7306,2.6646,0.0,0.0,0.0,0.0,0.0,0.0,0.0,0.0,0.0,0.0,0.0,0.0,0.0,0.0,0.0,0.0,0.0,0.0,0.0,0.0,0.0,0.0,0.0,0.0,0.0,0.0,0.0,0.0,0.0,0.0,0.0,0.0,0.0,0.0,0.0,0.0,0.0,0.0,0.0,0.0,0.0,0.0,0.0,0.0,0.0,0.0,0.0,0.0,0.0,0.0,0.0,0.0,0.0,0.0,0.0,0.0,0.0,0.0,0.0,0.0,0.0,0.0,0.0,0.0,0.0,0.0,0.0,0.0,0.0,0.0,0.0,0.0,0.0,0.0,0.0,0.0,0.0,0.0,0.0,0.0,0.0,0.0,0.0,0.0,0.0,0.0,0.0,0.0,0.0,0.0,0.0,0.0,0.0,0.0,0.0,0.0,0.0,0.0,0.0,0.0,0.0,0.0,0.0,0.0,0.0,0.0,0.0,2.585,2.665,2.7627,2.7755,2.7942,2.8243,2.7738,2.7023,2.6064,0.0,0.0,0.0,0.0,0.0,0.0,0.0,0.0,0.0,0.0,0.0,0.0,0.0,0.0,0.0,0.0,0.0,0.0,0.0,0.0,0.0,0.0,0.0,0.0,0.0,0.0,0.0,0.0,0.0,0.0,0.0,0.0,0.0,0.0,0.0,0.0,0.0,0.0,2.418,2.5735,0.0,0.0,0.0,0.0,0.0,0.0,0.0,0.0,2.7585,0.0,0.0,0.0,0.0,0.0,0.0,0.0,0.0,0.0,0.0,0.0,0.0,0.0,0.0,0.0,0.0,0.0,0.0,0.0,0.0,0.0,0.0,0.0,0.0,0.0,0.0,0.0,0.0,0.0,0.0,0.0,0.0,0.0,0.0,0.0,0.0,0.0,0.0,0.0,0.0,0.0,0.0,0.0,0.0,0.0,0.0,0.0,0.0,0.0,0.0,0.0,0.0,0.0,0.0,0.0,0.0,2.4901,2.5912,2.6658,2.7133,2.7565,2.776,2.7656,2.7119,2.6748,2.6526,0.0,0.0,0.0,0.0,0.0,0.0,0.0,0.0,0.0,0.0,0.0,0.0,0.0,0.0,0.0,0.0,0.0,0.0,0.0,0.0,0.0,0.0,0.0,0.0,0.0,0.0,0.0,0.0,0.0,0.0,0.0,0.0,0.0,0.0,0.0,0.0,0.0,0.0,0.0,2.6321,2.7007,0.0,0.0,0.0,0.0,0.0,0.0,0.0,0.0,2.754,0.0,0.0,0.0,0.0,0.0,0.0,0.0,0.0,0.0,0.0,0.0,0.0,0.0,0.0,0.0,0.0,0.0,0.0,0.0,0.0,0.0,0.0,0.0,0.0,0.0,0.0,0.0,0.0,0.0,0.0,0.0,0.0,0.0,0.0,0.0,0.0,0.0,0.0,0.0,0.0,0.0,0.0,0.0,0.0,0.0,0.0,0.0,0.0,0.0,0.0,0.0,0.0,0.0,0.0,0.0,2.4594,2.5903,2.6831,2.7255,2.7687,2.7979,2.8135,2.7284,2.6766,0.0,0.0,0.0,0.0,0.0,0.0,0.0,0.0,0.0,0.0,0.0,0.0,0.0,0.0,0.0,0.0,0.0,0.0,0.0,0.0,0.0,0.0,0.0,0.0,0.0,0.0,0.0,0.0,0.0,0.0,0.0,0.0,0.0,0.0,0.0,0.0,0.0,0.0,0.0,0.0,2.7719,2.824,2.8764,0.0,0.0,0.0,0.0,0.0,0.0,2.8633,2.8513,0.0,0.0,0.0,0.0,0.0,0.0,0.0,0.0,0.0,0.0,0.0,0.0,0.0,0.0,0.0,0.0,0.0,0.0,0.0,0.0,0.0,0.0,0.0,0.0,0.0,0.0,0.0,0.0,0.0,0.0,0.0,0.0,0.0,0.0,0.0,0.0,0.0,0.0,0.0,0.0,0.0,0.0,0.0,0.0,0.0,0.0,0.0,0.0,0.0,0.0,0.0,0.0,0.0,0.0,0.0,2.454,2.5984,2.6944,2.7406,2.7745,2.812,2.8458,2.7299,2.6579,0.0,0.0,0.0,0.0,0.0,0.0,0.0,0.0,0.0,0.0,0.0,0.0,0.0,0.0,0.0,0.0,0.0,0.0,0.0,0.0,0.0,0.0,0.0,0.0,0.0,0.0,0.0,0.0,0.0,0.0,0.0,0.0,0.0,0.0,0.0,0.0,0.0,0.0,0.0,0.0,0.0,2.9363,2.9766,2.9818,0.0,0.0,0.0,0.0,2.9608,2.9608,0.0,0.0,0.0,0.0,0.0,0.0,0.0,0.0,0.0,0.0,0.0,0.0,0.0,0.0,0.0,0.0,0.0,0.0,0.0,0.0,0.0,0.0,0.0,0.0,0.0,0.0,0.0,0.0,0.0,0.0,0.0,0.0,0.0,0.0,0.0,0.0,0.0,0.0,0.0,0.0,0.0,0.0,0.0,0.0,0.0,0.0,0.0,0.0,0.0,0.0,0.0,0.0,0.0,0.0,0.0,0.0,2.5203,2.6293,2.6954,2.7085,2.7549,2.7703,2.7386,2.6378,2.5831,0.0,0.0,0.0,0.0,0.0,0.0,0.0,0.0,0.0,0.0,0.0,0.0,0.0,0.0,0.0,0.0,0.0,0.0,0.0,0.0,0.0,0.0,0.0,0.0,0.0,0.0,0.0,0.0,0.0,0.0,0.0,0.0,0.0,0.0,0.0,0.0,0.0,0.0,0.0,0.0,0.0,2.9388,2.9902,2.9872,2.9751,0.0,0.0,2.9608,2.9608,2.9608,0.0,0.0,0.0,0.0,0.0,0.0,0.0,0.0,0.0,0.0,0.0,0.0,0.0,0.0,0.0,0.0,0.0,0.0,0.0,0.0,0.0,0.0,0.0,0.0,0.0,0.0,0.0,0.0,0.0,0.0,0.0,0.0,0.0,0.0,0.0,0.0,0.0,0.0,0.0,0.0,0.0,0.0,0.0,0.0,0.0,0.0,0.0,0.0,0.0,0.0,0.0,0.0,0.0,0.0,0.0,2.3703,2.4611,2.551,2.6155,2.6487,2.6748,2.6805,2.662,2.5536,2.4963,0.0,0.0,0.0,0.0,0.0,0.0,0.0,0.0,0.0,0.0,0.0,0.0,0.0,0.0,0.0,0.0,0.0,0.0,0.0,0.0,0.0,0.0,0.0,0.0,0.0,0.0,0.0,0.0,0.0,0.0,0.0,0.0,0.0,0.0,0.0,0.0,0.0,0.0,0.0,0.0,0.0,0.0,3.1068,3.1021,0.0,0.0,0.0,3.0673,3.0673,0.0,0.0,0.0,0.0,0.0,0.0,0.0,0.0,0.0,0.0,0.0,0.0,0.0,0.0,0.0,0.0,0.0,0.0,0.0,0.0,0.0,0.0,0.0,0.0,0.0,0.0,0.0,0.0,0.0,0.0,0.0,0.0,0.0,0.0,0.0,0.0,0.0,0.0,0.0,0.0,0.0,0.0,0.0,0.0,0.0,0.0,0.0,0.0,0.0,0.0,0.0,0.0,0.0,0.0,0.0,0.0,0.0,2.4152,2.4764,2.5332,2.5855,2.5935,2.5893,2.5767,2.4769,0.0,0.0,0.0,0.0,0.0,0.0,0.0,0.0,0.0,0.0,0.0,0.0,0.0,0.0,0.0,0.0,0.0,0.0,0.0,0.0,0.0,0.0,0.0,0.0,0.0,0.0,0.0,2.6203,0.0,0.0,0.0,0.0,0.0,0.0,0.0,0.0,0.0,0.0,0.0,0.0,0.0,0.0,3.1393,3.2075,3.2096,3.2013,0.0,0.0,3.1989,3.2004,3.1989,3.1779,0.0,0.0,0.0,0.0,0.0,0.0,0.0,0.0,0.0,0.0,0.0,0.0,0.0,0.0,0.0,0.0,0.0,0.0,0.0,0.0,0.0,0.0,0.0,0.0,0.0,0.0,0.0,0.0,0.0,0.0,0.0,0.0,0.0,0.0,0.0,0.0,0.0,0.0,0.0,0.0,0.0,0.0,0.0,0.0,0.0,0.0,0.0,0.0,0.0,0.0,0.0,0.0,0.0,0.0,0.0,2.4305,2.4436,2.4708,2.5231,2.5285,2.5062,2.4616,2.4116,2.367,0.0,0.0,0.0,0.0,0.0,0.0,0.0,0.0,0.0,0.0,0.0,0.0,0.0,0.0,0.0,0.0,0.0,0.0,0.0,0.0,0.0,0.0,0.0,0.0,0.0,0.0,0.0,0.0,0.0,0.0,0.0,0.0,0.0,0.0,0.0,0.0,0.0,0.0,0.0,0.0,0.0,3.1408,3.2507,3.2644,3.281,0.0,0.0,3.3365,3.3365,3.3365,3.314,3.2482,0.0,0.0,0.0,0.0,0.0,0.0,0.0,0.0,0.0,0.0,0.0,0.0,0.0,0.0,0.0,0.0,0.0,0.0,0.0,0.0,0.0,0.0,0.0,0.0,0.0,0.0,0.0,0.0,0.0,0.0,0.0,0.0,0.0,0.0,0.0,0.0,0.0,0.0,0.0,0.0,0.0,0.0,0.0,0.0,0.0,0.0,0.0,0.0,0.0,0.0,0.0,0.0,0.0,2.195,2.3635,2.3495,2.3804,2.4552,2.4444,2.424,2.409,2.3651,2.3235,0.0,0.0,0.0,0.0,0.0,0.0,0.0,0.0,0.0,0.0,0.0,0.0,0.0,0.0,0.0,0.0,0.0,0.0,0.0,0.0,0.0,0.0,0.0,0.0,0.0,0.0,0.0,0.0,2.8824,2.894,2.8543,0.0,0.0,0.0,0.0,0.0,0.0,0.0,0.0,0.0,0.0,3.237,3.3201,3.3261,0.0,0.0,3.3499,3.3499,3.3499,3.3499,3.3364,3.2988,3.2616,0.0,0.0,0.0,0.0,0.0,0.0,0.0,0.0,0.0,0.0,0.0,0.0,0.0,0.0,0.0,0.0,0.0,0.0,0.0,0.0,0.0,0.0,0.0,0.0,0.0,0.0,0.0,0.0,0.0,0.0,0.0,0.0,0.0,0.0,0.0,0.0,0.0,0.0,0.0,0.0,0.0,0.0,0.0,0.0,0.0,0.0,0.0,0.0,0.0,0.0,0.0,0.0,2.1401,2.2981,2.2808,2.3132,2.396,2.3829,2.3667,2.3592,2.3303,2.2966,0.0,0.0,0.0,0.0,0.0,0.0,0.0,0.0,0.0,0.0,0.0,0.0,0.0,0.0,0.0,0.0,0.0,0.0,0.0,0.0,0.0,0.0,0.0,0.0,0.0,0.0,0.0,0.0,2.9457,2.9547,2.9079,0.0,0.0,0.0,0.0,0.0,0.0,0.0,0.0,0.0,0.0,3.3186,3.3848,3.3876,3.3873,3.4068,3.4036,3.4005,3.402,3.3958,3.3805,3.3502,0.0,0.0,0.0,0.0,0.0,0.0,0.0,0.0,0.0,0.0,0.0,0.0,0.0,0.0,0.0,0.0,0.0,0.0,0.0,0.0,0.0,0.0,0.0,0.0,0.0,0.0,0.0,0.0,0.0,0.0,1.0408,0.0,0.0,0.0,0.0,0.0,0.0,0.0,0.0,0.0,0.0,0.0,0.0,0.0,0.0,0.0,0.0,0.0,0.0,0.0,0.0,0.0,0.0,2.1166,2.2472,2.2492,2.2819,2.3485,2.3503,2.3363,2.3144,2.3103,2.293,2.2521,0.0,0.0,0.0,0.0,0.0,0.0,0.0,0.0,0.0,0.0,0.0,0.0,0.0,0.0,0.0,0.0,0.0,0.0,0.0,0.0,0.0,0.0,0.0,0.0,0.0,0.0,2.9548,2.9606,2.9621,0.0,0.0,0.0,0.0,0.0,0.0,0.0,0.0,0.0,0.0,3.3081,3.3739,3.4383,3.4488,3.4681,3.5309,3.5252,3.5154,3.5108,3.496,3.4668,0.0,0.0,0.0,0.0,0.0,0.0,0.0,0.0,0.0,0.0,0.0,0.0,0.0,0.0,0.0,0.0,0.0,0.0,0.0,0.0,0.0,0.0,0.0,0.0,0.0,0.0,0.0,1.0337,1.0624,0.0,0.0,0.0,0.0,0.0,0.0,0.0,0.0,0.0,0.0,0.0,1.7915,1.809,0.0,0.0,0.0,0.0,0.0,0.0,0.0,0.0,0.0,0.0,0.0,0.0,2.0741,2.16,2.1897,2.2364,2.3025,2.3045,2.3067,2.3101,2.3101,2.2896,2.2508,0.0,0.0,0.0,0.0,0.0,0.0,0.0,0.0,0.0,0.0,0.0,0.0,0.0,0.0,0.0,0.0,0.0,0.0,0.0,0.0,0.0,0.0,0.0,0.0,0.0,3.0133,0.0,0.0,0.0,0.0,0.0,0.0,0.0,0.0,0.0,0.0,0.0,3.2572,3.3694,3.4024,3.4351,3.4894,3.4968,3.4993,0.0,0.0,0.0,0.0,0.0,0.0,0.0,0.0,0.0,0.0,0.0,0.0,0.0,0.0,3.3073,3.2677,3.242,3.2196,3.1926,0.0,0.0,0.0,0.0,0.0,0.0,0.0,0.0,0.0,0.0,0.0,0.0,0.0,0.0,1.0759,0.0,1.1286,0.0,0.0,0.0,0.0,0.0,0.0,0.0,0.0,1.6874,1.7376,1.7706,1.804,1.8212,0.0,1.8326,1.873,0.0,0.0,0.0,0.0,0.0,0.0,0.0,0.0,2.0379,2.0943,2.1416,2.1947,2.2511,2.264,2.2728,2.285,2.2947,2.2797,2.2423,2.191,2.1584,0.0,0.0,0.0,0.0,0.0,0.0,0.0,0.0,0.0,0.0,0.0,0.0,0.0,0.0,0.0,0.0,0.0,0.0,0.0,0.0,0.0,0.0,0.0,3.1017,0.0,0.0,0.0,0.0,0.0,0.0,0.0,0.0,0.0,3.1839,3.2587,3.3407,3.4289,3.4539,3.4755,3.5055,0.0,0.0,0.0,0.0,0.0,0.0,0.0,3.4059,3.3597,3.3122,3.2697,3.2302,3.2232,3.2232,3.2232,0.0,0.0,3.2723,3.2524,3.2266,3.1919,3.1683,3.1497,3.1357,3.1011,3.0803,0.0,0.0,0.0,0.0,0.0,0.0,0.0,0.0,1.0335,1.0795,0.0,1.1357,0.0,0.0,0.0,0.0,0.0,1.4309,0.0,0.0,1.6514,1.6891,1.7147,1.8102,1.8555,1.8589,1.8854,1.9033,1.9008,1.835,0.0,0.0,0.0,0.0,0.0,0.0,2.0101,2.0485,2.1038,2.1587,2.2056,2.2242,2.2353,2.241,2.264,2.2621,2.2248,2.2382,2.2108,2.1298,2.1421,0.0,0.0,0.0,0.0,0.0,0.0,0.0,0.0,0.0,0.0,0.0,0.0,0.0,0.0,0.0,0.0,0.0,0.0,0.0,0.0,3.1036,0.0,0.0,0.0,0.0,0.0,0.0,0.0,0.0,0.0,0.0,3.2527,3.3494,3.4218,3.4233,0.0,0.0,0.0,0.0,3.4647,3.4631,3.4162,3.3788,3.377,3.3479,3.3217,3.2988,0.0,0.0,3.2128,3.2073,3.206,3.2082,3.2109,3.2336,3.3128,3.2702,3.2193,3.1854,3.132,3.0959,3.1133,3.0967,3.0867,0.6197,0.0,0.0,0.0,0.0,0.8266,0.9198,1.014,1.1095,1.1737,1.2126,1.2508,0.0,0.0,0.0,0.0,0.0,0.0,1.4877,1.5426,1.6229,1.67,1.6989,1.7648,1.7959,1.7959,1.8056,1.8113,1.8089,1.7891,1.8137,1.8779,0.0,0.0,0.0,0.0,1.9817,1.9939,2.0385,2.0855,2.1289,2.1378,2.1646,2.2163,2.2274,2.2403,2.263,2.2406,2.2242,2.2107,2.1715,0.0,0.0,0.0,0.0,0.0,0.0,0.0,0.0,0.0,0.0,0.0,0.0,0.0,0.0,0.0,0.0,0.0,0.0,0.0,3.1052,3.1362,3.1496,0.0,0.0,0.0,0.0,0.0,0.0,0.0,0.0,0.0,3.3385,3.3743,3.4205,0.0,0.0,3.465,3.4366,3.4179,3.3974,3.3736,3.3427,0.0,3.3023,3.2814,3.2507,3.2055,3.1703,3.144,3.1347,3.1328,3.1423,3.1819,3.1893,3.2087,3.261,3.2452,3.205,3.1726,3.1501,3.1432,3.1558,3.1421,3.14,0.6298,0.6119,0.6369,0.6812,0.747,0.8369,0.9345,1.0374,1.1353,1.2026,1.2445,1.279,1.2929,1.2923,1.3173,0.0,0.0,0.0,1.4685,1.5231,1.5821,1.6272,1.6573,1.7095,1.7344,1.7352,1.7474,1.7543,1.7543,1.7551,1.7812,1.839,0.0,0.0,1.8546,1.8946,1.9137,1.9168,1.963,1.9988,2.0275,2.047,2.0885,2.1508,2.162,2.1878,2.2353,2.2323,2.2299,2.237,2.2084,2.1838,0.0,0.0,0.0,0.0,0.0,0.0,0.0,0.0,0.0,0.0,0.0,2.6115,0.0,0.0,0.0,0.0,3.0393,3.1412,3.2109,3.2258,0.0,0.0,0.0,0.0,0.0,0.0,0.0,3.3152,3.3503,3.3773,3.3773,3.3817,3.4028,3.4541,3.4397,3.4157,3.3822,0.0,3.3252,3.2974,3.2668,3.2417,3.2273,3.2019,3.177,3.16,3.149,3.1403,3.1384,3.1384,3.1513,3.1779,3.1869,3.1986,3.2316,3.2194,3.2059,3.1894,3.1875,3.1886,3.1896,3.1732,3.1677,0.6315,0.6346,0.6611,0.7079,0.7751,0.8399,0.9305,1.0365,1.1234,1.186,1.2268,1.2442,1.2568,1.2588,1.2835,0.0,1.3967,1.3974,1.4392,1.5138,1.5389,1.5675,1.5981,1.6537,1.6765,1.6795,1.7094,1.7239,1.7232,1.7225,1.7239,1.7241,1.7513,1.7633,1.7693,1.805,1.823,1.823,1.8767,1.905,1.9119,1.9561,2.0053,2.0609,2.0794,2.1141,2.1664,2.2109,2.2315,2.2255,2.238,2.2503,2.2552,0.0,0.0,0.0,0.0,0.0,0.0,0.0,0.0,0.0,0.0,0.0,0.0,0.0,0.0,0.0,3.2118,0.0,3.3177,3.3346,0.0,0.0,0.0,3.3219,3.3046,3.3089,3.3182,3.3394,0.0,0.0,3.3794,3.3657,3.3626,3.3925,3.3698,3.3466,3.3252,3.2864,3.2525,3.2327,3.1895,3.1604,3.167,3.1388,3.127,3.1513,3.1768,3.1877,3.187,3.1902,3.1921,3.1997,3.201,3.2061,3.2074,3.2153,3.2142,3.2343,3.2267,3.2182,3.2038,3.1881,3.1797,0.6402,0.667,0.6739,0.7102,0.7695,0.8388,0.9315,1.0351,1.1293,1.2006,1.2602,1.2839,1.3048,1.3194,1.3263,1.3379,1.3534,1.3748,1.4045,1.4455,1.5118,1.5566,1.5867,1.6376,1.6657,1.6664,1.6711,1.677,1.677,1.677,1.677,1.6786,1.6831,1.7029,1.7383,1.7503,1.7533,1.7533,1.7685,1.7963,1.8365,1.8819,1.9325,1.9851,2.0056,2.0578,2.1432,2.1731,2.2116,2.2628,2.2416,2.2513,2.2994,2.2829,0.0,0.0,0.0,0.0,0.0,0.0,0.0,0.0,0.0,2.7168,2.8001,0.0,2.9593,0.0,3.1945,3.2751,3.3019,3.3083,0.0,0.0,3.3495,3.3678,3.3341,3.376,3.3924,3.3591,3.3568,3.3473,3.3252,3.3037,3.2895,3.2828,3.2864,3.2846,3.265,3.2169,3.1795,3.1627,3.1566,3.1524,3.1512,3.1538,3.1549,3.1649,3.1595,3.1529,3.1562,3.1549,3.1688,3.2058,3.2159,3.2323,3.2735,3.2849,3.2836,3.2849,3.2353,3.1904,3.2112,3.2097,3.2215,0.6104,0.6324,0.6685,0.7033,0.7451,0.8272,0.9195,1.0159,1.0895,1.1607,1.2272,1.2519,1.2732,1.2951,1.3053,1.321,1.345,1.3693,1.4005,1.4385,1.4839,1.5256,1.5668,1.5964,1.6157,1.6228,1.6157,1.6109,1.6086,1.5974,1.5974,1.6109,1.6116,1.6275,1.6622,1.6857,1.7005,1.7005,1.6981,1.7192,1.7605,1.7939,1.8373,1.8904,1.9256,1.9806,2.069,2.1163,2.1731,2.2441,2.2473,2.2716,2.3286,2.3202,2.339,0.0,0.0,0.0,0.0,0.0,0.0,0.0,0.0,0.0,0.0,0.0,3.0052,3.1437,3.2654,3.3434,3.3615,3.3696,3.3728,3.3631,3.3873,3.3896,3.3528,3.3824,3.3851,3.3385,3.3262,3.3086,3.2775,3.2503,3.2395,3.2499,3.2393,3.2282,3.224,3.1923,3.1672,3.1628,3.1597,3.1553,3.1461,3.1724,3.192,3.1932,3.2059,3.216,3.216,3.216,3.2252,3.2528,3.2604,3.2713,3.3018,3.3294,3.3467,3.3416,3.3255,3.2962,3.265,3.2612,3.2738,0.5608,0.5764,0.639,0.6833,0.7165,0.7995,0.8872,0.9794,1.0311,1.0959,1.1678,1.1862,1.21,1.2351,1.2572,1.292,1.3352,1.3593,1.401,1.4518,1.4538,1.4888,1.5445,1.5452,1.5547,1.5713,1.5547,1.5445,1.5428,1.522,1.522,1.5445,1.5445,1.5547,1.5713,1.6204,1.6471,1.6487,1.6534,1.6659,1.6885,1.7129,1.7496,1.7986,1.8496,1.9104,1.9837,2.0578,2.1289,2.2008,2.2517,2.2957,2.3428,2.35,2.3804,0.0,2.4988,0.0,0.0,0.0,0.0,0.0,0.0,0.0,0.0,2.9645,3.0721,3.2263,3.3522,3.4261,3.4295,3.4465,3.4513,3.4312,3.4142,3.3905,3.3588,3.3504,3.3347,3.2949,3.2721,3.2538,3.2432,3.2117,3.2139,3.2554,3.2255,3.2051,3.2103,3.1948,3.1818,3.1943,3.1861,3.1762,3.1778,3.2035,3.2328,3.2378,3.27,3.309,3.304,3.3128,3.319,3.3215,3.3278,3.3341,3.3316,3.3696,3.3985,3.401,3.4286,3.4274,3.3558,3.3332,3.3316,0.5213,0.57,0.5852,0.6365,0.7117,0.7272,0.8021,0.9126,0.982,1.0594,1.138,1.1584,1.1842,1.2089,1.2292,1.2428,1.2552,1.3003,1.352,1.4058,1.4241,1.4662,1.5148,1.5178,1.5196,1.5226,1.5202,1.5178,1.5178,1.5131,1.5107,1.5172,1.5178,1.5172,1.525,0.0,0.0,0.0,1.617,1.6295,1.6366,1.6807,1.7183,1.7473,1.8172,0.0,1.9637,2.0351,2.106,2.1741,2.222,0.0,0.0,0.0,0.0,0.0,0.0,0.0,0.0,0.0,0.0,0.0,2.8581,2.8866,2.9369,3.0679,3.1762,3.2346,3.3087,3.3588,3.3744,3.3948,3.3983,3.3779,3.3712,3.3539,3.3178,3.297,3.2735,3.2386,3.2169,3.2143,3.2324,3.2218,3.2234,3.262,3.245,3.2339,3.2426,3.2054,3.1769,3.1782,3.1999,3.2282,3.2713,3.2851,3.2927,3.2964,3.2989,3.3128,3.3178,3.3495,3.3746,3.3781,3.411,3.4364,3.4364,3.4477,3.454,3.4552,3.464,3.464,3.4427,3.4389,3.4389,0.4802,0.5142,0.5647,0.6127,0.0,0.6953,0.7522,0.8276,0.9058,0.9885,1.0705,1.0955,1.1202,1.1474,1.1652,1.1895,1.2167,1.2581,1.3024,1.3488,1.3633,1.401,1.4496,1.452,1.4592,1.4688,1.4568,1.4514,1.4496,1.4376,1.4376,1.452,1.464,1.476,1.4916,1.5278,1.5594,1.5801,1.5927,1.5981,1.5998,1.639,1.6713,1.6981,1.7559,0.0,0.0,0.0,0.0,0.0,0.0,0.0,0.0,2.3493,0.0,2.4441,2.5285,2.6087,2.6708,2.7441,2.8142,2.8785,2.9244,2.9663,3.0058,3.1034,3.179,3.2264,3.2717,3.3086,3.3266,3.3403,3.342,3.3315,3.3139,3.2895,3.2628,3.2426,3.2205,3.1954,3.1867,3.1921,3.2071,3.2084,3.2259,3.2704,3.2605,3.2585,3.2823,3.2456,3.2149,3.2344,3.2512,3.2763,3.304,3.3366,3.3504,3.3517,3.3709,3.3872,3.3884,3.411,3.4289,3.4324,3.4515,3.4703,3.4715,3.4916,3.5069,3.5142,3.5341,3.5516,3.5504,3.5102,3.4703,0.4286,0.445,0.5348,0.58,0.5921,0.6599,0.7109,0.753,0.0,0.0,0.0,1.025,1.0501,1.0758,1.1005,1.1378,1.1794,1.2117,1.2492,1.2905,1.2958,1.3238,1.3691,1.3715,1.3817,1.4034,1.3811,1.3691,1.3715,1.3485,1.3509,1.3763,1.3986,1.4274,1.4616,1.5064,1.5445,1.573,1.5784,1.5801,1.5801,1.6076,1.6336,1.6588,1.7075,1.7699,1.8473,1.9202,2.0025,2.0907,2.1687,2.2318,2.2781,2.3428,2.4025,2.4584,2.5558,2.6445,2.7165,2.7978,2.8657,2.9099,2.9696,3.0209,3.0622,3.1024,3.1458,3.1986,3.2341,3.2614,3.2793,3.2828,3.2828,3.2793,3.2507,3.225,3.2109,3.1877,3.1728,3.1638,3.1682,3.1805,3.2019,3.2111,3.2378,3.2836,3.283,3.2782,3.317,3.2921,3.2676,3.2957,3.3102,3.3253,3.3329,3.3709,3.4022,3.4048,3.4377,3.469,3.4715,3.4778,3.4841,3.4853,3.4904,3.5029,3.5054,3.538,3.5656,3.5669,3.6031,3.6417,3.6342,3.5678,3.509,0.3453,0.3876,0.4474,0.495,0.5348,0.5918,0.662,0.7457,0.8276,0.893,0.9431,0.9689,0.9926,1.0158,1.0654,1.0907,1.0985,1.1473,1.1878,1.2151,1.2395,1.2662,1.2953,1.2953,1.2977,1.3001,1.2977,1.2953,1.2953,1.2934,1.3001,1.3201,1.3244,1.3624,1.4298,1.4442,1.4819,1.5516,1.5706,1.5801,1.5801,1.6076,1.6329,1.6612,1.7052,1.7676,1.8473,1.9202,1.9957,2.0713,2.1629,2.2309,2.2803,2.3428,2.4111,2.4797,2.5549,2.6322,2.7144,2.7846,2.8566,2.9294,2.965,3.0011,3.0406,3.0804,3.1155,3.1421,3.1785,3.2023,3.2041,3.2178,3.2196,3.2078,3.2018,3.1908,3.1701,3.14,3.1328,3.1684,3.1481,3.1729,3.2492,3.2713,3.2871,3.3204,3.3238,3.3237,3.3197,3.3082,3.3023,3.314,3.3504,3.3734,3.3847,3.4248,3.454,3.4577,3.4678,3.4841,3.4841,3.5155,3.5393,3.5382,3.5742,3.6029,3.608,3.6205,3.623,3.6218,3.6318,3.6417,3.6417,3.6193,3.6128,0.2974,0.3463,0.4004,0.4518,0.503,0.5716,0.6331,0.6891,0.7396,0.806,0.8811,0.91,0.9347,0.9575,0.9826,1.0093,1.0364,1.0634,1.0949,1.134,1.1487,1.1688,1.1907,1.1932,1.1932,1.1927,1.1927,1.1932,1.1927,1.2078,1.2195,1.2322,1.271,1.3171,1.3648,1.4082,1.4466,1.4849,1.5374,1.5689,1.5801,1.5927,1.6163,1.6581,1.6941,1.7504,1.8265,1.9004,1.9706,2.045,2.1374,2.2163,2.2781,2.3428,2.4111,2.4861,2.5538,2.6292,2.7144,2.8115,2.8843,2.9197,2.9573,2.9927,3.0228,3.0406,3.0685,3.1086,3.1323,3.1522,3.1706,3.1785,3.1767,3.1569,3.1471,3.1323,3.117,3.1154,3.1209,3.1461,3.1745,3.2105,3.2606,3.2874,3.3052,3.3249,3.3433,3.3626,3.3567,3.3771,3.3859,3.3646,3.3985,3.4299,3.4352,3.4791,3.5104,3.5119,3.5429,3.5602,3.5617,3.5855,3.5956,3.5994,3.6243,3.6392,3.643,3.6417,3.6417,3.6417,3.6417,3.6417,3.643,3.6619,3.672,0.2472,0.2903,0.3556,0.4157,0.4761,0.5438,0.5889,0.6164,0.6489,0.7092,0.7861,0.8329,0.868,0.8935,0.8985,0.9278,0.9694,0.9776,1.0043,1.0433,1.056,1.0708,1.0924,1.0973,1.1022,1.1022,1.1027,1.1027,1.1047,1.1247,1.1414,1.1585,1.2322,1.2807,1.302,1.3775,1.4178,1.4346,1.5016,1.5523,1.573,1.5761,1.6038,1.6558,1.6855,1.7347,1.8087,1.8796,1.9554,2.0269,2.1195,2.2021,2.2781,2.3428,2.4121,2.485,2.5538,2.6322,2.7319,2.8347,2.8993,2.9091,2.9475,2.9798,3.0011,3.0017,3.0279,3.0779,3.0874,3.1005,3.1243,3.1304,3.128,3.1104,3.0968,3.0882,3.0854,3.1009,3.1263,3.1492,3.2054,3.2449,3.2634,3.2911,3.3149,3.335,3.3633,3.3909,3.4098,3.4527,3.4653,3.4512,3.4628,3.4866,3.4916,3.5343,3.5656,3.5707,3.6044,3.623,3.6306,3.638,3.6405,3.638,3.6392,3.6493,3.6568,3.6619,3.667,3.6808,3.6884,3.6833,3.6884,3.7122,3.7249,0.1717,0.192,0.2852,0.3732,0.4437,0.4784,0.5062,0.5363,0.5842,0.612,0.6364,0.7285,0.7857,0.8137,0.8357,0.863,0.8924,0.9154,0.9307,0.9434,0.985,1.0093,1.0142,1.0335,1.0458,1.0462,1.0433,1.0408,1.0462,1.0511,1.0757,1.1272,1.2054,1.257,1.2856,1.3316,1.3823,1.4298,1.4861,1.5267,1.5516,1.5713,1.6069,1.6588,1.6855,1.7347,1.8087,1.8796,1.9531,2.0283,2.1195,2.2052,2.275,2.3428,2.4133,2.4861,2.5549,2.6458,2.7699,2.8291,2.8729,2.9072,2.9314,2.958,2.9811,2.983,3.0011,3.0362,3.0463,3.0489,3.052,3.0539,3.0577,3.0571,3.054,3.0637,3.1009,3.0999,3.1293,3.2279,3.2298,3.2437,3.2906,3.3111,3.3329,3.3696,3.3947,3.4214,3.459,3.5092,3.5431,3.5355,3.5408,3.542,3.5483,3.5931,3.618,3.6268,3.6355,3.6417,3.6417,3.6417,3.643,3.6556,3.648,3.662,3.6984,3.7148,3.7287,3.7513,3.7651,3.7789,3.7839,3.7889,3.7877,0.101,0.1642,0.2071,0.2827,0.3682,0.3982,0.4334,0.4738,0.4964,0.5217,0.5541,0.5989,0.6587,0.7294,0.7587,0.7935,0.8333,0.8439,0.8659,0.8956,0.9196,0.9299,0.9295,0.9398,0.9443,0.9443,0.9443,0.9542,0.9698,1.0023,1.0433,1.0953,1.1463,1.1902,1.2322,1.2832,1.3316,1.3829,1.4352,1.4831,1.5244,1.5611,1.6038,1.6588,1.6988,1.7457,1.811,1.8974,1.9708,2.0314,2.1195,2.2052,2.2781,2.3428,2.4133,2.4882,2.5916,2.6891,2.782,2.8283,2.8657,2.9052,2.9294,2.9509,2.976,2.9779,2.9888,2.9998,3.0139,3.0254,3.0368,3.0387,3.0349,3.0286,3.0489,3.0737,3.0828,3.1342,3.1899,3.2294,3.2571,3.2792,3.309,3.3391,3.3633,3.3972,3.4387,3.4904,3.5192,3.5656,3.5994,3.6031,3.6031,3.6019,3.6031,3.6205,3.6392,3.6417,3.6417,3.6417,3.643,3.6417,3.6493,3.6796,3.6859,3.7085,3.7575,3.7651,3.7776,3.804,3.804,3.8065,3.8442,3.8517,3.8617,0.0429,0.1162,0.1465,0.2096,0.2901,0.3253,0.3655,0.4061,0.4135,0.4437,0.4864,0.4939,0.5441,0.6239,0.6739,0.7238,0.764,0.7764,0.8035,0.8457,0.8552,0.8627,0.8676,0.8751,0.88,0.88,0.8825,0.8956,0.9232,0.9653,1.0117,1.056,1.0998,1.1438,1.1907,1.2492,1.3031,1.3491,1.4034,1.4568,1.5077,1.5499,1.5991,1.6565,1.7005,1.7481,1.8079,1.8997,1.9754,2.0292,2.1159,2.1954,2.2662,2.3341,2.4121,2.5031,2.6156,2.7097,2.7728,2.8131,2.853,2.8973,2.9197,2.9424,2.9631,2.976,2.9779,2.983,2.9934,3.0075,3.0209,3.0247,3.0222,3.0245,3.0598,3.081,3.1092,3.178,3.2252,3.2453,3.2826,3.3165,3.3341,3.3646,3.396,3.4402,3.5017,3.5583,3.5744,3.6117,3.6392,3.6417,3.6405,3.6392,3.6417,3.6405,3.6417,3.6468,3.6493,3.6658,3.6669,3.6708,3.6884,3.7399,3.74,3.7637,3.8115,3.8228,3.8329,3.8429,3.8479,3.858,3.9032,3.9107,3.9271,0.0025,0.0227,0.1187,0.1767,0.2093,0.2598,0.3004,0.3306,0.353,0.3805,0.4085,0.4311,0.4587,0.5012,0.5959,0.6589,0.6895,0.7113,0.7391,0.7718,0.7939,0.8162,0.8432,0.8676,0.8775,0.8726,0.8701,0.8882,0.9158,0.948,0.9776,1.0068,1.0777,1.1316,1.1683,1.237,1.3001,1.3467,1.3968,1.4544,1.5053,1.5356,1.5849,1.6541,1.6855,1.7371,1.8087,1.8827,1.9554,2.0269,2.1024,2.1727,2.2397,2.3144,2.4111,2.5337,2.6177,2.688,2.7452,2.7809,2.8191,2.8736,2.9,2.9197,2.9438,2.967,2.9779,2.9779,2.9798,2.985,2.9932,2.9996,3.0121,3.0497,3.0615,3.1122,3.1976,3.2118,3.2466,3.2889,3.3102,3.3341,3.3771,3.3884,3.4414,3.5054,3.5458,3.5707,3.6155,3.6367,3.6405,3.6417,3.6417,3.6417,3.643,3.6543,3.6518,3.6606,3.6884,3.7173,3.7324,3.7513,3.7751,3.7952,3.7965,3.8191,3.8655,3.8931,3.9069,3.9195,3.932,3.9496,3.9459,3.9584,3.9672,-0.0631,0.0076,0.0783,0.1338,0.1742,0.1969,0.2271,0.2675,0.2798,0.3077,0.3456,0.3583,0.3858,0.4332,0.5033,0.5812,0.6514,0.6639,0.6914,0.7341,0.7618,0.7793,0.7917,0.8162,0.8283,0.8283,0.8283,0.8435,0.8733,0.9109,0.9484,0.9797,1.0388,1.09,1.1365,1.1975,1.2589,1.3195,1.3606,1.4208,1.5005,1.5196,1.5672,1.6541,1.6855,1.7347,1.8063,1.8827,1.9463,2.0019,2.0897,2.1638,2.2242,2.3329,2.4401,2.5411,2.602,2.6631,2.7258,2.7655,2.8102,2.857,2.8914,2.9189,2.9392,2.965,2.9779,2.9779,2.9779,2.9905,3.0244,3.0319,3.0394,3.0625,3.1215,3.1729,3.2144,3.2528,3.2855,3.3081,3.3379,3.3696,3.3997,3.4477,3.5044,3.5433,3.5807,3.6143,3.6306,3.6417,3.6417,3.6417,3.6417,3.6543,3.6909,3.6921,3.6959,3.7085,3.7311,3.7588,3.7826,3.7914,3.8103,3.8517,3.858,3.8718,3.9158,3.9321,3.9496,3.9534,3.9697,3.9697,3.9697,3.9697,3.9697,-0.1035,-0.0126,0.0353,0.0808,0.1212,0.1313,0.1667,0.2119,0.2144,0.2448,0.2876,0.2927,0.3229,0.3731,0.4133,0.4885,0.5859,0.6139,0.6512,0.6939,0.7216,0.7422,0.7621,0.7796,0.7917,0.7988,0.7988,0.8137,0.8407,0.8857,0.9208,0.9505,0.9994,1.0536,1.1071,1.1609,1.2248,1.2905,1.3322,1.3997,1.4861,1.5059,1.5529,1.6353,1.6713,1.7277,1.8063,1.8735,1.9325,1.9905,2.0776,2.1584,2.2362,2.3515,2.454,2.5264,2.5811,2.6415,2.7033,2.7513,2.795,2.8371,2.8835,2.917,2.9302,2.9592,2.976,2.9779,2.9792,3.0018,3.0495,3.0758,3.0934,3.1127,3.1767,3.2282,3.2478,3.283,3.3119,3.3379,3.3646,3.3997,3.4402,3.5031,3.5495,3.5744,3.6168,3.6392,3.6417,3.6417,3.6505,3.6631,3.6683,3.6947,3.7399,3.7663,3.7563,3.7651,3.7939,3.8165,3.8316,3.8379,3.8567,3.8982,3.922,3.9371,3.9496,3.9647,3.9697,3.9697,3.9697,3.9697,3.9697,3.9697,3.9697,-0.1136,-0.0429,-0.0101,0.0202,0.048,0.0732,0.1136,0.1566,0.1592,0.1893,0.2371,0.2396,0.27,0.3128,0.333,0.3858,0.4809,0.5564,0.6114,0.6437,0.6717,0.7092,0.7547,0.7618,0.7768,0.7988,0.7988,0.8137,0.8357,0.8655,0.8928,0.9257,0.9723,1.0265,1.0777,1.1365,1.2029,1.271,1.3249,1.3877,1.4616,1.4963,1.5441,1.6147,1.6471,1.7059,1.8017,1.855,1.9127,1.986,2.06,2.1557,2.2662,2.3634,2.4379,2.4935,2.5549,2.6209,2.685,2.729,2.7745,2.8179,2.8756,2.9079,2.917,2.9495,2.976,2.9779,2.9867,3.008,3.0633,3.111,3.1574,3.2056,3.2219,3.2516,3.2901,3.309,3.3303,3.3734,3.3997,3.4399,3.5132,3.5533,3.5794,3.618,3.6367,3.6417,3.6443,3.648,3.6694,3.7009,3.7198,3.7424,3.7939,3.8417,3.8304,3.8278,3.8617,3.8894,3.8944,3.9019,3.9145,3.9472,3.9472,3.9572,3.9572,3.9697,3.9697,3.9697,3.9697,3.9697,3.9697,3.9697,3.9697,-0.144,-0.1162,-0.053,-0.0126,0.0151,0.0404,0.0732,0.1035,0.1035,0.1338,0.1793,0.1843,0.217,0.2649,0.3029,0.3481,0.4029,0.4809,0.5511,0.6064,0.6414,0.6814,0.7263,0.7519,0.7743,0.7967,0.7988,0.8038,0.8159,0.8411,0.8655,0.8977,0.9476,0.9994,1.056,1.1218,1.1932,1.2516,1.3177,1.3799,1.4394,1.4885,1.5387,1.5903,1.6369,1.6911,1.7543,1.8218,1.8943,1.9671,2.0374,2.141,2.2618,2.3363,2.4078,2.4828,2.5348,2.5947,2.6623,2.7188,2.7635,2.803,2.8546,2.8922,2.9091,2.9353,2.9611,2.9822,3.0131,3.0583,3.111,3.1637,3.2014,3.2169,3.2566,3.2842,3.3128,3.3429,3.3684,3.3947,3.454,3.5107,3.5458,3.5769,3.6168,3.6318,3.6417,3.6417,3.6468,3.6744,3.6959,3.7198,3.7512,3.7977,3.8517,3.8869,3.8831,3.8831,3.9107,3.9283,3.9371,3.9459,3.9622,3.9697,3.9697,3.9697,3.9697,3.9697,3.9697,3.9697,3.9697,3.9697,3.9697,3.9697,3.9697,-0.1869,-0.1541,-0.0859,-0.0404,-0.0126,0.0126,0.0404,0.0631,0.0657,0.0909,0.1263,0.1415,0.1692,0.2145,0.2675,0.3102,0.3503,0.4207,0.4887,0.5564,0.6064,0.6539,0.7067,0.7422,0.7746,0.7967,0.7988,0.7988,0.8013,0.8283,0.8528,0.885,0.9225,0.9772,1.0388,1.0998,1.1585,1.2248,1.2983,1.36,1.4154,1.4766,1.5298,1.5706,1.6275,1.677,1.72,1.7939,1.8712,1.9479,2.0391,2.1508,2.2574,2.3198,2.3851,2.4529,2.5137,2.5706,2.6394,2.6962,2.7473,2.7881,2.8379,2.8816,2.9072,2.9275,2.9559,3.0059,3.0394,3.0901,3.1587,3.1976,3.2277,3.2528,3.2851,3.3178,3.3379,3.3684,3.4113,3.449,3.5104,3.5531,3.5881,3.6069,3.6405,3.6417,3.6417,3.6556,3.6658,3.6984,3.7286,3.7663,3.814,3.8605,3.907,3.9271,3.9359,3.9446,3.9559,3.9572,3.9597,3.9609,3.9697,3.9697,3.9697,3.9697,3.9697,3.9697,3.9697,3.9697,3.9697,3.9697,3.9697,3.9697,3.9697,-0.2372,-0.1617,-0.1061,-0.0682,-0.0404,-0.0126,0.0126,0.0353,0.0379,0.0556,0.0808,0.1061,0.1313,0.1667,0.217,0.2699,0.3205,0.3758,0.4358,0.4985,0.5614,0.6289,0.6892,0.7394,0.7718,0.7963,0.7988,0.7988,0.8013,0.8237,0.8531,0.88,0.908,0.9603,1.029,1.0679,1.1243,1.2024,1.2759,1.3383,1.3889,1.4688,1.5202,1.5493,1.6204,1.673,1.7019,1.7761,1.8519,1.9311,2.0595,2.1607,2.2353,2.3067,2.3634,2.4218,2.485,2.5517,2.6113,2.6695,2.7251,2.7841,2.8251,2.8669,2.9032,2.9248,2.9681,3.0405,3.0638,3.111,3.1913,3.229,3.2541,3.2977,3.3065,3.3316,3.3796,3.3922,3.4389,3.5167,3.552,3.5732,3.6256,3.638,3.6405,3.643,3.6468,3.6733,3.7034,3.7386,3.7864,3.8291,3.8693,3.9044,3.9434,3.9472,3.9547,3.9585,3.9697,3.9697,3.9697,3.9697,3.9697,3.9697,3.9697,3.9697,3.9697,3.9697,3.9697,3.9697,3.9697,3.9697,3.9697,3.9697,3.9697,-0.275,-0.2145,-0.1616,-0.1111,-0.0682,-0.0429,-0.0126,0.0,0.0,0.0252,0.053,0.0783,0.1061,0.1338,0.1869,0.2398,0.2927,0.3479,0.4106,0.4809,0.5411,0.6237,0.6992,0.7444,0.7743,0.7963,0.7988,0.7988,0.7988,0.8088,0.8357,0.8775,0.8878,0.9422,1.0285,1.0659,1.1218,1.1975,1.2735,1.3268,1.3708,1.4604,1.5107,1.5267,1.6092,1.6581,1.6824,1.78,1.8819,1.9677,2.0578,2.1432,2.2132,2.2715,2.3373,2.411,2.47,2.5348,2.6071,2.6601,2.7199,2.782,2.8111,2.853,2.9064,2.915,2.967,3.0413,3.0934,3.1461,3.2127,3.2591,3.2914,3.3052,3.3128,3.3345,3.3859,3.4286,3.4778,3.5406,3.5893,3.6193,3.6318,3.6417,3.643,3.6469,3.6708,3.7072,3.7424,3.7952,3.8492,3.8768,3.912,3.9396,3.9622,3.9659,3.9672,3.9659,3.9697,3.9697,3.9697,3.9697,3.9697,3.9697,3.9697,3.9697,3.9697,3.9697,3.9697,3.9697,3.9697,3.9697,3.9697,3.9697,3.9697,-0.2976,-0.2371,-0.1818,-0.1288,-0.0783,-0.053,-0.0252,0.0,0.0,0.0076,0.0278,0.0657,0.0884,0.1086,0.1718,0.2223,0.2674,0.33,0.3905,0.4483,0.5233,0.6184,0.7014,0.7363,0.7615,0.7967,0.7988,0.7988,0.7988,0.7988,0.8308,0.8701,0.88,0.9373,1.0339,1.0556,1.1096,1.1932,1.2638,1.3123,1.3539,1.4556,1.5035,1.5267,1.5974,1.6518,1.6981,1.7932,1.8927,1.9814,2.0532,2.123,2.203,2.2539,2.3176,2.397,2.4562,2.5211,2.5842,2.6447,2.7044,2.7626,2.7938,2.8419,2.8995,2.9307,2.9888,3.0816,3.1391,3.1964,3.2478,3.2914,3.3077,3.314,3.3303,3.3633,3.4186,3.4728,3.5268,3.5793,3.618,3.6417,3.6417,3.6417,3.6543,3.6708,3.6972,3.7436,3.7939,3.8542,3.9019,3.9233,3.9371,3.9559,3.9672,3.9685,3.9697,3.9697,3.9697,3.9697,3.9697,3.9697,3.9697,3.9697,3.9697,3.9697,3.9697,3.9697,3.9697,3.9697,3.9697,3.9697,3.9697,3.9697,3.9697,-0.3126,-0.2346,-0.1843,-0.1313,-0.0808,-0.0556,-0.0303,0.0,0.0,0.0,0.0,0.0556,0.0758,0.0859,0.1541,0.207,0.2447,0.3201,0.383,0.4458,0.5236,0.6184,0.711,0.7235,0.7537,0.7914,0.7988,0.7988,0.7988,0.7988,0.8283,0.868,0.88,0.9373,1.0142,1.0413,1.0973,1.1853,1.2443,1.3007,1.3563,1.4454,1.5011,1.5226,1.591,1.6612,1.7263,1.8056,1.8866,1.9791,2.0382,2.1127,2.1932,2.2451,2.3057,2.3722,2.4412,2.5041,2.5548,2.6239,2.688,2.7452,2.7768,2.8231,2.8952,2.9533,3.0271,3.1146,3.1867,3.2378,3.2889,3.309,3.3178,3.3316,3.3671,3.4211,3.4715,3.5217,3.5732,3.6293,3.6405,3.6417,3.6417,3.6455,3.657,3.6959,3.7286,3.7801,3.8328,3.8894,3.9296,3.9534,3.9609,3.9659,3.9697,3.9697,3.9697,3.9697,3.9697,3.9697,3.9697,3.9697,3.9697,3.9697,3.9697,3.9697,3.9697,3.9697,3.9697,3.9697,3.9697,3.9697,3.9697,3.9697,3.9697,-0.3126,-0.2371,-0.2045,-0.1491,-0.0859,-0.0707,-0.0455,0.0,0.0,0.0,0.0,0.0353,0.0606,0.0833,0.1263,0.1742,0.2422,0.3103,0.3932,0.5258,0.5409,0.6209,0.7011,0.721,0.7487,0.7889,0.7988,0.7988,0.7988,0.8038,0.8283,0.8726,0.885,0.9245,0.9994,1.0339,1.0826,1.1634,1.2224,1.2856,1.3515,1.431,1.4885,1.5178,1.6021,1.6706,1.7293,1.787,1.8566,1.9348,2.0192,2.0925,2.1562,2.2176,2.2816,2.3537,2.4219,2.485,2.5475,2.6166,2.6848,2.738,2.7748,2.8183,2.88,2.9591,3.0334,3.1108,3.1797,3.2503,3.3002,3.3102,3.3291,3.3633,3.4148,3.469,3.5182,3.5433,3.5807,3.6218,3.6417,3.6417,3.6417,3.6455,3.6695,3.7148,3.765,3.8153,3.8693,3.9233,3.9459,3.9697,3.9697,3.9697,3.9697,3.9697,3.9697,3.9697,3.9697,3.9697,3.9697,3.9697,3.9697,3.9697,3.9697,3.9697,3.9697,3.9697,3.9697,3.9697,3.9697,3.9697,3.9697,3.9697,3.9697,-0.3126,-0.2396,-0.2121,-0.1541,-0.0859,-0.0783,-0.0505,0.0,0.0,0.0,0.0,0.0404,0.0657,0.0833,0.1212,0.1767,0.2472,0.3228,0.4282,0.5334,0.5634,0.6187,0.7011,0.7235,0.7462,0.7914,0.7988,0.7988,0.7988,0.8038,0.8258,0.8751,0.88,0.9249,0.992,1.0265,1.0826,1.1561,1.2151,1.2759,1.3491,1.4136,1.4807,1.5333,1.6116,1.6746,1.6988,1.7707,1.8365,1.905,1.9851,2.0685,2.1338,2.1963,2.2649,2.3428,2.4035,2.4669,2.5327,2.6009,2.6622,2.7208,2.7638,2.8131,2.8803,2.9662,3.0519,3.1183,3.1968,3.2801,3.3065,3.3102,3.3379,3.3847,3.4377,3.4929,3.5395,3.5732,3.6006,3.6318,3.6417,3.6417,3.643,3.6557,3.7047,3.7575,3.814,3.863,3.9057,3.9521,3.9559,3.9697,3.9697,3.9697,3.9697,3.9697,3.9697,3.9697,3.9697,3.9697,3.9697,3.9697,3.9697,3.9697,3.9697,3.9697,3.9697,3.9697,3.9697,3.9697,3.9697,3.9697,3.9697,3.9697,3.9697,-0.3075,-0.2371,-0.202,-0.1465,-0.0859,-0.0758,-0.0455,0.0,0.0,0.0,0.0,0.053,0.0707,0.0909,0.1288,0.1843,0.2648,0.3504,0.4558,0.5484,0.5584,0.6237,0.6986,0.726,0.7487,0.7939,0.7988,0.7988,0.7988,0.8038,0.8233,0.8651,0.88,0.915,0.9772,1.0265,1.0752,1.1468,1.2024,1.271,1.3418,1.401,1.4604,1.5469,1.6187,1.6588,1.6871,1.7543,1.8295,1.8758,1.9471,2.0323,2.1145,2.1861,2.2451,2.3341,2.3894,2.4518,2.5137,2.58,2.6436,2.6882,2.7516,2.8113,2.8763,2.9858,3.075,3.1472,3.2222,3.3027,3.3102,3.3266,3.352,3.3988,3.4515,3.5042,3.5569,3.6094,3.6318,3.6392,3.643,3.6443,3.6658,3.6896,3.7462,3.8027,3.8555,3.9057,3.9459,3.9697,3.9697,3.9697,3.9697,3.9697,3.9697,3.9697,3.9697,3.9697,3.9697,3.9697,3.9697,3.9697,3.9697,3.9697,3.9697,3.9697,3.9697,3.9697,3.9697,3.9697,3.9697,3.9697,3.9697,3.9697,3.971,-0.2723,-0.2346,-0.1641,-0.1111,-0.0783,-0.0556,-0.0278,0.0,0.0,0.0,0.0,0.0328,0.0631,0.0833,0.1111,0.1918,0.2977,0.3783,0.4609,0.5461,0.5659,0.6209,0.7036,0.721,0.7512,0.7864,0.7988,0.7988,0.7988,0.8013,0.8187,0.8457,0.8705,0.9051,0.948,1.0019,1.0679,1.1296,1.1853,1.2565,1.3364,1.3962,1.4532,1.5469,1.6187,1.6541,1.68,1.752,1.8241,1.8573,1.925,2.0005,2.0821,2.1629,2.2318,2.2969,2.3742,2.439,2.4988,2.5716,2.6353,2.6901,2.7496,2.8197,2.8973,3.004,3.0975,3.1723,3.2438,3.3102,3.3115,3.342,3.3972,3.449,3.5004,3.5544,3.6044,3.6306,3.6417,3.6417,3.6455,3.6557,3.6859,3.7235,3.7751,3.8291,3.8831,3.9233,3.9559,3.9697,3.9697,3.9697,3.9697,3.9697,3.9697,3.9697,3.9697,3.9697,3.9697,3.9697,3.9697,3.9697,3.9697,3.9697,3.9697,3.9697,3.9697,3.9697,3.9697,3.9697,3.9697,3.9697,3.9697,3.971,3.9772,-0.2649,-0.2321,-0.1515,-0.1035,-0.0783,-0.0505,-0.0252,0.0,0.0,0.0,0.0,0.0429,0.0657,0.0909,0.1389,0.2297,0.3279,0.3961,0.4736,0.5461,0.5787,0.6287,0.7113,0.721,0.7537,0.7864,0.7988,0.7988,0.7988,0.7988,0.8162,0.8407,0.8651,0.8931,0.9331,0.9994,1.063,1.1198,1.1736,1.2467,1.3485,1.4082,1.4855,1.5333,1.6092,1.6541,1.6777,1.7551,1.8203,1.8596,1.9204,1.9914,2.0663,2.1338,2.2074,2.2781,2.3547,2.4272,2.4839,2.5538,2.6082,2.6695,2.7342,2.8046,2.8928,2.9992,3.1239,3.2173,3.2625,3.3102,3.3115,3.3583,3.411,3.464,3.5182,3.5769,3.6218,3.638,3.6417,3.6417,3.6468,3.6681,3.711,3.7537,3.8065,3.858,3.9082,3.9409,3.9672,3.9697,3.9697,3.9697,3.9697,3.9697,3.9697,3.9697,3.9697,3.9697,3.9697,3.9697,3.9697,3.9697,3.9697,3.9697,3.9697,3.9697,3.9697,3.9697,3.9697,3.9697,3.9697,3.9697,3.9697,3.9722,3.9798,-0.2548,-0.2245,-0.1439,-0.101,-0.0758,-0.0455,-0.0202,0.0,0.0,0.0,0.0,0.053,0.0783,0.101,0.1717,0.2649,0.3604,0.4162,0.4836,0.5536,0.5964,0.6489,0.7011,0.7313,0.754,0.7939,0.7988,0.7988,0.7988,0.7988,0.8113,0.8333,0.8606,0.8878,0.9229,0.9969,1.0605,1.1125,1.1736,1.2492,1.3485,1.4502,1.5107,1.5202,1.6069,1.6612,1.6683,1.7543,1.8125,1.855,1.9158,1.9922,2.0564,2.1114,2.1817,2.264,2.3341,2.4057,2.4658,2.5285,2.5853,2.6456,2.7062,2.7859,2.9032,3.0347,3.1702,3.273,3.3081,3.3102,3.3178,3.3718,3.4211,3.47,3.5293,3.5868,3.6218,3.6417,3.6417,3.6443,3.648,3.687,3.7386,3.7977,3.8529,3.8906,3.9434,3.9484,3.9697,3.9697,3.9697,3.9697,3.9697,3.9697,3.9697,3.9697,3.9697,3.9697,3.9697,3.9697,3.9697,3.9697,3.9697,3.9697,3.9697,3.9697,3.9697,3.9697,3.9697,3.9697,3.9697,3.9697,3.9697,3.9772,3.986,-0.2297,-0.1996,-0.1187,-0.0833,-0.0707,0.0,0.0,0.0,0.0,0.0,0.0,0.053,0.0808,0.1136,0.1917,0.2825,0.358,0.4261,0.4887,0.5586,0.6137,0.6639,0.7163,0.7466,0.7665,0.7963,0.7988,0.7988,0.7988,0.7988,0.8013,0.8162,0.8556,0.8829,0.8977,0.9916,1.0531,1.0929,1.1614,1.2516,1.3515,1.4556,1.5011,1.5369,1.6004,1.6612,1.673,1.752,1.8102,1.8265,1.9089,1.9799,2.036,2.1032,2.1696,2.2419,2.3101,2.3764,2.4347,2.5031,2.5695,2.629,2.6912,2.7921,2.9387,3.0955,3.2235,3.2611,3.2961,3.3153,3.3354,3.4022,3.4477,3.5027,3.5617,3.608,3.6417,3.6417,3.6417,3.6632,3.6746,3.7261,3.7776,3.8416,3.8994,3.9346,3.9647,3.9685,3.9697,3.9697,3.9697,3.9697,3.9697,3.9697,3.9697,3.9697,3.9697,3.9697,3.9697,3.9697,3.9697,3.9697,3.9697,3.9697,3.9697,3.9697,3.9697,3.9697,3.9697,3.9697,3.9697,3.9697,3.9697,3.981,3.9998,-0.1894,-0.1718,-0.1061,-0.0707,-0.053,-0.0151,0.0,0.0,0.0,0.0,0.0,0.0556,0.1111,0.169,0.2422,0.3077,0.3831,0.451,0.5087,0.5687,0.6287,0.6817,0.7188,0.7466,0.7743,0.7939,0.7988,0.7988,0.7988,0.7988,0.7988,0.8088,0.8503,0.88,0.8899,0.9867,1.0437,1.1071,1.1951,1.288,1.3612,1.4484,1.5107,1.5155,1.6069,1.6494,1.6847,1.7551,1.8063,1.8272,1.9043,1.9799,2.0292,2.088,2.1521,2.2344,2.2947,2.3537,2.4175,2.4903,2.5548,2.6254,2.7048,2.8281,2.9993,3.1462,3.2497,3.2667,3.2939,3.3194,3.3567,3.4248,3.4741,3.528,3.5891,3.6155,3.6417,3.6417,3.648,3.6746,3.7085,3.76,3.8103,3.863,3.9132,3.9471,3.9672,3.9685,3.9697,3.9697,3.9697,3.9697,3.9697,3.9697,3.9697,3.9697,3.9697,3.9697,3.9697,3.9697,3.9697,3.9697,3.9697,3.9697,3.9697,3.9697,3.9697,3.9697,3.9697,3.9697,3.9697,3.9697,3.9735,4.0162,4.0488,-0.1516,-0.1364,-0.0909,-0.0581,-0.0379,-0.0101,0.0,0.0,0.0,0.0,0.0,0.0606,0.1414,0.227,0.2699,0.3202,0.4033,0.4839,0.5288,0.5812,0.6439,0.6967,0.7266,0.7519,0.7817,0.7988,0.7988,0.7988,0.7988,0.7988,0.7988,0.8013,0.8528,0.8751,0.9072,0.9842,1.0609,1.1292,1.2341,1.3074,1.3612,1.4556,1.4987,1.541,1.5974,1.6612,1.6753,1.7574,1.8087,1.8272,1.9051,1.9808,2.03,2.0781,2.1477,2.2233,2.2838,2.3341,2.4057,2.4775,2.5443,2.628,2.7451,2.8877,3.0331,3.1675,3.2431,3.2593,3.2918,3.3326,3.3847,3.4387,3.4879,3.5406,3.5994,3.623,3.6417,3.6417,3.6582,3.6972,3.7374,3.7889,3.8379,3.8843,3.9245,3.9584,3.9697,3.9697,3.9697,3.9697,3.9697,3.9697,3.9697,3.9697,3.9697,3.9697,3.9697,3.9697,3.9697,3.9697,3.9697,3.9697,3.9697,3.9697,3.9697,3.9697,3.9697,3.9697,3.9697,3.9697,3.9697,3.9697,3.9848,4.0325,4.0927,-0.1313,-0.0833,-0.053,-0.0404,-0.0379,-0.0101,0.0,0.0,0.0,0.0,0.0,0.0606,0.1414,0.2245,0.2749,0.3278,0.4034,0.4839,0.5313,0.5887,0.6587,0.7086,0.7338,0.764,0.7942,0.7988,0.7988,0.7988,0.7988,0.7988,0.7988,0.8063,0.8552,0.8726,0.9122,0.9842,1.0904,1.1634,1.254,1.308,1.366,1.446,1.5083,1.5315,1.5998,1.6612,1.6659,1.7574,1.811,1.8125,1.9051,1.9785,2.0269,2.0727,2.1445,2.2242,2.2693,2.321,2.3884,2.4679,2.5412,2.6411,2.7781,2.9365,3.0452,3.1671,3.2307,3.2509,3.2844,3.3386,3.3897,3.4389,3.4929,3.5594,3.6117,3.6268,3.6417,3.6417,3.662,3.7122,3.76,3.809,3.8642,3.9095,3.9346,3.9659,3.9697,3.9697,3.9697,3.9697,3.9697,3.9697,3.9697,3.9697,3.9697,3.9697,3.9697,3.9697,3.9697,3.9697,3.9697,3.9697,3.9697,3.9697,3.9697,3.9697,3.9697,3.9697,3.9697,3.9697,3.9722,3.981,4.0224,4.0802,4.1392,-0.0884,-0.053,-0.0278,-0.0151,-0.0151,-0.005,0.0,0.0,0.0,0.0202,0.0505,0.0909,0.154,0.2296,0.2876,0.338,0.4083,0.5035,0.5411,0.5912,0.6562,0.711,0.7388,0.7662,0.7988,0.7988,0.7988,0.7988,0.7988,0.7988,0.7988,0.8159,0.8552,0.8726,0.9147,0.9867,1.0924,1.1858,1.2516,1.3031,1.3612,1.4502,1.5107,1.5178,1.6069,1.6541,1.6753,1.7597,1.797,1.8342,1.9097,1.9731,2.026,2.0749,2.1445,2.2264,2.2627,2.3132,2.3807,2.4667,2.5637,2.7232,2.8508,2.963,3.0556,3.1765,3.2288,3.2553,3.286,3.3436,3.4289,3.4615,3.4992,3.5768,3.6218,3.6367,3.6417,3.6417,3.6746,3.7249,3.7713,3.8191,3.8755,3.932,3.9509,3.9697,3.9697,3.9697,3.9697,3.9697,3.9697,3.9697,3.9697,3.9697,3.9697,3.9697,3.9697,3.9697,3.9697,3.9697,3.9697,3.9697,3.9697,3.9697,3.9697,3.9697,3.9697,3.9697,3.9697,3.9697,3.9848,4.0023,4.0576,4.1241,4.1819,-0.0581,-0.0379,-0.0126,0.0,0.0,0.0,0.0,0.0,0.0,0.0,0.0808,0.1162,0.1716,0.2422,0.3053,0.3531,0.4183,0.501,0.5436,0.5987,0.6612,0.711,0.7388,0.7662,0.7988,0.7988,0.7988,0.7988,0.7988,0.7988,0.7988,0.8159,0.8478,0.8726,0.9048,0.9862,1.0924,1.1883,1.254,1.3031,1.3588,1.4502,1.5107,1.5226,1.6004,1.6478,1.6777,1.7434,1.7955,1.8373,1.9005,1.9762,2.0269,2.0794,2.1468,2.21,2.264,2.3035,2.3786,2.4898,2.6141,2.7696,2.8818,2.9874,3.0868,3.1852,3.2356,3.249,3.295,3.3696,3.464,3.4891,3.5341,3.6081,3.6268,3.6417,3.6417,3.6443,3.6934,3.7412,3.7852,3.8278,3.8981,3.9509,3.9572,3.9697,3.9697,3.9697,3.9697,3.9697,3.9697,3.9697,3.9697,3.9697,3.9697,3.9697,3.9697,3.9697,3.9697,3.9697,3.9697,3.9697,3.9697,3.9697,3.9697,3.9697,3.9697,3.9697,3.9697,3.9697,3.9961,4.0312,4.0851,4.1503,4.2145,-0.0404,-0.0379,-0.0101,0.0,0.0,0.0,0.0,0.0,0.0,0.0353,0.0859,0.1338,0.1869,0.2496,0.3176,0.3681,0.4158,0.5085,0.5584,0.5859,0.6686,0.711,0.7388,0.769,0.7988,0.7988,0.7988,0.7988,0.7988,0.7988,0.7988,0.8162,0.8506,0.8899,0.8924,0.9867,1.0924,1.1927,1.254,1.3026,1.3612,1.4526,1.5011,1.5298,1.5869,1.6359,1.673,1.7364,1.7861,1.8226,1.9074,1.9785,2.0292,2.0758,2.1445,2.2299,2.2388,2.2894,2.3796,2.5355,2.6759,2.7974,2.8978,3.0018,3.093,3.1773,3.24,3.2468,3.3208,3.3978,3.464,3.5144,3.5707,3.6155,3.6331,3.6417,3.6417,3.6595,3.7097,3.7613,3.7965,3.8379,3.9132,3.9672,3.9672,3.9697,3.9697,3.9697,3.9697,3.9697,3.9697,3.9697,3.9697,3.9697,3.9697,3.9697,3.9697,3.9697,3.9697,3.9697,3.9697,3.9697,3.9697,3.9697,3.9697,3.9697,3.9697,3.9697,3.9772,3.991,4.0325,4.07,4.1252,4.1804,4.2434,-0.0303,-0.0126,-0.0025,0.0,0.0,0.0,0.0,0.0,0.0353,0.0631,0.0934,0.1541,0.2045,0.2573,0.3201,0.3756,0.4158,0.506,0.5584,0.5737,0.6711,0.7086,0.7363,0.769,0.7988,0.7988,0.7988,0.7988,0.7988,0.7988,0.7988,0.8137,0.8581,0.92,0.9743,1.0388,1.0929,1.1907,1.2516,1.3026,1.3563,1.4478,1.5107,1.5131,1.5821,1.6312,1.6612,1.7293,1.7761,1.8156,1.9043,1.9762,2.0269,2.0758,2.1423,2.2167,2.2441,2.3016,2.4228,2.5665,2.6976,2.8064,2.9075,3.0079,3.0923,3.1862,3.2269,3.2623,3.3361,3.4097,3.4653,3.5169,3.5719,3.6205,3.6417,3.6417,3.648,3.6833,3.7273,3.7826,3.8266,3.8768,3.9433,3.9672,3.9697,3.9697,3.9697,3.9697,3.9697,3.9697,3.9697,3.9697,3.9697,3.9697,3.9697,3.9697,3.9697,3.9697,3.9697,3.9697,3.9697,3.9697,3.9697,3.9697,3.9697,3.9697,3.9722,3.9785,3.9961,4.0199,4.0701,4.1166,4.1668,4.2195,4.2723,-0.0177,0.0,0.0,0.0,0.0,0.0,0.0,0.0,0.053,0.0783,0.096,0.1642,0.2146,0.2573,0.3201,0.3731,0.4083,0.5085,0.5584,0.5762,0.6714,0.7086,0.7363,0.769,0.7939,0.7988,0.7988,0.7988,0.7988,0.7988,0.8137,0.8382,0.8651,0.9369,1.0039,1.056,1.1027,1.1932,1.2565,1.3104,1.3708,1.4406,1.5083,1.5274,1.5696,1.6234,1.6636,1.7129,1.7682,1.8203,1.892,1.9739,2.0246,2.0803,2.1445,2.21,2.285,2.3509,2.4738,2.5873,2.7138,2.831,2.9203,3.0094,3.0924,3.1739,3.2169,3.266,3.3451,3.4102,3.468,3.5209,3.5906,3.6405,3.6417,3.6417,3.6531,3.6859,3.7386,3.7952,3.858,3.9094,3.9546,3.9622,3.9697,3.9697,3.9697,3.9697,3.9697,3.9697,3.9697,3.9697,3.9697,3.9697,3.9697,3.9697,3.9697,3.9697,3.9697,3.9697,3.9697,3.9697,3.9697,3.9697,3.9697,3.971,3.976,3.9873,4.0212,4.0689,4.1254,4.1693,4.215,4.2537,4.2977,0.0,0.0,0.0,0.0,0.0,0.0,0.0,0.0,0.0556,0.0783,0.0859,0.1642,0.2146,0.2548,0.3251,0.3731,0.4158,0.5108,0.5484,0.5912,0.6714,0.7036,0.7385,0.7736,0.7939,0.7988,0.7988,0.7988,0.7988,0.8088,0.8336,0.8655,0.8804,0.9492,1.0162,1.0732,1.1243,1.1975,1.2686,1.3152,1.366,1.4526,1.5011,1.5274,1.5601,1.6116,1.6541,1.6949,1.7488,1.8087,1.8819,1.9554,2.0192,2.0749,2.149,2.2321,2.32,2.4117,2.5065,2.6105,2.7311,2.8522,2.959,3.0373,3.1005,3.1641,3.2103,3.2707,3.3489,3.4113,3.4733,3.5506,3.6281,3.6417,3.6417,3.6455,3.6531,3.6896,3.7437,3.8027,3.8668,3.9195,3.9559,3.9697,3.9697,3.9697,3.9697,3.9697,3.9697,3.9697,3.9697,3.9697,3.9697,3.9697,3.9697,3.9697,3.9697,3.9697,3.9697,3.9697,3.9697,3.9697,3.9697,3.9697,3.9697,3.9722,3.9747,4.0111,4.06,4.1102,4.158,4.2032,4.2399,4.2663,4.3014,0.0,0.0,0.0,0.0,0.0,0.0,0.0,0.0,0.0556,0.0783,0.0833,0.1642,0.2146,0.2472,0.3226,0.3681,0.4307,0.496,0.5434,0.6012,0.6689,0.7036,0.7388,0.7715,0.7939,0.7988,0.7988,0.7988,0.8038,0.8137,0.8407,0.8751,0.9006,0.9649,1.0261,1.085,1.1414,1.2029,1.2735,1.3171,1.3702,1.455,1.4939,1.5226,1.5547,1.6069,1.6518,1.6831,1.7371,1.8087,1.8796,1.9531,2.0238,2.0758,2.1423,2.2366,2.3283,2.4196,2.5149,2.6138,2.732,2.8634,2.967,3.0373,3.0983,3.1552,3.2094,3.2796,3.3573,3.4259,3.4936,3.5692,3.6256,3.6417,3.6417,3.6443,3.6606,3.7148,3.7688,3.8316,3.8944,3.9321,3.9659,3.9697,3.9697,3.9697,3.9697,3.9697,3.9697,3.9697,3.9697,3.9697,3.9697,3.9697,3.9697,3.9697,3.9697,3.9697,3.9697,3.9697,3.9697,3.9697,3.9697,3.9697,3.9697,3.9697,3.971,4.0199,4.0826,4.124,4.1706,4.2195,4.265,4.2864,4.3014,0.0,0.0,0.0,0.0,0.0,0.0,0.0,0.0,0.0556,0.0783,0.0884,0.1541,0.2045,0.2472,0.3102,0.3655,0.4108,0.506,0.5584,0.5862,0.6714,0.7036,0.7388,0.7715,0.7939,0.7988,0.7988,0.7988,0.8063,0.8283,0.8528,0.8825,0.9154,0.9747,1.0359,1.0998,1.1561,1.2151,1.2735,1.3225,1.3829,1.4526,1.4939,1.5202,1.5571,1.6069,1.6518,1.6807,1.727,1.8017,1.875,1.9371,2.0192,2.0916,2.1588,2.2536,2.3523,2.4432,2.5381,2.6388,2.7558,2.8676,2.9636,3.0317,3.0938,3.1508,3.2129,3.2823,3.3676,3.4487,3.5142,3.5755,3.6092,3.6417,3.6417,3.6417,3.6884,3.7425,3.804,3.8668,3.9132,3.9509,3.9697,3.9697,3.9697,3.9697,3.9697,3.9697,3.9697,3.9697,3.9697,3.9697,3.9697,3.9697,3.9697,3.9697,3.9697,3.9697,3.9697,3.9697,3.9697,3.9697,3.9697,3.9697,3.9697,3.9697,3.971,4.0411,4.1039,4.1403,4.1869,4.2459,4.2813,4.2914,4.3014,0.0,0.0,0.0,0.0,0.0,0.0,0.0,0.0,0.0581,0.0783,0.0909,0.1364,0.1919,0.2422,0.3002,0.3556,0.4183,0.506,0.5584,0.5661,0.6714,0.7188,0.736,0.7711,0.7963,0.7988,0.7988,0.7988,0.8088,0.8333,0.8627,0.8846,0.9377,0.9895,1.0408,1.1169,1.1731,1.2195,1.288,1.3472,1.3781,1.443,1.5107,1.5178,1.5571,1.6038,1.6447,1.6777,1.7052,1.7893,1.8596,1.9188,2.026,2.1262,2.1998,2.2742,2.3686,2.465,2.5573,2.6573,2.7757,2.8782,2.9611,3.0273,3.0905,3.1362,3.1974,3.2879,3.3765,3.4549,3.523,3.5857,3.6304,3.6417,3.6417,3.6417,3.6632,3.7313,3.8091,3.8666,3.905,3.94,3.9426,3.94,3.9542,3.962,3.9697,3.9697,3.9697,3.9697,3.9697,3.9697,3.9697,3.9697,3.9697,3.9697,3.9697,3.9697,3.9697,3.9697,3.9697,3.9697,3.9697,3.9697,3.9697,3.9697,3.9835,4.0537,4.1127,4.1428,4.1969,4.2698,4.3014,4.3014,4.3014,0.0,0.0,0.0,0.0,0.0,0.0,0.0,0.0,0.0581,0.0783,0.0884,0.1364,0.1894,0.2422,0.2977,0.3531,0.4158,0.506,0.5484,0.5937,0.6711,0.7188,0.731,0.7711,0.7963,0.7988,0.7988,0.8013,0.8088,0.8407,0.8754,0.8899,0.9501,1.0093,1.0437,1.1218,1.1858,1.2273,1.3007,1.3521,1.3732,1.4454,1.5131,1.5244,1.5571,1.6062,1.6423,1.6636,1.72,1.797,1.8527,1.944,2.0682,2.1597,2.2141,2.2606,2.3759,2.4789,2.57,2.6693,2.7851,2.8801,2.9611,3.0262,3.0827,3.1184,3.1869,3.2893,3.3792,3.4551,3.5319,3.5936,3.6417,3.6417,3.6383,3.6383,3.6408,3.723,3.809,3.8559,3.8977,3.9088,3.9114,3.9218,3.9348,3.949,3.9645,3.9697,3.9697,3.9697,3.9697,3.9697,3.9697,3.9697,3.9697,3.9697,3.9697,3.9697,3.9697,3.9697,3.9697,3.9697,3.9697,3.9697,3.9697,3.9747,4.0036,4.0675,4.1177,4.1516,4.2082,4.2823,4.3014,4.3014,4.3014,0.0,0.0,0.0,0.0,0.0,0.0,0.0,0.0,0.0581,0.0783,0.0909,0.1465,0.202,0.2497,0.3077,0.3556,0.4158,0.5108,0.5484,0.5912,0.6587,0.7061,0.7409,0.7711,0.7914,0.7988,0.7988,0.8013,0.8113,0.8482,0.8825,0.8973,0.9645,1.0265,1.0536,1.1272,1.1956,1.2395,1.3152,1.3588,1.3829,1.4598,1.5178,1.5339,1.5642,1.6086,1.64,1.6659,1.7223,1.804,1.8758,1.9714,2.0781,2.1553,2.2186,2.2948,2.3957,2.5065,2.5824,2.6813,2.7888,2.8716,2.9416,3.0011,3.0658,3.1097,3.1974,3.2942,3.368,3.4437,3.545,3.6189,3.6358,3.6417,3.6341,3.6284,3.6599,3.7209,3.801,3.8662,3.8893,3.8893,3.8945,3.8945,3.9114,3.9348,3.9516,3.9645,3.9645,3.9697,3.9697,3.9697,3.9697,3.9697,3.9697,3.9697,3.9697,3.9697,3.9697,3.9697,3.9697,3.9697,3.9697,3.9697,3.976,3.9885,4.0275,4.08,4.1392,4.1806,4.2346,4.2989,4.3014,4.3014,4.3014,0.0,0.0,0.0,0.0,0.0,0.0,0.0,0.0126,0.0581,0.0833,0.0985,0.1693,0.2146,0.2598,0.3226,0.3681,0.4284,0.516,0.5511,0.5937,0.6736,0.7086,0.7385,0.7711,0.7914,0.7988,0.7988,0.8038,0.8113,0.8531,0.8874,0.9072,0.9694,1.0413,1.0732,1.1394,1.2175,1.2619,1.3225,1.3823,1.4334,1.4814,1.5172,1.5452,1.5706,1.6062,1.6423,1.6753,1.7176,1.8063,1.902,1.9973,2.0781,2.1517,2.2249,2.3065,2.4205,2.5108,2.5918,2.703,2.7823,2.8501,2.9117,2.976,3.0408,3.1127,3.2005,3.286,3.3587,3.4436,3.5435,3.6061,3.6192,3.6264,3.6163,3.6256,3.6702,3.7131,3.7779,3.8524,3.8657,3.8657,3.8684,3.871,3.8893,3.914,3.9348,3.9464,3.9568,3.9671,3.9697,3.9697,3.9697,3.9697,3.9697,3.9697,3.9697,3.9697,3.9697,3.9697,3.9697,3.9697,3.9697,3.9697,3.9785,3.9873,4.0275,4.0775,4.1379,4.1934,4.2537,4.2989,4.3014,4.3014,4.3014,0.0,0.0,0.0,0.0,0.0,0.0,0.0126,0.0353,0.0657,0.0909,0.1288,0.1893,0.2371,0.2447,0.3251,0.3831,0.441,0.5236,0.5689,0.6064,0.6811,0.711,0.736,0.7761,0.7939,0.7988,0.8013,0.8137,0.8258,0.8606,0.8952,0.9204,0.9941,1.0536,1.0875,1.159,1.2297,1.2783,1.3322,1.3901,1.4694,1.5077,1.522,1.5452,1.5689,1.6109,1.6447,1.6588,1.72,1.8063,1.9066,2.0019,2.083,2.1536,2.2278,2.322,2.4389,2.5205,2.6114,2.7047,2.7765,2.8337,2.8978,2.9623,3.0227,3.0772,3.1731,3.2788,3.3543,3.4367,3.5227,3.5642,3.5824,3.58,3.5742,3.6137,3.6588,3.684,3.7251,3.7776,3.8118,3.8145,3.821,3.8277,3.8461,3.8762,3.9114,3.927,3.9426,3.9568,3.9697,3.9697,3.9697,3.9697,3.9697,3.9697,3.9697,3.9697,3.9697,3.9697,3.9697,3.9697,3.9697,3.9697,3.971,3.9772,4.0237,4.0788,4.1214,4.1794,4.2497,4.2936,4.2989,4.3014,4.3014]},{"header":{"parameterUnit":"m.s-1","parameterCategory":1,"la1":31.0,"la2":29.5877,"lo1":-88.7671,"lo2":-86.6584,"dy":0.0162,"dx":0.0185,"nx":115,"ny":88,"refTime":"2023-09-19T12:00:00:Z","depth":0,"parameterNumber":3,"parameterNumberName":"V-component_of_WINDS"},"data":[0.0,0.0,0.0,0.0,0.0,0.0,0.0,0.0,0.0,0.0,0.0,0.0,0.0,0.0,0.0,0.0,0.0,0.0,0.0,0.0,0.0,0.0,0.0,0.0,0.0,0.0,0.0,0.0,0.0,0.0,0.0,0.0,0.0,0.0,0.0,0.0,0.0,0.0,0.0,0.0,0.0,0.0,0.0,0.0,0.0,0.0,0.0,0.0,0.0,0.0,0.0,0.0,0.0,0.0,0.0,0.0,0.0,0.0,0.0,0.0,0.0,0.0,0.0,0.0,0.0,0.0,0.0,0.0,0.0,0.0,0.0,0.0,0.0,0.0,0.0,0.0,0.0,0.0,0.0,0.0,0.0,0.0,0.0,0.0,0.0,0.0,0.0,0.0,0.0,0.0,0.0,0.0,0.0,0.0,0.0,0.0,0.0,0.0,0.0,0.0,0.0,0.0,0.0,0.0,0.0,0.0,0.0,0.0,0.0,0.0,0.0,0.0,0.0,0.0,0.0,0.0,0.0,0.0,0.0,0.0,0.0,0.0,0.0,0.0,0.0,0.0,0.0,0.0,0.0,0.0,0.0,0.0,0.0,0.0,0.0,0.0,0.0,0.0,0.0,0.0,0.0,0.0,0.0,0.0,0.0,0.0,0.0,0.0,0.0,0.0,0.0,0.0,0.0,0.0,0.0,0.0,0.0,0.0,0.0,0.0,0.0,0.0,0.0,0.0,0.0,0.0,0.0,0.0,0.0,0.0,0.0,0.0,0.0,0.0,0.0,0.0,0.0,0.0,0.0,0.0,0.0,0.0,0.0,0.0,0.0,0.0,0.0,0.0,0.0,0.0,0.0,0.0,0.0,0.0,0.0,0.0,0.0,0.0,0.0,0.0,0.0,0.0,0.0,0.0,0.0,0.0,0.0,0.0,0.0,0.0,0.0,0.0,0.0,0.0,0.0,0.0,0.0,0.0,0.0,0.0,0.0,0.0,0.0,0.0,0.0,0.0,0.0,0.0,0.0,0.0,0.0,0.0,0.0,0.0,0.0,0.0,0.0,0.0,0.0,0.0,0.0,0.0,0.0,0.0,0.0,0.0,0.0,0.0,0.0,0.0,0.0,0.0,0.0,0.0,0.0,0.0,0.0,0.0,0.0,0.0,0.0,0.0,0.0,0.0,0.0,0.0,0.0,0.0,0.0,0.0,0.0,0.0,0.0,0.0,0.0,0.0,0.0,0.0,0.0,0.0,0.0,0.0,0.0,0.0,0.0,0.0,0.0,0.0,0.0,0.0,0.0,0.0,0.0,0.0,0.0,0.0,0.0,0.0,0.0,0.0,0.0,0.0,0.0,0.0,0.0,0.0,0.0,0.0,0.0,0.0,0.0,0.0,0.0,0.0,0.0,0.0,0.0,0.0,0.0,0.0,0.0,0.0,0.0,0.0,0.0,0.0,0.0,0.0,0.0,0.0,0.0,0.0,0.0,0.0,0.0,0.0,0.0,0.0,0.0,0.0,0.0,0.0,0.0,0.0,0.0,0.0,0.0,0.0,0.0,0.0,0.0,0.0,0.0,0.0,0.0,0.0,0.0,0.0,0.0,0.0,0.0,0.0,0.0,0.0,0.0,0.0,0.0,0.0,0.0,0.0,0.0,0.0,0.0,0.0,0.0,0.0,0.0,0.0,0.0,0.0,0.0,0.0,0.0,0.0,0.0,0.0,0.0,0.0,0.0,0.0,0.0,0.0,0.0,0.0,0.0,0.0,0.0,0.0,0.0,0.0,0.0,0.0,0.0,0.0,0.0,0.0,0.0,0.0,0.0,0.0,0.0,0.0,0.0,0.0,0.0,0.0,0.0,0.0,0.0,0.0,0.0,0.0,0.0,0.0,0.0,0.0,0.0,0.0,0.0,0.0,0.0,0.0,0.0,0.0,0.0,0.0,0.0,0.0,0.0,0.0,0.0,0.0,0.0,0.0,0.0,0.0,0.0,0.0,0.0,0.0,0.0,0.0,0.0,0.0,0.0,0.0,0.0,0.0,0.0,0.0,0.0,0.0,0.0,0.0,0.0,0.0,0.0,0.0,0.0,0.0,0.0,0.0,0.0,0.0,0.0,0.0,0.0,0.0,0.0,0.0,0.0,0.0,0.0,0.0,0.0,0.0,0.0,0.0,0.0,0.0,0.0,0.0,0.0,0.0,0.0,0.0,0.0,0.0,0.0,0.0,0.0,0.0,0.0,0.0,0.0,0.0,0.0,0.0,0.0,0.0,0.0,0.0,0.0,0.0,0.0,0.0,0.0,0.0,0.0,0.0,0.0,0.0,0.0,0.0,0.0,0.0,0.0,0.0,0.0,0.0,0.0,0.0,0.0,0.0,0.0,0.0,0.0,0.0,0.0,0.0,0.0,0.0,0.0,0.0,0.0,0.0,0.0,0.0,0.0,0.0,0.0,0.0,0.0,0.0,0.0,0.0,0.0,0.0,0.0,0.0,0.0,0.0,0.0,0.0,0.0,0.0,0.0,0.0,0.0,0.0,0.0,0.0,0.0,0.0,0.0,0.0,0.0,0.0,0.0,0.0,0.0,0.0,0.0,0.0,0.0,0.0,0.0,0.0,0.0,0.0,0.0,0.0,0.0,0.0,0.0,0.0,0.0,0.0,0.0,0.0,0.0,0.0,0.0,0.0,0.0,0.0,0.0,0.0,0.0,0.0,0.0,0.0,0.0,0.0,0.0,0.0,0.0,0.0,0.0,0.0,0.0,0.0,0.0,0.0,0.0,0.0,0.0,0.0,0.0,0.0,0.0,0.0,0.0,0.0,0.0,0.0,0.0,0.0,0.0,0.0,0.0,0.0,0.0,0.0,0.0,0.0,0.0,0.0,0.0,0.0,0.0,0.0,0.0,0.0,0.0,0.0,0.0,0.0,0.0,0.0,0.0,0.0,0.0,0.0,0.0,0.0,0.0,0.0,0.0,0.0,0.0,0.0,0.0,0.0,0.0,0.0,0.0,0.0,0.0,0.0,0.0,0.0,0.0,0.0,0.0,0.0,0.0,0.0,0.0,0.0,0.0,0.0,0.0,0.0,0.0,0.0,0.0,0.0,0.0,0.0,0.0,0.0,0.0,0.0,0.0,0.0,0.0,0.0,0.0,0.0,0.0,0.0,0.0,0.0,0.0,0.0,0.0,0.0,0.0,0.0,0.0,0.0,0.0,0.0,0.0,0.0,0.0,0.0,0.0,0.0,0.0,0.0,0.0,0.0,0.0,0.0,0.0,0.0,0.0,0.0,0.0,0.0,0.0,0.0,0.0,0.0,0.0,0.0,0.0,0.0,0.0,0.0,0.0,0.0,0.0,0.0,0.0,0.0,0.0,0.0,0.0,0.0,0.0,0.0,0.0,0.0,0.0,0.0,0.0,0.0,0.0,0.0,0.0,0.0,0.0,0.0,0.0,0.0,0.0,0.0,0.0,0.0,0.0,0.0,0.0,0.0,0.0,0.0,0.0,0.0,0.0,0.0,0.0,0.0,0.0,0.0,0.0,0.0,0.0,0.0,0.0,0.0,0.0,0.0,0.0,0.0,0.0,0.0,0.0,0.0,0.0,0.0,0.0,0.0,0.0,0.0,0.0,0.0,0.0,0.0,0.0,0.0,0.0,0.0,0.0,0.0,0.0,0.0,0.0,0.0,0.0,0.0,0.0,0.0,0.0,0.0,0.0,0.0,0.0,0.0,0.0,0.0,0.0,0.0,0.0,0.0,0.0,0.0,0.0,0.0,0.0,0.0,0.0,0.0,0.0,0.0,0.0,0.0,0.0,0.0,0.0,0.0,0.0,0.0,0.0,0.0,0.0,0.0,0.0,0.0,0.0,0.0,0.0,0.0,0.0,0.0,0.0,0.0,0.0,0.0,0.0,0.0,0.0,0.0,0.0,0.0,0.0,0.0,0.0,0.0,0.0,0.0,0.0,0.0,0.0,0.0,0.0,0.0,0.0,0.0,0.0,0.0,0.0,0.0,0.0,0.0,0.0,0.0,0.0,0.0,0.0,0.0,0.0,0.0,0.0,0.0,0.0,0.0,0.0,0.0,0.0,0.0,0.0,0.0,0.0,0.0,0.0,0.0,0.0,0.0,0.0,0.0,0.0,0.0,0.0,0.0,0.0,0.0,0.0,0.0,0.0,0.0,0.0,0.0,0.0,0.0,0.0,0.0,0.0,0.0,0.0,0.0,0.0,0.0,0.0,0.0,0.0,0.0,0.0,0.0,0.0,0.0,0.0,0.0,0.0,0.0,2.0593,0.0,0.0,0.0,0.0,0.0,0.0,0.0,0.0,0.0,0.0,0.0,0.0,0.0,0.0,0.0,0.0,0.0,0.0,0.0,0.0,0.0,0.0,0.0,0.0,0.0,0.0,0.0,0.0,0.0,0.0,0.0,0.0,0.0,0.0,0.0,0.0,0.0,0.0,0.0,0.0,0.0,0.0,0.0,0.0,0.0,0.0,0.0,0.0,0.0,0.0,0.0,0.0,0.0,0.0,0.0,0.0,0.0,0.0,0.0,0.0,0.0,0.0,0.0,0.0,0.0,0.0,0.0,0.0,0.0,0.0,0.0,0.0,0.0,0.0,0.0,0.0,0.0,0.0,0.0,0.0,0.0,0.0,0.0,0.0,0.0,0.0,0.0,0.0,0.0,0.0,0.0,0.0,0.0,0.0,0.0,0.0,0.0,0.0,0.0,0.0,0.0,0.0,0.0,0.0,0.0,0.0,0.0,0.0,0.0,0.0,2.1535,2.1595,2.1595,2.1476,2.1236,0.0,0.0,0.0,0.0,0.0,0.0,0.0,0.0,0.0,0.0,0.0,0.0,0.0,0.0,0.0,0.0,0.0,0.0,0.0,0.0,0.0,0.0,0.0,0.0,0.0,0.0,0.0,0.0,0.0,0.0,0.0,0.0,0.0,0.0,0.0,0.0,0.0,0.0,0.0,0.0,0.0,0.0,0.0,0.0,0.0,0.0,0.0,0.0,0.0,0.0,0.0,0.0,0.0,0.0,0.0,0.0,0.0,0.0,0.0,0.0,0.0,0.0,0.0,0.0,0.0,0.0,0.0,0.0,0.0,0.0,0.0,0.0,0.0,0.0,0.0,0.0,0.0,0.0,0.0,0.0,0.0,0.0,0.0,0.0,0.0,0.0,0.0,0.0,0.0,0.0,0.0,0.0,0.0,0.0,0.0,0.0,0.0,0.0,0.0,0.0,0.0,0.0,0.0,0.0,0.0,0.0,0.0,0.0,0.0,0.0,0.0,0.0,2.1904,2.1891,2.1854,0.0,0.0,0.0,0.0,0.0,0.0,0.0,0.0,0.0,0.0,0.0,0.0,0.0,0.0,0.0,0.0,0.0,0.0,0.0,0.0,0.0,0.0,0.0,0.0,0.0,0.0,0.0,0.0,0.0,0.0,0.0,0.0,0.0,0.0,0.0,0.0,0.0,0.0,0.0,0.0,0.0,0.0,0.0,0.0,0.0,0.0,0.0,0.0,0.0,0.0,0.0,0.0,0.0,0.0,0.0,0.0,0.0,0.0,0.0,0.0,0.0,0.0,0.0,0.0,0.0,0.0,0.0,0.0,0.0,0.0,0.0,0.0,0.0,0.0,0.0,0.0,0.0,0.0,0.0,0.0,0.0,0.0,0.0,0.0,0.0,0.0,0.0,0.0,0.0,0.0,0.0,0.0,0.0,0.0,0.0,0.0,0.0,0.0,0.0,0.0,0.0,0.0,0.0,0.0,0.0,0.0,0.0,0.0,0.0,0.0,2.3065,2.2977,2.3072,0.0,2.2396,0.0,0.0,0.0,0.0,0.0,0.0,0.0,0.0,0.0,0.0,0.0,0.0,0.0,0.0,0.0,0.0,0.0,0.0,0.0,0.0,0.0,0.0,0.0,0.0,0.0,0.0,0.0,0.0,0.0,0.0,0.0,0.0,0.0,0.0,0.0,0.0,0.0,0.0,0.0,0.0,0.0,0.0,0.0,0.0,0.0,0.0,0.0,0.0,0.0,0.0,0.0,0.0,0.0,0.0,0.0,0.0,0.0,0.0,0.0,0.0,0.0,0.0,0.0,0.0,0.0,0.0,0.0,0.0,0.0,0.0,0.0,0.0,0.0,0.0,0.0,0.0,0.0,0.0,0.0,0.0,0.0,0.0,0.0,0.0,0.0,0.0,0.0,0.0,0.0,0.0,0.0,0.0,0.0,0.0,0.0,0.0,0.0,0.0,0.0,0.0,0.0,0.0,0.0,0.0,0.0,0.0,0.0,0.0,0.0,0.0,2.3489,2.3861,2.3766,2.3414,0.0,0.0,0.0,0.0,0.0,0.0,0.0,0.0,0.0,0.0,0.0,0.0,0.0,0.0,0.0,0.0,0.0,0.0,0.0,0.0,0.0,0.0,0.0,0.0,0.0,0.0,0.0,0.0,0.0,0.0,0.0,0.0,0.0,0.0,0.0,0.0,0.0,0.0,0.0,0.0,0.0,0.0,0.0,0.0,0.0,0.0,0.0,0.0,0.0,0.0,0.0,0.0,0.0,0.0,0.0,0.0,0.0,0.0,0.0,0.0,0.0,0.0,0.0,0.0,0.0,0.0,0.0,0.0,0.0,0.0,0.0,0.0,0.0,0.0,0.0,0.0,0.0,0.0,0.0,0.0,0.0,0.0,0.0,0.0,0.0,0.0,0.0,0.0,0.0,0.0,0.0,0.0,0.0,0.0,0.0,0.0,0.0,0.0,0.0,0.0,0.0,0.0,0.0,0.0,0.0,0.0,0.0,0.0,0.0,0.0,2.3166,2.3509,2.4173,2.4105,2.3771,2.3194,0.0,0.0,0.0,0.0,0.0,0.0,0.0,0.0,0.0,0.0,0.0,0.0,0.0,0.0,0.0,0.0,0.0,0.0,0.0,0.0,0.0,0.0,0.0,0.0,0.0,0.0,0.0,0.0,0.0,0.0,0.0,0.0,0.0,0.0,0.0,0.0,0.0,0.0,0.0,0.0,0.0,0.0,0.0,0.0,0.0,0.0,0.0,0.0,0.0,0.0,0.0,0.0,0.0,0.0,0.0,0.0,0.0,0.0,0.0,0.0,0.0,0.0,0.0,0.0,0.0,0.0,0.0,0.0,0.0,0.0,0.0,0.0,0.0,0.0,0.0,0.0,0.0,0.0,0.0,0.0,0.0,0.0,0.0,0.0,0.0,0.0,0.0,0.0,0.0,0.0,0.0,0.0,0.0,0.0,0.0,0.0,0.0,0.0,0.0,0.0,0.0,0.0,0.0,0.0,0.0,0.0,0.0,0.0,2.272,2.2873,2.3199,2.3757,2.405,2.4015,0.0,0.0,0.0,0.0,0.0,0.0,0.0,0.0,0.0,0.0,0.0,0.0,0.0,0.0,0.0,0.0,0.0,0.0,0.0,0.0,0.0,0.0,0.0,0.0,0.0,0.0,0.0,0.0,0.0,0.0,0.0,0.0,0.0,0.0,0.0,0.0,0.0,0.0,0.0,0.0,0.0,0.0,0.0,0.0,0.0,0.0,0.0,0.0,0.0,0.0,0.0,0.0,0.0,0.0,0.0,0.0,0.0,0.0,0.0,0.0,0.0,0.0,0.0,0.0,0.0,0.0,0.0,0.0,0.0,0.0,0.0,0.0,0.0,0.0,0.0,0.0,0.0,0.0,0.0,0.0,0.0,0.0,0.0,0.0,0.0,0.0,0.0,0.0,0.0,0.0,0.0,0.0,0.0,0.0,0.0,0.0,0.0,0.0,0.0,0.0,0.0,0.0,0.0,0.0,0.0,0.0,0.0,0.0,0.0,2.2916,2.3688,2.4245,2.4518,2.4537,2.4362,0.0,0.0,0.0,0.0,0.0,0.0,0.0,0.0,0.0,0.0,0.0,0.0,0.0,0.0,0.0,0.0,0.0,0.0,0.0,0.0,0.0,0.0,0.0,0.0,0.0,0.0,0.0,0.0,0.0,0.0,0.0,0.0,0.0,0.0,0.0,0.0,0.0,0.0,0.0,0.0,0.0,0.0,0.0,0.0,0.0,0.0,0.0,0.0,0.0,0.0,0.0,0.0,0.0,0.0,0.0,0.0,0.0,0.0,0.0,0.0,0.0,0.0,0.0,0.0,0.0,0.0,0.0,0.0,0.0,0.0,0.0,0.0,0.0,0.0,0.0,0.0,0.0,0.0,0.0,0.0,0.0,0.0,0.0,0.0,0.0,0.0,0.0,0.0,0.0,0.0,0.0,0.0,0.0,0.0,0.0,0.0,0.0,0.0,0.0,0.0,0.0,0.0,0.0,0.0,0.0,0.0,0.0,0.0,0.0,2.2989,0.0,2.4621,2.4779,2.4833,2.4729,0.0,0.0,0.0,0.0,0.0,0.0,0.0,0.0,0.0,0.0,0.0,0.0,0.0,0.0,0.0,0.0,0.0,0.0,0.0,0.0,0.0,0.0,0.0,0.0,0.0,0.0,0.0,0.0,0.0,0.0,0.0,0.0,0.0,0.0,0.0,0.0,0.0,0.0,0.0,0.0,0.0,0.0,0.0,0.0,0.0,0.0,0.0,0.0,0.0,0.0,0.0,0.0,0.0,0.0,0.0,0.0,0.0,0.0,0.0,0.0,0.0,0.0,0.0,0.0,0.0,0.0,0.0,0.0,0.0,0.0,0.0,0.0,0.0,0.0,0.0,0.0,0.0,0.0,0.0,0.0,0.0,0.0,0.0,0.0,0.0,0.0,0.0,0.0,0.0,0.0,0.0,0.0,0.0,0.0,0.0,0.0,0.0,0.0,0.0,0.0,0.0,0.0,0.0,0.0,0.0,0.0,0.0,0.0,2.218,2.3013,2.378,2.4254,2.432,2.4906,2.5108,0.0,0.0,0.0,0.0,0.0,0.0,0.0,0.0,0.0,0.0,0.0,0.0,0.0,0.0,0.0,0.0,0.0,0.0,0.0,0.0,0.0,0.0,0.0,0.0,0.0,0.0,0.0,0.0,0.0,0.0,0.0,0.0,0.0,0.0,0.0,0.0,0.0,0.0,0.0,0.0,0.0,0.0,0.0,0.0,0.0,0.0,0.0,0.0,0.0,0.0,0.0,0.0,0.0,0.0,0.0,0.0,0.0,0.0,0.0,0.0,0.0,0.0,0.0,0.0,0.0,0.0,0.0,0.0,0.0,0.0,0.0,0.0,0.0,0.0,0.0,0.0,0.0,0.0,0.0,0.0,0.0,0.0,0.0,0.0,0.0,0.0,0.0,0.0,0.0,0.0,0.0,0.0,0.0,0.0,0.0,0.0,0.0,0.0,0.0,0.0,0.0,0.0,0.0,0.0,0.0,0.0,0.0,0.0,0.0,2.4368,2.4596,2.4821,2.506,2.547,2.5451,0.0,0.0,0.0,0.0,0.0,0.0,0.0,0.0,0.0,0.0,0.0,0.0,0.0,0.0,0.0,0.0,0.0,0.0,0.0,0.0,0.0,0.0,0.0,0.0,0.0,0.0,0.0,0.0,0.0,0.0,0.0,0.0,0.0,0.0,0.0,0.0,0.0,0.0,0.0,0.0,0.0,0.0,0.0,0.0,0.0,0.0,0.0,0.0,0.0,0.0,0.0,0.0,0.0,0.0,0.0,0.0,0.0,0.0,0.0,0.0,0.0,0.0,0.0,0.0,0.0,0.0,0.0,0.0,0.0,0.0,0.0,0.0,0.0,0.0,0.0,0.0,0.0,0.0,0.0,0.0,0.0,0.0,0.0,0.0,0.0,0.0,0.0,0.0,0.0,0.0,0.0,0.0,0.0,0.0,0.0,0.0,0.0,0.0,0.0,0.0,0.0,0.0,0.0,0.0,0.0,0.0,0.0,0.0,0.0,2.5461,2.5367,2.5443,2.5731,2.5922,2.5964,2.5761,0.0,0.0,0.0,0.0,0.0,0.0,0.0,0.0,0.0,0.0,0.0,0.0,0.0,0.0,0.0,0.0,0.0,0.0,0.0,0.0,0.0,0.0,0.0,0.0,0.0,0.0,0.0,0.0,0.0,0.0,0.0,0.0,0.0,0.0,0.0,0.0,0.0,0.0,0.0,0.0,0.0,0.0,0.0,0.0,0.0,0.0,0.0,0.0,0.0,0.0,0.0,0.0,0.0,0.0,0.0,0.0,0.0,0.0,0.0,0.0,0.0,0.0,0.0,0.0,0.0,0.0,0.0,0.0,0.0,0.0,0.0,0.0,0.0,0.0,0.0,0.0,0.0,0.0,0.0,0.0,0.0,0.0,0.0,0.0,0.0,0.0,0.0,0.0,0.0,0.0,0.0,0.0,0.0,0.0,0.0,0.0,0.0,0.0,0.0,0.0,0.0,0.0,0.0,0.0,0.0,0.0,0.0,0.0,2.638,2.6129,2.6129,2.6378,2.6386,2.6636,0.0,0.0,0.0,0.0,0.0,0.0,0.0,0.0,0.0,0.0,0.0,0.0,0.0,0.0,0.0,0.0,0.0,0.0,0.0,0.0,0.0,0.0,0.0,0.0,0.0,0.0,0.0,0.0,0.0,0.0,0.0,0.0,0.0,0.0,0.0,0.0,0.0,0.0,0.0,0.0,0.0,0.0,0.0,0.0,0.0,0.0,0.0,0.0,0.0,0.0,0.0,0.0,0.0,0.0,0.0,0.0,0.0,0.0,0.0,0.0,0.0,0.0,0.0,0.0,0.0,0.0,0.0,0.0,0.0,0.0,0.0,0.0,0.0,0.0,0.0,0.0,0.0,0.0,0.0,0.0,0.0,0.0,0.0,0.0,0.0,0.0,0.0,0.0,0.0,0.0,0.0,0.0,0.0,0.0,0.0,0.0,0.0,0.0,0.0,0.0,0.0,0.0,0.0,0.0,0.0,0.0,0.0,0.0,0.0,2.7524,2.8007,2.7956,2.7365,2.7224,2.7198,0.0,0.0,0.0,0.0,0.0,0.0,0.0,0.0,0.0,0.0,0.0,0.0,0.0,0.0,0.0,0.0,0.0,0.0,0.0,0.0,0.0,0.0,0.0,0.0,0.0,0.0,0.0,0.0,0.0,0.0,0.0,0.0,0.0,0.0,0.0,0.0,0.0,0.0,0.0,0.0,0.0,0.0,0.0,0.0,0.0,0.0,0.0,0.0,0.0,0.0,0.0,0.0,0.0,0.0,0.0,0.0,0.0,0.0,0.0,0.0,0.0,0.0,0.0,0.0,0.0,0.0,0.0,0.0,0.0,0.0,0.0,0.0,0.0,0.0,0.0,0.0,0.0,0.0,0.0,0.0,0.0,0.0,0.0,0.0,0.0,0.0,0.0,0.0,0.0,0.0,0.0,0.0,0.0,0.0,0.0,0.0,0.0,0.0,0.0,0.0,0.0,0.0,0.0,0.0,0.0,0.0,0.0,0.0,2.7537,2.8281,2.9018,2.9186,2.8716,2.8435,2.8167,0.0,0.0,0.0,0.0,0.0,0.0,0.0,0.0,0.0,0.0,0.0,0.0,0.0,0.0,0.0,0.0,0.0,0.0,0.0,0.0,0.0,0.0,0.0,0.0,0.0,0.0,0.0,0.0,0.0,0.0,0.0,0.0,0.0,0.0,0.0,0.0,0.0,0.0,0.0,0.0,0.0,0.0,0.0,0.0,0.0,0.0,0.0,0.0,0.0,0.0,0.0,0.0,0.0,0.0,0.0,0.0,0.0,0.0,0.0,0.0,0.0,0.0,0.0,0.0,0.0,0.0,0.0,0.0,0.0,0.0,0.0,0.0,0.0,0.0,0.0,0.0,0.0,0.0,0.0,0.0,0.0,0.0,0.0,0.0,0.0,0.0,0.0,0.0,0.0,0.0,0.0,0.0,0.0,0.0,0.0,0.0,0.0,0.0,0.0,0.0,0.0,0.0,0.0,0.0,0.0,0.0,0.0,0.0,2.816,2.8912,2.9571,3.0007,3.0191,2.9692,2.9233,0.0,0.0,0.0,0.0,0.0,0.0,0.0,0.0,0.0,0.0,0.0,0.0,0.0,0.0,0.0,0.0,0.0,0.0,0.0,0.0,0.0,0.0,0.0,0.0,0.0,0.0,0.0,0.0,0.0,0.0,0.0,0.0,0.0,0.0,0.0,0.0,0.0,0.0,0.0,0.0,0.0,0.0,0.0,0.0,0.0,0.0,0.0,0.0,0.0,0.0,0.0,0.0,0.0,0.0,0.0,0.0,0.0,0.0,0.0,0.0,0.0,0.0,0.0,0.0,0.0,0.0,0.0,0.0,0.0,0.0,0.0,0.0,0.0,0.0,0.0,0.0,0.0,0.0,0.0,0.0,0.0,0.0,0.0,0.0,0.0,0.0,0.0,0.0,0.0,0.0,0.0,0.0,0.0,0.0,0.0,0.0,0.0,0.0,0.0,0.0,0.0,0.0,0.0,0.0,0.0,0.0,0.0,0.0,2.9103,3.032,3.0495,3.0687,3.088,3.0017,2.9406,0.0,0.0,0.0,0.0,0.0,0.0,0.0,0.0,0.0,0.0,0.0,0.0,0.0,0.0,0.0,0.0,0.0,0.0,0.0,0.0,0.0,0.0,0.0,0.0,0.0,0.0,0.0,0.0,0.0,0.0,0.0,0.0,0.0,0.0,0.0,0.0,0.0,0.0,0.0,0.0,0.0,0.0,0.0,0.0,0.0,0.0,0.0,0.0,2.1482,0.0,0.0,0.0,0.0,0.0,0.0,0.0,0.0,0.0,0.0,0.0,0.0,0.0,0.0,0.0,0.0,0.0,0.0,0.0,0.0,0.0,0.0,0.0,0.0,0.0,0.0,0.0,0.0,0.0,0.0,0.0,0.0,0.0,0.0,0.0,0.0,0.0,0.0,0.0,0.0,0.0,0.0,0.0,0.0,0.0,0.0,0.0,0.0,0.0,0.0,0.0,0.0,0.0,0.0,0.0,0.0,0.0,0.0,0.0,3.0016,3.1307,3.1351,3.1617,3.2078,3.1308,3.0484,0.0,0.0,0.0,0.0,0.0,0.0,0.0,0.0,0.0,0.0,0.0,0.0,0.0,0.0,0.0,0.0,0.0,0.0,0.0,0.0,0.0,0.0,0.0,0.0,0.0,0.0,0.0,0.0,0.0,0.0,0.0,0.0,0.0,0.0,0.0,0.0,0.0,0.0,0.0,0.0,0.0,0.0,0.0,0.0,0.0,0.0,0.0,0.0,0.0,0.0,0.0,0.0,0.0,0.0,0.0,0.0,0.0,0.0,0.0,0.0,0.0,0.0,0.0,0.0,0.0,0.0,0.0,0.0,0.0,0.0,0.0,0.0,0.0,0.0,0.0,0.0,0.0,0.0,0.0,0.0,0.0,0.0,0.0,0.0,0.0,0.0,0.0,0.0,0.0,0.0,0.0,0.0,0.0,0.0,0.0,0.0,0.0,0.0,0.0,0.0,0.0,0.0,0.0,0.0,0.0,0.0,0.0,2.9934,3.0895,3.2063,3.2211,3.2643,3.3362,3.2765,3.1886,3.0754,0.0,0.0,0.0,0.0,0.0,0.0,0.0,0.0,0.0,0.0,0.0,0.0,0.0,0.0,0.0,0.0,0.0,0.0,0.0,0.0,0.0,0.0,0.0,0.0,0.0,0.0,0.0,0.0,0.0,0.0,0.0,0.0,0.0,0.0,0.0,0.0,0.0,0.0,1.958,2.1073,0.0,0.0,0.0,0.0,0.0,0.0,0.0,0.0,2.3095,0.0,0.0,0.0,0.0,0.0,0.0,0.0,0.0,0.0,0.0,0.0,0.0,0.0,0.0,0.0,0.0,0.0,0.0,0.0,0.0,0.0,0.0,0.0,0.0,0.0,0.0,0.0,0.0,0.0,0.0,0.0,0.0,0.0,0.0,0.0,0.0,0.0,0.0,0.0,0.0,0.0,0.0,0.0,0.0,0.0,0.0,0.0,0.0,0.0,0.0,0.0,0.0,0.0,0.0,0.0,0.0,2.9512,3.0677,3.1734,3.266,3.3216,3.3638,3.3849,3.3229,3.2775,3.2503,0.0,0.0,0.0,0.0,0.0,0.0,0.0,0.0,0.0,0.0,0.0,0.0,0.0,0.0,0.0,0.0,0.0,0.0,0.0,0.0,0.0,0.0,0.0,0.0,0.0,0.0,0.0,0.0,0.0,0.0,0.0,0.0,0.0,0.0,0.0,0.0,0.0,0.0,0.0,2.1529,2.2263,0.0,0.0,0.0,0.0,0.0,0.0,0.0,0.0,2.3058,0.0,0.0,0.0,0.0,0.0,0.0,0.0,0.0,0.0,0.0,0.0,0.0,0.0,0.0,0.0,0.0,0.0,0.0,0.0,0.0,0.0,0.0,0.0,0.0,0.0,0.0,0.0,0.0,0.0,0.0,0.0,0.0,0.0,0.0,0.0,0.0,0.0,0.0,0.0,0.0,0.0,0.0,0.0,0.0,0.0,0.0,0.0,0.0,0.0,0.0,0.0,0.0,0.0,0.0,0.0,2.9869,3.1423,3.2657,3.3395,3.4152,3.4744,3.5095,3.4225,3.3763,0.0,0.0,0.0,0.0,0.0,0.0,0.0,0.0,0.0,0.0,0.0,0.0,0.0,0.0,0.0,0.0,0.0,0.0,0.0,0.0,0.0,0.0,0.0,0.0,0.0,0.0,0.0,0.0,0.0,0.0,0.0,0.0,0.0,0.0,0.0,0.0,0.0,0.0,0.0,0.0,2.2222,2.2945,2.3632,0.0,0.0,0.0,0.0,0.0,0.0,2.3973,2.3873,0.0,0.0,0.0,0.0,0.0,0.0,0.0,0.0,0.0,0.0,0.0,0.0,0.0,0.0,0.0,0.0,0.0,0.0,0.0,0.0,0.0,0.0,0.0,0.0,0.0,0.0,0.0,0.0,0.0,0.0,0.0,0.0,0.0,0.0,0.0,0.0,0.0,0.0,0.0,0.0,0.0,0.0,0.0,0.0,0.0,0.0,0.0,0.0,0.0,0.0,0.0,0.0,0.0,0.0,0.0,3.0542,3.2339,3.3647,3.4377,3.5155,3.583,3.6384,3.5257,3.4677,0.0,0.0,0.0,0.0,0.0,0.0,0.0,0.0,0.0,0.0,0.0,0.0,0.0,0.0,0.0,0.0,0.0,0.0,0.0,0.0,0.0,0.0,0.0,0.0,0.0,0.0,0.0,0.0,0.0,0.0,0.0,0.0,0.0,0.0,0.0,0.0,0.0,0.0,0.0,0.0,0.0,2.3513,2.432,2.4471,0.0,0.0,0.0,0.0,2.4816,2.4816,0.0,0.0,0.0,0.0,0.0,0.0,0.0,0.0,0.0,0.0,0.0,0.0,0.0,0.0,0.0,0.0,0.0,0.0,0.0,0.0,0.0,0.0,0.0,0.0,0.0,0.0,0.0,0.0,0.0,0.0,0.0,0.0,0.0,0.0,0.0,0.0,0.0,0.0,0.0,0.0,0.0,0.0,0.0,0.0,0.0,0.0,0.0,0.0,0.0,0.0,0.0,0.0,0.0,0.0,0.0,0.0,3.2185,3.354,3.4733,3.574,3.6393,3.6889,3.7222,3.5975,3.531,0.0,0.0,0.0,0.0,0.0,0.0,0.0,0.0,0.0,0.0,0.0,0.0,0.0,0.0,0.0,0.0,0.0,0.0,0.0,0.0,0.0,0.0,0.0,0.0,0.0,0.0,0.0,0.0,0.0,0.0,0.0,0.0,0.0,0.0,0.0,0.0,0.0,0.0,0.0,0.0,0.0,2.3481,2.4214,2.4406,2.4552,0.0,0.0,2.4816,2.4816,2.4816,0.0,0.0,0.0,0.0,0.0,0.0,0.0,0.0,0.0,0.0,0.0,0.0,0.0,0.0,0.0,0.0,0.0,0.0,0.0,0.0,0.0,0.0,0.0,0.0,0.0,0.0,0.0,0.0,0.0,0.0,0.0,0.0,0.0,0.0,0.0,0.0,0.0,0.0,0.0,0.0,0.0,0.0,0.0,0.0,0.0,0.0,0.0,0.0,0.0,0.0,0.0,0.0,0.0,0.0,0.0,3.149,3.2958,3.4358,3.5508,3.6331,3.7155,3.7666,3.7797,3.6554,3.5858,0.0,0.0,0.0,0.0,0.0,0.0,0.0,0.0,0.0,0.0,0.0,0.0,0.0,0.0,0.0,0.0,0.0,0.0,0.0,0.0,0.0,0.0,0.0,0.0,0.0,0.0,0.0,0.0,0.0,0.0,0.0,0.0,0.0,0.0,0.0,0.0,0.0,0.0,0.0,0.0,0.0,0.0,2.5102,2.5345,0.0,0.0,0.0,2.5766,2.5766,0.0,0.0,0.0,0.0,0.0,0.0,0.0,0.0,0.0,0.0,0.0,0.0,0.0,0.0,0.0,0.0,0.0,0.0,0.0,0.0,0.0,0.0,0.0,0.0,0.0,0.0,0.0,0.0,0.0,0.0,0.0,0.0,0.0,0.0,0.0,0.0,0.0,0.0,0.0,0.0,0.0,0.0,0.0,0.0,0.0,0.0,0.0,0.0,0.0,0.0,0.0,0.0,0.0,0.0,0.0,0.0,0.0,3.4017,3.5162,3.622,3.714,3.7869,3.8298,3.8337,3.7289,0.0,0.0,0.0,0.0,0.0,0.0,0.0,0.0,0.0,0.0,0.0,0.0,0.0,0.0,0.0,0.0,0.0,0.0,0.0,0.0,0.0,0.0,0.0,0.0,0.0,0.0,0.0,2.1456,0.0,0.0,0.0,0.0,0.0,0.0,0.0,0.0,0.0,0.0,0.0,0.0,0.0,0.0,2.5196,2.6061,2.6282,2.6507,0.0,0.0,2.6901,2.6884,2.6901,2.6695,0.0,0.0,0.0,0.0,0.0,0.0,0.0,0.0,0.0,0.0,0.0,0.0,0.0,0.0,0.0,0.0,0.0,0.0,0.0,0.0,0.0,0.0,0.0,0.0,0.0,0.0,0.0,0.0,0.0,0.0,0.0,0.0,0.0,0.0,0.0,0.0,0.0,0.0,0.0,0.0,0.0,0.0,0.0,0.0,0.0,0.0,0.0,0.0,0.0,0.0,0.0,0.0,0.0,0.0,0.0,3.5907,3.6101,3.6978,3.8575,3.8703,3.8871,3.9109,3.8454,3.7742,0.0,0.0,0.0,0.0,0.0,0.0,0.0,0.0,0.0,0.0,0.0,0.0,0.0,0.0,0.0,0.0,0.0,0.0,0.0,0.0,0.0,0.0,0.0,0.0,0.0,0.0,0.0,0.0,0.0,0.0,0.0,0.0,0.0,0.0,0.0,0.0,0.0,0.0,0.0,0.0,0.0,2.5519,2.6767,2.6939,2.7197,0.0,0.0,2.7996,2.7996,2.7996,2.7808,2.7286,0.0,0.0,0.0,0.0,0.0,0.0,0.0,0.0,0.0,0.0,0.0,0.0,0.0,0.0,0.0,0.0,0.0,0.0,0.0,0.0,0.0,0.0,0.0,0.0,0.0,0.0,0.0,0.0,0.0,0.0,0.0,0.0,0.0,0.0,0.0,0.0,0.0,0.0,0.0,0.0,0.0,0.0,0.0,0.0,0.0,0.0,0.0,0.0,0.0,0.0,0.0,0.0,0.0,3.3719,3.67,3.6836,3.7635,3.9149,3.9309,3.9412,3.9504,3.8833,3.8103,0.0,0.0,0.0,0.0,0.0,0.0,0.0,0.0,0.0,0.0,0.0,0.0,0.0,0.0,0.0,0.0,0.0,0.0,0.0,0.0,0.0,0.0,0.0,0.0,0.0,0.0,0.0,0.0,2.3682,2.3724,2.3347,0.0,0.0,0.0,0.0,0.0,0.0,0.0,0.0,0.0,0.0,2.6565,2.7369,2.7602,0.0,0.0,2.8109,2.8109,2.8109,2.8109,2.8089,2.7988,2.7703,0.0,0.0,0.0,0.0,0.0,0.0,0.0,0.0,0.0,0.0,0.0,0.0,0.0,0.0,0.0,0.0,0.0,0.0,0.0,0.0,0.0,0.0,0.0,0.0,0.0,0.0,0.0,0.0,0.0,0.0,0.0,0.0,0.0,0.0,0.0,0.0,0.0,0.0,0.0,0.0,0.0,0.0,0.0,0.0,0.0,0.0,0.0,0.0,0.0,0.0,0.0,0.0,3.4416,3.7182,3.7311,3.8074,3.9582,3.9707,3.9781,3.9803,3.9316,3.8698,0.0,0.0,0.0,0.0,0.0,0.0,0.0,0.0,0.0,0.0,0.0,0.0,0.0,0.0,0.0,0.0,0.0,0.0,0.0,0.0,0.0,0.0,0.0,0.0,0.0,0.0,0.0,0.0,2.4418,2.4493,2.4078,0.0,0.0,0.0,0.0,0.0,0.0,0.0,0.0,0.0,0.0,2.754,2.8057,2.8237,2.8423,2.8586,2.8655,2.8692,2.8704,2.8747,2.8777,2.874,0.0,0.0,0.0,0.0,0.0,0.0,0.0,0.0,0.0,0.0,0.0,0.0,0.0,0.0,0.0,0.0,0.0,0.0,0.0,0.0,0.0,0.0,0.0,0.0,0.0,0.0,0.0,0.0,0.0,0.0,2.6464,0.0,0.0,0.0,0.0,0.0,0.0,0.0,0.0,0.0,0.0,0.0,0.0,0.0,0.0,0.0,0.0,0.0,0.0,0.0,0.0,0.0,0.0,3.5269,3.7446,3.7526,3.8308,3.9821,3.9901,3.9961,4.0087,4.0066,3.9715,3.8959,0.0,0.0,0.0,0.0,0.0,0.0,0.0,0.0,0.0,0.0,0.0,0.0,0.0,0.0,0.0,0.0,0.0,0.0,0.0,0.0,0.0,0.0,0.0,0.0,0.0,0.0,2.4766,2.4788,2.48,0.0,0.0,0.0,0.0,0.0,0.0,0.0,0.0,0.0,0.0,2.7727,2.8279,2.8819,2.8875,2.9101,2.966,2.9909,3.0024,3.0018,3.019,3.0169,0.0,0.0,0.0,0.0,0.0,0.0,0.0,0.0,0.0,0.0,0.0,0.0,0.0,0.0,0.0,0.0,0.0,0.0,0.0,0.0,0.0,0.0,0.0,0.0,0.0,0.0,0.0,2.9966,2.9845,0.0,0.0,0.0,0.0,0.0,0.0,0.0,0.0,0.0,0.0,0.0,3.3211,3.3404,0.0,0.0,0.0,0.0,0.0,0.0,0.0,0.0,0.0,0.0,0.0,0.0,3.6152,3.7888,3.8506,3.9229,4.0133,4.0167,4.0155,4.0113,4.0113,3.9757,3.9034,0.0,0.0,0.0,0.0,0.0,0.0,0.0,0.0,0.0,0.0,0.0,0.0,0.0,0.0,0.0,0.0,0.0,0.0,0.0,0.0,0.0,0.0,0.0,0.0,0.0,2.5285,0.0,0.0,0.0,0.0,0.0,0.0,0.0,0.0,0.0,0.0,0.0,2.7361,2.8242,2.8518,2.8888,2.9606,2.9701,2.9821,0.0,0.0,0.0,0.0,0.0,0.0,0.0,0.0,0.0,0.0,0.0,0.0,0.0,0.0,3.0572,2.9326,2.8968,2.8926,2.9223,0.0,0.0,0.0,0.0,0.0,0.0,0.0,0.0,0.0,0.0,0.0,0.0,0.0,0.0,3.1639,0.0,3.1434,0.0,0.0,0.0,0.0,0.0,0.0,0.0,0.0,3.4405,3.4898,3.4797,3.5263,3.5504,0.0,3.5774,3.5741,0.0,0.0,0.0,0.0,0.0,0.0,0.0,0.0,3.705,3.8323,3.9088,3.9799,4.0402,4.0375,4.0325,4.0234,4.0201,3.9836,3.9083,3.8094,3.729,0.0,0.0,0.0,0.0,0.0,0.0,0.0,0.0,0.0,0.0,0.0,0.0,0.0,0.0,0.0,0.0,0.0,0.0,0.0,0.0,0.0,0.0,0.0,2.6084,0.0,0.0,0.0,0.0,0.0,0.0,0.0,0.0,0.0,2.6776,2.7465,2.8219,2.89,2.924,2.9618,3.0139,0.0,0.0,0.0,0.0,0.0,0.0,0.0,3.1347,3.1813,3.1604,3.154,3.1917,3.1987,3.1987,3.1987,0.0,0.0,3.0548,3.0131,3.0121,3.0489,3.0396,3.0449,3.0983,3.1385,3.1724,0.0,0.0,0.0,0.0,0.0,0.0,0.0,0.0,3.2046,3.1915,0.0,3.174,0.0,0.0,0.0,0.0,0.0,3.407,0.0,0.0,3.5873,3.6172,3.6203,3.7478,3.8149,3.8219,3.8872,3.9241,3.908,3.5916,0.0,0.0,0.0,0.0,0.0,0.0,3.7955,3.868,3.9359,4.0018,4.0674,4.0595,4.0534,4.048,4.0375,3.9982,3.9273,3.9061,3.834,3.6936,3.6684,0.0,0.0,0.0,0.0,0.0,0.0,0.0,0.0,0.0,0.0,0.0,0.0,0.0,0.0,0.0,0.0,0.0,0.0,0.0,0.0,2.6274,0.0,0.0,0.0,0.0,0.0,0.0,0.0,0.0,0.0,0.0,2.7445,2.8449,2.9225,2.9238,0.0,0.0,0.0,0.0,3.0755,3.0773,3.1235,3.1611,3.1629,3.1909,3.2182,3.2417,0.0,0.0,3.3269,3.3322,3.3308,3.3368,3.3396,3.3122,3.2413,3.1787,3.1498,3.1785,3.1491,3.1436,3.2275,3.2811,3.3173,3.4923,0.0,0.0,0.0,0.0,3.4934,3.5326,3.5656,3.5391,3.5204,3.5093,3.4958,0.0,0.0,0.0,0.0,0.0,0.0,3.6308,3.6397,3.7604,3.8124,3.8103,3.9006,3.9465,3.9465,3.9678,3.9803,3.9749,3.8809,3.8133,3.7821,0.0,0.0,0.0,0.0,3.9748,3.9992,4.0665,4.104,4.1059,4.1013,4.0872,4.066,4.06,4.0417,3.9999,3.9452,3.8916,3.8386,3.7236,0.0,0.0,0.0,0.0,0.0,0.0,0.0,0.0,0.0,0.0,0.0,0.0,0.0,0.0,0.0,0.0,0.0,0.0,0.0,2.6316,2.6433,2.6487,0.0,0.0,0.0,0.0,0.0,0.0,0.0,0.0,0.0,2.9085,2.9268,2.957,0.0,0.0,3.0723,3.1011,3.1216,3.144,3.1666,3.1964,0.0,3.2381,3.2565,3.2899,3.3339,3.3701,3.3974,3.4059,3.4077,3.4255,3.4686,3.4805,3.4864,3.5046,3.3825,3.2937,3.3141,3.3086,3.334,3.4289,3.4706,3.4988,3.665,3.573,3.5666,3.5882,3.631,3.6614,3.6881,3.7092,3.6845,3.6672,3.6532,3.6433,3.6384,3.6366,3.6255,0.0,0.0,0.0,3.7459,3.7935,3.8792,3.9346,3.9644,4.0335,4.0675,4.0693,4.0981,4.1142,4.1142,4.116,4.1027,4.0706,0.0,0.0,3.9603,4.0343,4.0749,4.0757,4.1446,4.1729,4.1569,4.1452,4.1266,4.0989,4.093,4.077,4.0534,4.0015,3.9513,3.9091,3.8106,3.7119,0.0,0.0,0.0,0.0,0.0,0.0,0.0,0.0,0.0,0.0,0.0,2.9259,0.0,0.0,0.0,0.0,2.7366,2.7306,2.7243,2.7188,0.0,0.0,0.0,0.0,0.0,0.0,0.0,2.9202,2.9543,2.9945,3.0443,3.0482,3.0539,3.0727,3.1005,3.1299,3.1574,0.0,3.2146,3.2403,3.2739,3.2988,3.3129,3.3374,3.3772,3.441,3.5012,3.5378,3.5395,3.5395,3.5541,3.588,3.5982,3.6114,3.6526,3.556,3.4757,3.4883,3.49,3.5181,3.5854,3.6104,3.6359,3.8252,3.8306,3.8222,3.8078,3.7887,3.7689,3.7495,3.7297,3.7106,3.6911,3.6798,3.6719,3.6696,3.6689,3.6625,0.0,3.742,3.75,3.8303,3.9629,3.97,4.0113,4.0831,4.1515,4.1823,4.1832,4.2575,4.2938,4.292,4.2902,4.2938,4.2874,4.1134,4.0252,4.0269,4.0901,4.1249,4.1249,4.1844,4.2166,4.2135,4.1888,4.1633,4.1448,4.1312,4.1157,4.0906,4.0667,4.0153,3.9336,3.9108,3.8586,3.7626,0.0,0.0,0.0,0.0,0.0,0.0,0.0,0.0,0.0,0.0,0.0,0.0,0.0,0.0,0.0,2.8983,0.0,2.843,2.8261,0.0,0.0,0.0,2.856,2.879,2.8859,2.9228,3.0134,0.0,0.0,3.1547,3.1835,3.184,3.1463,3.1735,3.2036,3.2146,3.2543,3.2881,3.3076,3.3574,3.3928,3.3999,3.4366,3.492,3.5619,3.6384,3.6832,3.6864,3.6862,3.6923,3.7012,3.7027,3.7086,3.7101,3.711,3.7016,3.684,3.6673,3.6696,3.6977,3.7164,3.7312,3.9445,3.9994,4.0003,3.9523,3.8795,3.8631,3.88,3.9143,3.8902,3.8667,3.8498,3.844,3.8369,3.8319,3.8316,3.8379,3.8553,3.9161,3.9594,3.9987,4.1117,4.1701,4.188,4.2522,4.2832,4.285,4.3042,4.3123,4.3123,4.3123,4.3123,4.3096,4.2659,4.2349,4.2226,4.2388,4.246,4.246,4.2629,4.264,4.249,4.2269,4.204,4.1795,4.1697,4.1442,4.1006,4.0871,4.0575,4.0045,3.9469,3.8896,3.8363,3.7482,0.0,0.0,0.0,0.0,0.0,0.0,0.0,0.0,0.0,3.1013,3.1372,0.0,3.0477,0.0,2.9692,2.9007,2.8672,2.8569,0.0,0.0,2.8988,2.9373,2.9725,3.0165,3.0713,3.1393,3.1474,3.1661,3.2146,3.2395,3.2538,3.2579,3.2543,3.2561,3.2757,3.3203,3.3615,3.3879,3.46,3.5165,3.5228,3.5962,3.6574,3.6771,3.7074,3.7284,3.7282,3.7267,3.7431,3.7911,3.803,3.8224,3.8668,3.8803,3.8788,3.8674,3.7839,3.7273,3.7891,3.8083,3.8264,4.0243,4.0644,4.0626,4.0269,3.9717,3.9554,3.9631,3.9818,3.9623,3.942,3.9219,3.9181,3.9113,3.9061,3.9439,3.9551,3.9553,4.0337,4.0891,4.1193,4.2048,4.2563,4.2829,4.3199,4.3357,4.333,4.3357,4.3375,4.3383,4.3445,4.3445,4.3375,4.3393,4.3313,4.316,4.3069,4.3031,4.3031,4.3041,4.2957,4.2832,4.265,4.2444,4.221,4.2072,4.1816,4.1386,4.1146,4.0871,4.0485,3.9975,3.9545,3.9189,3.8283,3.7342,0.0,0.0,0.0,0.0,0.0,0.0,0.0,0.0,0.0,0.0,0.0,3.1256,3.1096,3.045,2.9973,2.974,2.9648,2.9612,2.9722,3.0067,3.0453,3.0857,3.1198,3.1601,3.2064,3.2191,3.2372,3.2632,3.2931,3.3255,3.3617,3.3801,3.3907,3.3974,3.4271,3.4715,3.5281,3.591,3.6338,3.6392,3.7144,3.7747,3.7762,3.8038,3.8285,3.8285,3.8285,3.8437,3.8766,3.8856,3.8943,3.9349,3.9679,3.984,3.978,3.9457,3.9065,3.8868,3.8823,3.8973,4.0709,4.0687,4.0633,4.0561,4.0504,4.0308,4.0124,3.993,3.9779,3.9686,3.9583,3.9569,3.9578,3.9624,4.0332,4.0591,4.0492,4.1297,4.2023,4.2614,4.2752,4.3086,4.3615,4.3634,4.36,4.354,4.36,4.3615,4.3642,4.3736,4.3736,4.3615,4.3615,4.36,4.354,4.3339,4.326,4.3232,4.3214,4.3187,4.3141,4.3003,4.2834,4.2631,4.2412,4.2163,4.1823,4.1442,4.1059,4.0745,4.0466,4.0218,3.9922,3.9062,3.8327,0.0,3.6529,0.0,0.0,0.0,0.0,0.0,0.0,0.0,0.0,3.2493,3.2021,3.1566,3.1294,3.1155,3.1118,3.093,3.0905,3.1099,3.1286,3.1514,3.1908,3.1968,3.2132,3.2485,3.2686,3.2895,3.3219,3.355,3.4015,3.4644,3.5161,3.5479,3.5537,3.5598,3.5924,3.6827,3.7181,3.7394,3.7662,3.8135,3.8527,3.8586,3.8928,3.9391,3.9331,3.9436,3.9511,3.9541,3.9616,3.969,3.966,4.0157,4.0502,4.0531,4.0861,4.0846,3.9993,3.9723,3.966,4.0801,4.0716,4.0675,4.0617,4.0492,4.0465,4.0323,4.0128,3.9943,4.0149,4.0603,4.0566,4.0878,4.1477,4.158,4.1622,4.1625,4.2366,4.2716,4.2789,4.3427,4.3741,4.3761,4.3771,4.3744,4.3754,4.3763,4.3771,4.3771,4.3788,4.3796,4.3753,4.3771,4.3753,4.3746,0.0,0.0,0.0,4.3394,4.3368,4.3341,4.3151,4.3002,4.2843,4.2552,0.0,4.1874,4.1553,4.1221,4.0888,4.0607,0.0,0.0,0.0,0.0,0.0,0.0,0.0,0.0,0.0,0.0,0.0,3.4251,3.3985,3.3785,3.348,3.3107,3.2701,3.2232,3.1908,3.1743,3.1553,3.1516,3.1706,3.1748,3.1932,3.225,3.2435,3.27,3.31,3.3312,3.3688,3.4324,3.4663,3.5101,3.5833,3.6198,3.6714,3.7467,3.7118,3.6951,3.7171,3.7757,3.8387,3.8943,3.9107,3.9197,3.9242,3.9272,3.9436,3.9496,3.9918,4.0217,4.0214,4.0651,4.0999,4.0999,4.1134,4.1209,4.1224,4.1328,4.1328,4.1074,4.1029,4.1029,4.2149,4.207,4.2005,4.1937,0.0,4.1828,4.173,4.1607,4.0964,4.1073,4.1674,4.1609,4.1806,4.2178,4.2555,4.271,4.2695,4.3429,4.3706,4.3606,4.399,4.4097,4.3961,4.3953,4.3929,4.3897,4.3937,4.3934,4.3961,4.4,4.4,4.3953,4.3913,4.3873,4.3861,4.3674,4.3583,4.3488,4.3463,4.3464,4.3437,4.3332,4.3187,4.3041,4.2787,0.0,0.0,0.0,0.0,0.0,0.0,0.0,0.0,3.9884,0.0,3.855,3.7931,3.7169,3.6217,3.564,3.534,3.5348,3.5046,3.4692,3.435,3.4054,3.3646,3.3192,3.2717,3.2372,3.216,3.2046,3.2028,3.2137,3.2318,3.2538,3.2807,3.3033,3.3276,3.3599,3.4136,3.4646,3.5038,3.5633,3.6263,3.6965,3.726,3.7692,3.8388,3.8085,3.7808,3.8206,3.8575,3.9002,3.9331,3.972,3.9885,3.99,4.0172,4.0367,4.0382,4.0651,4.0909,4.0905,4.1179,4.1403,4.1418,4.1658,4.1886,4.1927,4.2117,4.2327,4.2312,4.1833,4.1403,4.352,4.3484,4.3363,4.3324,4.3328,4.319,4.3208,4.3256,0.0,0.0,0.0,4.2693,4.2712,4.285,4.3533,4.38,4.373,4.4351,4.4572,4.4454,4.4458,4.4335,4.4177,4.417,4.4158,4.409,4.414,4.4177,4.417,4.4281,4.4274,4.4155,4.4105,4.4013,4.3921,4.3749,4.3615,4.3513,4.3515,4.3488,4.3488,4.3429,4.3331,4.3214,4.3003,4.2729,4.2422,4.2075,4.169,4.1255,4.0894,4.0576,4.0317,3.9922,3.9543,3.9152,3.8523,3.7943,3.7432,3.6877,3.6352,3.5974,3.5508,3.5098,3.4765,3.438,3.3957,3.3486,3.309,3.2793,3.2614,3.2579,3.2579,3.2614,3.2899,3.3178,3.3396,3.3591,3.3839,3.4189,3.4917,3.5595,3.5875,3.6576,3.7329,3.794,3.8228,3.8552,3.8966,3.8716,3.8641,3.9146,3.9406,3.9586,3.9675,4.0172,4.0546,4.0576,4.1014,4.1388,4.1418,4.1493,4.1568,4.1583,4.1643,4.1792,4.1822,4.2211,4.2541,4.2556,4.294,4.3305,4.3215,4.2472,4.1818,4.3574,4.348,4.3481,4.3449,4.3363,4.3308,4.3641,4.412,4.3079,4.3048,4.3781,4.3704,4.4092,4.478,4.4805,4.4785,4.4786,4.4764,4.4719,4.4666,4.4599,4.4524,4.444,4.444,4.4433,4.4426,4.4433,4.444,4.444,4.4466,4.4426,4.4387,4.4354,4.4218,4.4005,4.3958,4.3812,4.359,4.3522,4.3488,4.3488,4.3429,4.3313,4.3205,4.3013,4.2739,4.2422,4.2075,4.1723,4.1374,4.0947,4.0558,4.0305,3.9922,3.9491,3.9064,3.86,3.8076,3.7447,3.6952,3.6399,3.5815,3.5572,3.5294,3.4902,3.4551,3.4261,3.3991,3.3678,3.3452,3.3434,3.3248,3.3231,3.3399,3.3483,3.3588,3.381,3.4117,3.4527,3.5073,3.5544,3.634,3.7255,3.7632,3.8064,3.8705,3.8959,3.9088,3.9301,3.9295,3.9269,3.9451,3.9885,4.0202,4.0337,4.0816,4.1209,4.1254,4.1373,4.1568,4.1568,4.1942,4.2226,4.2261,4.2596,4.2891,4.2951,4.31,4.313,4.3115,4.3235,4.3305,4.3305,4.3085,4.2961,4.4999,4.4945,4.4919,4.4871,4.4797,4.4734,4.4868,4.5101,4.4645,4.457,4.4806,4.4728,4.4937,4.5288,4.5254,4.5175,4.5114,4.5051,4.4955,4.4858,4.4821,4.4789,4.4731,4.4725,4.4725,4.4706,4.4706,4.4725,4.4706,4.4685,4.4634,4.4619,4.451,4.4376,4.4211,4.4074,4.395,4.3822,4.3641,4.3549,4.3488,4.3463,4.3375,4.3196,4.3077,4.2852,4.2512,4.2187,4.1842,4.1526,4.1059,4.066,4.0317,3.9922,3.9491,3.9023,3.863,3.8121,3.7447,3.6723,3.6179,3.5894,3.5636,3.539,3.5082,3.4902,3.4683,3.4298,3.4108,3.3951,3.3779,3.3678,3.3695,3.3854,3.3971,3.4108,3.4353,3.4867,3.5314,3.5717,3.6559,3.7383,3.8009,3.8448,3.8784,3.9232,3.9536,3.9808,3.996,4.0247,4.0352,4.0098,4.0502,4.0876,4.0984,4.1508,4.1882,4.1946,4.2222,4.2382,4.2447,4.2731,4.2851,4.2895,4.3145,4.3275,4.3319,4.3305,4.3305,4.3305,4.3305,4.3305,4.3319,4.3544,4.3713,4.6203,4.6217,4.6152,4.6063,4.6024,4.5949,4.5893,4.5857,4.5812,4.5743,4.5597,4.5494,4.5448,4.5438,4.5429,4.535,4.5243,4.5265,4.5186,4.5078,4.5068,4.5033,4.4961,4.4949,4.4937,4.4937,4.4956,4.4956,4.4931,4.4902,4.484,4.4796,4.4619,4.4482,4.44,4.4192,4.4044,4.3989,4.3765,4.3609,4.3513,4.3523,4.3401,4.3205,4.3132,4.2936,4.2609,4.2279,4.1934,4.1615,4.1152,4.0716,4.0317,3.9922,3.9507,3.9053,3.863,3.8076,3.7344,3.6569,3.6084,3.6005,3.5717,3.5473,3.5294,3.5262,3.5063,3.4599,3.4515,3.4397,3.4208,3.4125,3.4174,3.4281,3.4431,3.4638,3.4951,3.5594,3.6123,3.6468,3.753,3.8245,3.8549,3.9006,3.9418,3.9657,4.0083,4.0412,4.0636,4.1194,4.1343,4.113,4.1313,4.1598,4.1658,4.2167,4.2541,4.2601,4.2955,4.313,4.322,4.326,4.329,4.326,4.3275,4.3394,4.3484,4.3544,4.3653,4.3818,4.3908,4.3848,4.3908,4.4192,4.4392,4.6277,4.6288,4.6221,4.6138,4.6076,4.6002,4.5992,4.5958,4.5919,4.5902,4.583,4.5673,4.5578,4.5568,4.5508,4.5457,4.5381,4.5375,4.5364,4.5357,4.5249,4.5175,4.5164,4.5101,4.5072,4.5091,4.5078,4.5084,4.5091,4.508,4.5022,4.4896,4.4692,4.457,4.4468,4.4332,4.4177,4.4005,4.3859,4.3719,4.359,4.354,4.341,4.3214,4.3132,4.2936,4.2609,4.2279,4.1945,4.1587,4.1152,4.0721,4.0313,3.9922,3.9478,3.9023,3.86,3.8006,3.7136,3.6662,3.632,3.6021,3.5799,3.5605,3.5488,3.5472,3.5294,3.4966,3.4852,3.4804,3.4802,3.4785,3.4752,3.4783,3.4863,3.5089,3.5672,3.6016,3.6639,3.7877,3.8194,3.8614,3.9086,3.9373,3.9675,4.0157,4.0457,4.0819,4.1268,4.1867,4.2271,4.2182,4.2291,4.2306,4.2381,4.2821,4.307,4.3175,4.323,4.3305,4.3305,4.3305,4.3319,4.3469,4.3379,4.3594,4.4027,4.4222,4.4436,4.4706,4.487,4.5035,4.5095,4.5155,4.514,4.6297,4.6299,4.6282,4.6222,4.6142,4.6098,4.6066,4.6046,4.6022,4.6014,4.5956,4.588,4.5778,4.573,4.5643,4.5584,4.5513,4.5533,4.5472,4.5414,4.5326,4.5325,4.5306,4.5305,4.5276,4.5276,4.5276,4.5255,4.5262,4.5211,4.5078,4.4974,4.4827,4.4712,4.4619,4.4475,4.4332,4.4195,4.4008,4.3849,4.3728,4.3556,4.3401,4.3214,4.3059,4.2871,4.2599,4.2243,4.1905,4.1593,4.1152,4.0721,4.0317,3.9922,3.9478,3.901,3.8377,3.77,3.7045,3.6693,3.6352,3.6037,3.5815,3.5638,3.5506,3.5489,3.5423,3.5279,3.5133,3.5034,3.4935,3.4918,3.4951,3.511,3.5424,3.5829,3.6214,3.6982,3.7764,3.8274,3.873,3.908,3.9391,3.975,4.0083,4.0487,4.098,4.1643,4.1987,4.2541,4.2895,4.294,4.294,4.2925,4.294,4.31,4.3275,4.3305,4.3305,4.3305,4.3319,4.3305,4.3394,4.3803,4.3878,4.4147,4.4781,4.487,4.502,4.5334,4.5334,4.5415,4.5813,4.5903,4.6022,4.6306,4.6294,4.6305,4.6261,4.6198,4.6155,4.6125,4.613,4.6104,4.6076,4.6033,4.6025,4.5968,4.5847,4.5776,4.57,4.5654,4.5633,4.5566,4.549,4.5452,4.5438,4.5429,4.5415,4.5405,4.5405,4.54,4.5414,4.5379,4.5291,4.517,4.5068,4.4943,4.4833,4.4731,4.4572,4.4437,4.43,4.409,4.3937,4.3786,4.3617,4.3418,4.3224,4.3031,4.2861,4.2591,4.2233,4.1884,4.1604,4.1192,4.0752,4.0362,3.9973,3.9507,3.8914,3.8191,3.7553,3.709,3.6785,3.6476,3.61,3.5894,3.5734,3.5588,3.5506,3.5489,3.5472,3.5359,3.5213,3.5098,3.5065,3.519,3.553,3.6025,3.6434,3.7013,3.7916,3.8437,3.8676,3.9077,3.9481,3.969,4.0098,4.0472,4.1044,4.1777,4.25,4.2646,4.2995,4.3275,4.3305,4.329,4.3275,4.3305,4.329,4.3305,4.3364,4.3394,4.3638,4.3604,4.3698,4.3908,4.4521,4.4571,4.4805,4.5373,4.5559,4.5678,4.5798,4.5858,4.5978,4.6465,4.6555,4.6749,4.6289,4.6288,4.6293,4.6255,4.6203,4.6196,4.6211,4.619,4.6135,4.6093,4.6108,4.6088,4.6061,4.5997,4.5845,4.5798,4.5792,4.5719,4.5695,4.5661,4.5603,4.5564,4.5495,4.5429,4.541,4.5419,4.5424,4.5429,4.5394,4.5328,4.5265,4.5181,4.4997,4.4864,4.477,4.4605,4.4426,4.4307,4.4131,4.3945,4.3794,4.3667,4.347,4.3233,4.3132,4.2927,4.2609,4.2287,4.1934,4.1615,4.1261,4.0917,4.051,4.0087,3.9491,3.8692,3.8177,3.7685,3.727,3.7029,3.6739,3.6289,3.6053,3.5894,3.5672,3.5555,3.5489,3.5489,3.5473,3.5455,3.5514,3.5511,3.5738,3.6264,3.6445,3.709,3.8108,3.832,3.8691,3.9152,3.9406,3.969,4.0247,4.0382,4.1059,4.1822,4.2351,4.2601,4.304,4.3245,4.329,4.3305,4.3305,4.3305,4.3319,4.3454,4.3424,4.3529,4.3908,4.4252,4.4481,4.4706,4.499,4.5229,4.5244,4.5514,4.6016,4.6345,4.6561,4.6711,4.686,4.707,4.6973,4.7174,4.7279,4.6304,4.6289,4.6302,4.6289,4.6256,4.6267,4.6233,4.6212,4.6165,4.6167,4.616,4.617,4.6128,4.6047,4.5956,4.5883,4.5809,4.5791,4.575,4.5703,4.5678,4.5648,4.5627,4.5564,4.5522,4.5522,4.5522,4.5514,4.5458,4.5404,4.5347,4.524,4.5108,4.4967,4.4852,4.4693,4.4544,4.4368,4.4244,4.4055,4.381,4.3744,4.3576,4.3233,4.3132,4.2936,4.2619,4.2287,4.1977,4.1736,4.1347,4.0964,4.0595,4.0003,3.9335,3.8667,3.826,3.7813,3.7388,3.7119,3.6831,3.6445,3.6147,3.5926,3.5735,3.5572,3.5489,3.5489,3.5489,3.5639,3.6043,3.6133,3.6222,3.6538,3.7242,3.7856,3.835,3.8766,3.9155,3.9424,3.9735,4.0157,4.0516,4.1134,4.1856,4.2321,4.272,4.3025,4.322,4.3305,4.3305,4.3305,4.3305,4.3454,4.3938,4.3953,4.3997,4.4147,4.4416,4.4796,4.508,4.5185,4.5409,4.5852,4.5927,4.6142,4.6614,4.6809,4.707,4.7115,4.7309,4.7309,4.7309,4.7309,4.7309,4.6297,4.6289,4.6288,4.6301,4.6293,4.629,4.6278,4.6221,4.622,4.6224,4.62,4.6196,4.6176,4.6119,4.6084,4.5991,4.5858,4.586,4.5789,4.5746,4.5723,4.573,4.5697,4.5667,4.5627,4.5594,4.5594,4.5568,4.5499,4.5434,4.5384,4.5323,4.5197,4.5074,4.4925,4.4789,4.4639,4.4454,4.4351,4.4142,4.3859,4.3812,4.3627,4.3304,4.3187,4.2965,4.2619,4.2328,4.204,4.1791,4.1387,4.0971,4.0551,3.9871,3.9272,3.8764,3.8401,3.7988,3.7551,3.7225,3.6923,3.66,3.621,3.5941,3.5784,3.562,3.5506,3.5489,3.5504,3.5774,3.6342,3.6656,3.6866,3.7137,3.7901,3.8514,3.8706,3.9125,3.9469,3.9735,4.0098,4.0516,4.1044,4.1841,4.2396,4.2646,4.3055,4.3275,4.3305,4.3305,4.3409,4.3559,4.3668,4.3982,4.4521,4.4835,4.4766,4.487,4.5164,4.5484,4.5663,4.5738,4.5963,4.6405,4.6689,4.6869,4.707,4.7249,4.7309,4.7309,4.7309,4.7309,4.7309,4.7309,4.7309,4.6295,4.6306,4.6289,4.6289,4.6306,4.6303,4.6295,4.6302,4.6301,4.625,4.6209,4.6207,4.621,4.6183,4.6169,4.6128,4.5999,4.5934,4.5864,4.58,4.5799,4.5743,4.5709,4.5678,4.5652,4.5594,4.5594,4.5568,4.5508,4.5453,4.54,4.5374,4.5256,4.5136,4.4997,4.4852,4.4699,4.451,4.4373,4.418,4.3921,4.3845,4.3679,4.3402,4.326,4.3031,4.2639,4.2409,4.2153,4.1812,4.1431,4.0919,4.0362,3.9824,3.9349,3.8999,3.86,3.8178,3.773,3.7389,3.7028,3.6723,3.6273,3.599,3.5941,3.5701,3.5506,3.5489,3.5594,3.5848,3.6507,3.7075,3.7629,3.8245,3.8439,3.8751,3.9167,3.9391,3.9645,4.0202,4.0516,4.0995,4.1961,4.244,4.2705,4.307,4.3245,4.3305,4.3334,4.3379,4.3633,4.4057,4.4282,4.4551,4.5214,4.5783,4.5648,4.5618,4.5971,4.63,4.6411,4.6501,4.6651,4.6988,4.6988,4.716,4.716,4.7309,4.7309,4.7309,4.7309,4.7309,4.7309,4.7309,4.7309,4.6306,4.6294,4.6305,4.6289,4.6289,4.6287,4.6303,4.6297,4.6297,4.6289,4.6274,4.6272,4.6238,4.6213,4.6209,4.6158,4.6054,4.5999,4.592,4.587,4.5823,4.5765,4.5696,4.5694,4.5657,4.5618,4.5594,4.5586,4.5544,4.5518,4.5453,4.539,4.5309,4.5197,4.5068,4.4889,4.4725,4.4565,4.4394,4.4184,4.3974,4.3851,4.3678,4.3471,4.3277,4.3068,4.2815,4.2532,4.2236,4.1945,4.1542,4.1018,4.0387,3.9961,3.9534,3.9067,3.8708,3.8333,3.789,3.7463,3.7134,3.6862,3.6414,3.6116,3.6005,3.5767,3.5604,3.558,3.5908,3.6447,3.7075,3.7704,3.8153,3.838,3.8811,3.914,3.9436,3.9795,4.0142,4.0457,4.1209,4.1931,4.2351,4.2676,4.3055,4.3235,4.3305,4.3305,4.3364,4.3693,4.3997,4.4282,4.4655,4.5209,4.5852,4.6271,4.6277,4.6277,4.6606,4.6764,4.692,4.7025,4.7219,4.7309,4.7309,4.7309,4.7309,4.7309,4.7309,4.7309,4.7309,4.7309,4.7309,4.7309,4.7309,4.6271,4.6302,4.6301,4.6287,4.6289,4.6289,4.6287,4.6304,4.6304,4.63,4.6291,4.6306,4.6278,4.6239,4.6212,4.6165,4.6117,4.6058,4.6011,4.5934,4.587,4.5805,4.5746,4.573,4.5676,4.5618,4.5594,4.5594,4.559,4.5522,4.5457,4.5395,4.5341,4.5246,4.5108,4.4943,4.4796,4.4639,4.4451,4.4225,4.4051,4.3891,4.3729,4.3522,4.3313,4.3123,4.2975,4.265,4.2338,4.2012,4.1577,4.0989,4.0412,4.0079,3.9694,3.9255,3.8846,3.8472,3.8003,3.7626,3.7255,3.6999,3.6569,3.6226,3.6021,3.5831,3.5699,3.5943,3.6222,3.6868,3.7644,3.8108,3.8467,3.8766,3.9107,3.9496,3.9735,4.0142,4.07,4.1149,4.1882,4.2391,4.2761,4.2985,4.329,4.3305,4.3305,4.3469,4.3638,4.4027,4.4386,4.4835,4.5403,4.5956,4.651,4.6749,4.6854,4.6958,4.7145,4.716,4.7189,4.7204,4.7309,4.7309,4.7309,4.7309,4.7309,4.7309,4.7309,4.7309,4.7309,4.7309,4.7309,4.7309,4.7309,4.6228,4.63,4.6296,4.6303,4.6287,4.6289,4.6289,4.6288,4.6287,4.6305,4.6301,4.6296,4.629,4.6278,4.6238,4.6191,4.6197,4.6136,4.6044,4.598,4.5928,4.584,4.5773,4.5714,4.5661,4.5599,4.5594,4.5594,4.559,4.555,4.5476,4.5405,4.539,4.5302,4.5131,4.502,4.4883,4.468,4.4496,4.4292,4.4136,4.3897,4.3763,4.3599,4.3339,4.316,4.3068,4.2746,4.2402,4.2069,4.1477,4.0959,4.0534,4.0155,3.9824,3.9471,3.9053,3.8597,3.8173,3.7816,3.7465,3.703,3.6693,3.6367,3.6053,3.5878,3.5926,3.6315,3.6553,3.7075,3.8033,3.8482,3.8781,3.9257,3.9361,3.966,4.0277,4.0427,4.1029,4.1957,4.2425,4.2631,4.316,4.326,4.329,4.3319,4.3364,4.3728,4.4087,4.4506,4.5074,4.5583,4.6061,4.648,4.6943,4.6988,4.7078,4.7123,4.7309,4.7309,4.7309,4.7309,4.7309,4.7309,4.7309,4.7309,4.7309,4.7309,4.7309,4.7309,4.7309,4.7309,4.7309,4.7309,4.7309,4.6207,4.6239,4.628,4.6295,4.6303,4.6306,4.6289,4.6289,4.6289,4.6288,4.6305,4.6302,4.6296,4.6289,4.6271,4.6246,4.6196,4.6138,4.6067,4.5999,4.5932,4.5827,4.5758,4.5706,4.5657,4.5599,4.5594,4.5594,4.5594,4.5577,4.5508,4.541,4.541,4.53,4.5112,4.5045,4.4889,4.4693,4.4503,4.4347,4.4233,4.3966,4.3796,4.3719,4.3402,4.3196,4.3123,4.2709,4.2269,4.1899,4.1442,4.1006,4.0655,4.0355,3.9977,3.9537,3.9148,3.8708,3.8201,3.7858,3.7479,3.7045,3.68,3.6476,3.6052,3.5957,3.6113,3.6487,3.6866,3.7494,3.8287,3.8841,3.9182,3.9346,3.9436,3.9738,4.0352,4.0861,4.1493,4.2241,4.2776,4.3085,4.3235,4.3305,4.3319,4.3414,4.3698,4.4132,4.4551,4.5179,4.5822,4.6151,4.657,4.695,4.7219,4.7264,4.7279,4.7264,4.7309,4.7309,4.7309,4.7309,4.7309,4.7309,4.7309,4.7309,4.7309,4.7309,4.7309,4.7309,4.7309,4.7309,4.7309,4.7309,4.7309,4.6174,4.6209,4.6273,4.6291,4.6302,4.6305,4.6288,4.6289,4.6289,4.6289,4.6288,4.6304,4.63,4.6296,4.6296,4.6275,4.6192,4.6112,4.6085,4.6032,4.5933,4.5815,4.5735,4.568,4.5658,4.5618,4.5594,4.5594,4.5594,4.5594,4.5517,4.5424,4.5405,4.531,4.512,4.5049,4.4919,4.4725,4.453,4.439,4.4285,4.3982,4.382,4.3719,4.3445,4.3242,4.3041,4.2632,4.22,4.1834,4.1464,4.1111,4.0733,4.0453,4.0092,3.9599,3.9212,3.8775,3.8357,3.799,3.7567,3.7165,3.6907,3.6538,3.6208,3.6232,3.654,3.6888,3.7451,3.8093,3.8706,3.9182,3.9376,3.9451,3.9645,4.0083,4.0741,4.1433,4.2077,4.2656,4.307,4.3305,4.3305,4.3305,4.3454,4.3698,4.4012,4.4566,4.5164,4.5882,4.645,4.6704,4.6869,4.7145,4.7279,4.7294,4.7309,4.7309,4.7309,4.7309,4.7309,4.7309,4.7309,4.7309,4.7309,4.7309,4.7309,4.7309,4.7309,4.7309,4.7309,4.7309,4.7309,4.7309,4.7309,4.6144,4.621,4.6272,4.629,4.6301,4.6305,4.6288,4.6289,4.6289,4.6289,4.6289,4.6305,4.6302,4.6301,4.6302,4.6262,4.6205,4.6139,4.6091,4.6035,4.5953,4.5815,4.57,4.568,4.5651,4.5607,4.5594,4.5594,4.5594,4.5594,4.5522,4.5448,4.5405,4.531,4.5164,4.5103,4.4949,4.4725,4.4585,4.4444,4.4278,4.3995,4.3829,4.3754,4.349,4.3205,4.2929,4.2601,4.2249,4.1845,4.156,4.1186,4.0764,4.0502,4.0138,3.9725,3.9305,3.8884,3.8553,3.8134,3.7685,3.727,3.7059,3.6708,3.6317,3.6552,3.7009,3.7325,3.802,3.8586,3.9152,3.9391,3.9496,3.966,4.0127,4.0771,4.1418,4.2017,4.2631,4.3205,4.329,4.3305,4.3305,4.3349,4.3534,4.3997,4.4386,4.4999,4.5627,4.63,4.6779,4.7115,4.7204,4.7264,4.7309,4.7309,4.7309,4.7309,4.7309,4.7309,4.7309,4.7309,4.7309,4.7309,4.7309,4.7309,4.7309,4.7309,4.7309,4.7309,4.7309,4.7309,4.7309,4.7309,4.7309,4.6144,4.6209,4.6263,4.6304,4.6301,4.6303,4.6306,4.6289,4.6289,4.6289,4.6289,4.6288,4.6305,4.6301,4.6291,4.6256,4.6206,4.6185,4.6102,4.593,4.5913,4.5811,4.5715,4.5684,4.566,4.5612,4.5594,4.5594,4.5594,4.5586,4.5522,4.5419,4.5395,4.5316,4.5197,4.512,4.4985,4.4783,4.4646,4.4468,4.4292,4.4042,4.3851,4.3771,4.3428,4.3169,4.2937,4.2679,4.2381,4.203,4.1631,4.129,4.0982,4.0631,4.0275,3.9858,3.9425,3.9007,3.8625,3.816,3.7683,3.7299,3.7075,3.677,3.6288,3.6706,3.721,3.7611,3.8105,3.8736,3.9287,3.9406,3.9631,4.0083,4.0696,4.1388,4.2021,4.2321,4.272,4.3115,4.3305,4.3305,4.3305,4.3349,4.3683,4.4222,4.482,4.5418,4.6061,4.6756,4.7025,4.7309,4.7309,4.7309,4.7309,4.7309,4.7309,4.7309,4.7309,4.7309,4.7309,4.7309,4.7309,4.7309,4.7309,4.7309,4.7309,4.7309,4.7309,4.7309,4.7309,4.7309,4.7309,4.7309,4.7309,4.6144,4.6207,4.626,4.6302,4.6301,4.6302,4.6306,4.6289,4.6289,4.6289,4.6289,4.6287,4.6304,4.6301,4.6293,4.6255,4.6203,4.6157,4.6051,4.5922,4.5886,4.5834,4.5715,4.568,4.5664,4.5607,4.5594,4.5594,4.5594,4.5586,4.5527,4.5415,4.5405,4.5336,4.5213,4.5136,4.4985,4.4802,4.4666,4.4496,4.43,4.4078,4.3857,4.3676,4.3393,4.3133,4.3059,4.2747,4.249,4.2166,4.1795,4.1432,4.1099,4.0769,4.0392,3.9922,3.956,3.9145,3.8722,3.8244,3.7844,3.7449,3.7181,3.6785,3.6659,3.7,3.7437,3.7828,3.8395,3.9047,3.9361,3.9406,3.9735,4.0337,4.1014,4.1673,4.2276,4.2631,4.291,4.3235,4.3305,4.3305,4.3319,4.3519,4.4102,4.4781,4.5403,4.5986,4.6546,4.71,4.7145,4.7309,4.7309,4.7309,4.7309,4.7309,4.7309,4.7309,4.7309,4.7309,4.7309,4.7309,4.7309,4.7309,4.7309,4.7309,4.7309,4.7309,4.7309,4.7309,4.7309,4.7309,4.7309,4.7309,4.7309,4.6148,4.6209,4.6264,4.6305,4.6301,4.6302,4.6306,4.6289,4.6289,4.6289,4.6289,4.6305,4.6303,4.63,4.6291,4.6252,4.6194,4.6137,4.6025,4.5904,4.5892,4.5827,4.5719,4.5677,4.566,4.5603,4.5594,4.5594,4.5594,4.5586,4.5531,4.5434,4.5405,4.5356,4.5246,4.5136,4.5003,4.4846,4.468,4.451,4.4322,4.4097,4.3884,4.3607,4.3366,4.3214,4.3105,4.2815,4.252,4.2318,4.1995,4.1611,4.1221,4.0846,4.0502,3.9973,3.9668,3.9285,3.8846,3.8385,3.7974,3.7731,3.7271,3.697,3.6939,3.7369,3.7804,3.8222,3.8742,3.9316,3.9406,3.9601,3.9948,4.055,4.1179,4.1807,4.2436,4.3015,4.3235,4.3275,4.3319,4.3334,4.3638,4.3923,4.4646,4.5319,4.5948,4.6495,4.7025,4.7309,4.7309,4.7309,4.7309,4.7309,4.7309,4.7309,4.7309,4.7309,4.7309,4.7309,4.7309,4.7309,4.7309,4.7309,4.7309,4.7309,4.7309,4.7309,4.7309,4.7309,4.7309,4.7309,4.7309,4.7309,4.7324,4.617,4.621,4.626,4.6295,4.6302,4.6305,4.6288,4.6289,4.6289,4.6289,4.6289,4.6288,4.6304,4.6301,4.6295,4.6249,4.6193,4.6134,4.602,4.5926,4.5883,4.5811,4.5712,4.5684,4.5656,4.5616,4.5594,4.5594,4.5594,4.559,4.5559,4.549,4.5443,4.5375,4.5328,4.5192,4.502,4.4889,4.4725,4.4551,4.4318,4.4113,4.3908,4.3607,4.3366,4.3233,4.3133,4.2824,4.2522,4.2399,4.2118,4.1765,4.1364,4.0947,4.0576,4.0188,3.9759,3.9365,3.8942,3.8441,3.8032,3.767,3.7286,3.725,3.7419,3.7723,3.8124,3.8698,3.9045,3.9406,3.9421,3.9828,4.0487,4.1149,4.1762,4.2406,4.2955,4.322,4.3305,4.3305,4.3349,4.3519,4.3878,4.4326,4.499,4.5633,4.6226,4.6704,4.7145,4.7309,4.7309,4.7309,4.7309,4.7309,4.7309,4.7309,4.7309,4.7309,4.7309,4.7309,4.7309,4.7309,4.7309,4.7309,4.7309,4.7309,4.7309,4.7309,4.7309,4.7309,4.7309,4.7309,4.7309,4.7324,4.7399,4.6213,4.6211,4.6264,4.6297,4.6302,4.6306,4.6288,4.6289,4.6289,4.6289,4.6289,4.6306,4.6304,4.63,4.6288,4.6251,4.6173,4.6139,4.6026,4.5926,4.5886,4.5821,4.5719,4.5684,4.5651,4.5616,4.5594,4.5594,4.5594,4.5594,4.5564,4.5499,4.5434,4.5419,4.5359,4.5197,4.5032,4.4914,4.4776,4.4578,4.4281,4.4074,4.3841,4.3676,4.3402,4.3233,4.3142,4.2833,4.256,4.2389,4.2139,4.1808,4.1443,4.1099,4.0709,4.0317,3.9875,3.9415,3.9037,3.8583,3.8217,3.7816,3.7375,3.7388,3.77,3.796,3.8362,3.8986,3.9271,3.9406,3.9421,4.0023,4.0651,4.1328,4.2021,4.2676,4.3115,4.326,4.3305,4.3305,4.3364,4.3618,4.4177,4.4685,4.5313,4.5927,4.6525,4.6914,4.7279,4.7309,4.7309,4.7309,4.7309,4.7309,4.7309,4.7309,4.7309,4.7309,4.7309,4.7309,4.7309,4.7309,4.7309,4.7309,4.7309,4.7309,4.7309,4.7309,4.7309,4.7309,4.7309,4.7309,4.7309,4.7339,4.7429,4.6199,4.6215,4.6267,4.6297,4.6302,4.6306,4.6289,4.6289,4.6289,4.6289,4.6289,4.6305,4.6302,4.6297,4.6277,4.6213,4.6109,4.6121,4.6016,4.5917,4.5883,4.5812,4.5715,4.5688,4.5671,4.5603,4.5594,4.5594,4.5594,4.5594,4.5573,4.5513,4.5462,4.541,4.536,4.5203,4.5038,4.4932,4.4776,4.4572,4.4281,4.3979,4.3796,4.3763,4.341,4.3205,4.3178,4.2815,4.2571,4.2409,4.216,4.1826,4.1471,4.1215,4.087,4.0375,3.9973,3.9547,3.9175,3.875,3.8373,3.796,3.7506,3.7649,3.8136,3.8452,3.8715,3.931,3.9424,3.9406,3.9496,4.0139,4.0771,4.1354,4.2107,4.2746,4.3115,4.3305,4.3305,4.3334,4.3379,4.3843,4.4506,4.5209,4.5867,4.6367,4.6943,4.7003,4.7309,4.7309,4.7309,4.7309,4.7309,4.7309,4.7309,4.7309,4.7309,4.7309,4.7309,4.7309,4.7309,4.7309,4.7309,4.7309,4.7309,4.7309,4.7309,4.7309,4.7309,4.7309,4.7309,4.7309,4.7309,4.7399,4.7504,4.6232,4.6305,4.6293,4.6301,4.6303,4.6289,4.6289,4.6289,4.6289,4.6289,4.6289,4.6305,4.6301,4.6275,4.623,4.6183,4.6131,4.6092,4.6011,4.5911,4.5841,4.5791,4.5712,4.5683,4.565,4.5599,4.5594,4.5594,4.5594,4.5594,4.559,4.5564,4.5471,4.5419,4.539,4.5194,4.5055,4.498,4.4808,4.4565,4.4292,4.3982,4.3829,4.3704,4.3455,4.3205,4.316,4.2824,4.2581,4.2512,4.2191,4.1862,4.1571,4.1279,4.0912,4.0497,4.0113,3.9746,3.9392,3.8914,3.8455,3.8075,3.7686,3.7992,3.8602,3.9266,3.9541,3.9561,3.9499,3.9466,3.9705,4.0546,4.1134,4.1743,4.2447,4.2951,4.3305,4.3305,4.3305,4.3609,4.3743,4.4356,4.502,4.5732,4.642,4.689,4.7249,4.7294,4.7309,4.7309,4.7309,4.7309,4.7309,4.7309,4.7309,4.7309,4.7309,4.7309,4.7309,4.7309,4.7309,4.7309,4.7309,4.7309,4.7309,4.7309,4.7309,4.7309,4.7309,4.7309,4.7309,4.7309,4.7309,4.7444,4.7668,4.627,4.6296,4.6296,4.6303,4.6305,4.6289,4.6289,4.6289,4.6289,4.6289,4.6289,4.6305,4.6276,4.6239,4.6206,4.6167,4.6111,4.6049,4.5989,4.5899,4.5821,4.5784,4.5708,4.5683,4.5657,4.5603,4.5594,4.5594,4.5594,4.5594,4.5594,4.5577,4.5462,4.5405,4.5386,4.5205,4.5097,4.4925,4.4699,4.4461,4.4263,4.4006,4.3796,4.3779,4.341,4.3251,4.3114,4.2833,4.2619,4.253,4.2212,4.1862,4.1604,4.1312,4.096,4.0517,4.0201,3.9858,3.9498,3.8996,3.8553,3.8289,3.814,3.8527,3.9221,3.9686,3.9907,3.9717,3.9517,3.9559,3.996,4.0816,4.1448,4.2092,4.2726,4.304,4.3305,4.3305,4.3379,4.3743,4.4147,4.4811,4.5409,4.5986,4.6585,4.704,4.7279,4.7294,4.7309,4.7309,4.7309,4.7309,4.7309,4.7309,4.7309,4.7309,4.7309,4.7309,4.7309,4.7309,4.7309,4.7309,4.7309,4.7309,4.7309,4.7309,4.7309,4.7309,4.7309,4.7309,4.7309,4.7309,4.7354,4.7863,4.8252,4.6303,4.6288,4.63,4.6305,4.6287,4.6289,4.6289,4.6289,4.6289,4.6289,4.6289,4.6305,4.6267,4.6214,4.6191,4.6158,4.6093,4.6035,4.5966,4.5883,4.5819,4.5762,4.5715,4.5694,4.5644,4.5594,4.5594,4.5594,4.5594,4.5594,4.5594,4.559,4.5457,4.5415,4.5351,4.5211,4.5057,4.487,4.4593,4.4404,4.4263,4.3982,4.3837,4.3669,4.3445,4.3205,4.3151,4.2823,4.2609,4.253,4.223,4.188,4.1622,4.134,4.0983,4.0578,4.0263,3.9973,3.9547,3.9077,3.8623,3.8461,3.8573,3.8937,3.9528,3.9866,3.996,3.9803,3.9535,3.9805,4.0337,4.098,4.1613,4.2241,4.2895,4.313,4.3305,4.3305,4.3549,4.4012,4.4491,4.5155,4.5738,4.6241,4.6719,4.7174,4.7309,4.7309,4.7309,4.7309,4.7309,4.7309,4.7309,4.7309,4.7309,4.7309,4.7309,4.7309,4.7309,4.7309,4.7309,4.7309,4.7309,4.7309,4.7309,4.7309,4.7309,4.7309,4.7309,4.7309,4.7309,4.7309,4.7489,4.8057,4.8775,4.629,4.6301,4.6305,4.6287,4.6287,4.6289,4.6289,4.6289,4.6289,4.6289,4.6289,4.6305,4.6267,4.6215,4.6188,4.6153,4.6113,4.6035,4.5963,4.5874,4.5778,4.5704,4.5684,4.5654,4.5622,4.5594,4.5594,4.5594,4.5594,4.5594,4.5594,4.5581,4.5452,4.5419,4.5341,4.5211,4.4986,4.4783,4.4558,4.4423,4.4248,4.4013,4.3804,4.3703,4.3437,4.3205,4.3187,4.2823,4.2599,4.2571,4.223,4.1891,4.1615,4.1346,4.0977,4.0595,4.0367,4.0049,3.9651,3.9161,3.876,3.8608,3.8769,3.928,4.0001,3.9994,3.9985,3.9922,3.9622,3.9831,4.0397,4.1029,4.1673,4.2466,4.2995,4.3175,4.3305,4.3305,4.3594,4.4192,4.4811,4.5394,4.6052,4.654,4.6839,4.7264,4.7309,4.7309,4.7309,4.7309,4.7309,4.7309,4.7309,4.7309,4.7309,4.7309,4.7309,4.7309,4.7309,4.7309,4.7309,4.7309,4.7309,4.7309,4.7309,4.7309,4.7309,4.7309,4.7309,4.7309,4.7339,4.7444,4.7938,4.8626,4.9329,4.63,4.6305,4.6288,4.6289,4.6289,4.6289,4.6289,4.6289,4.6289,4.6289,4.6306,4.63,4.6263,4.6212,4.62,4.6165,4.6089,4.5975,4.5932,4.5871,4.5782,4.57,4.5676,4.5631,4.5594,4.5594,4.5594,4.5594,4.5594,4.5594,4.5594,4.5544,4.5452,4.5419,4.5336,4.5205,4.4961,4.4744,4.4565,4.4437,4.4263,4.3979,4.3796,4.3771,4.341,4.3233,4.3151,4.2814,4.2658,4.25,4.2209,4.1895,4.1598,4.1334,4.0977,4.0583,4.0404,4.0117,3.972,3.9284,3.9056,3.9347,3.9328,3.9545,4.0412,4.0293,4.0051,3.9887,3.9685,3.9891,4.0909,4.1298,4.1747,4.2626,4.3115,4.3245,4.3305,4.3305,4.3743,4.4392,4.4945,4.5514,4.6187,4.686,4.7085,4.7309,4.7309,4.7309,4.7309,4.7309,4.7309,4.7309,4.7309,4.7309,4.7309,4.7309,4.7309,4.7309,4.7309,4.7309,4.7309,4.7309,4.7309,4.7309,4.7309,4.7309,4.7309,4.7309,4.7309,4.7309,4.7489,4.7698,4.8356,4.9149,4.9838,4.6305,4.6287,4.6289,4.6289,4.6289,4.6289,4.6289,4.6289,4.6289,4.6289,4.6301,4.6294,4.6257,4.6206,4.6188,4.6154,4.608,4.5978,4.5929,4.5861,4.5775,4.57,4.5676,4.5631,4.5594,4.5594,4.5594,4.5594,4.5594,4.5594,4.5594,4.5544,4.5466,4.5419,4.5356,4.5186,4.4961,4.4738,4.4558,4.4437,4.427,4.3979,4.3796,4.3754,4.3455,4.3278,4.3142,4.288,4.2686,4.2508,4.225,4.1902,4.1615,4.1312,4.0966,4.065,4.0375,4.015,3.9733,3.9508,3.9449,3.9738,3.9755,4.0143,4.0593,4.0449,4.0046,3.9988,3.9838,4.0157,4.1328,4.1628,4.2117,4.3,4.3175,4.3305,4.3305,4.3334,4.3967,4.4586,4.511,4.5618,4.6456,4.7085,4.716,4.7309,4.7309,4.7309,4.7309,4.7309,4.7309,4.7309,4.7309,4.7309,4.7309,4.7309,4.7309,4.7309,4.7309,4.7309,4.7309,4.7309,4.7309,4.7309,4.7309,4.7309,4.7309,4.7309,4.7309,4.7309,4.7623,4.8042,4.8738,4.9516,5.0227,4.6287,4.6287,4.6289,4.6289,4.6289,4.6289,4.6289,4.6289,4.6289,4.6288,4.6301,4.6289,4.6271,4.6182,4.6141,4.6123,4.6082,4.5969,4.5892,4.5858,4.5764,4.57,4.5676,4.5646,4.5594,4.5594,4.5594,4.5594,4.5594,4.5594,4.5594,4.5564,4.5481,4.5386,4.5381,4.5205,4.4961,4.4706,4.4558,4.4418,4.4263,4.3971,4.3829,4.3729,4.3525,4.3323,4.316,4.2909,4.2725,4.255,4.2219,4.1891,4.1604,4.1352,4.0977,4.0541,4.0493,4.0209,3.975,3.9704,3.9859,3.9997,3.9977,4.0474,4.0767,4.0486,4.0011,4.0006,4.0106,4.0583,4.1328,4.1976,4.2601,4.304,4.325,4.3305,4.3305,4.3564,4.4162,4.4825,4.5244,4.5738,4.6636,4.7279,4.7279,4.7309,4.7309,4.7309,4.7309,4.7309,4.7309,4.7309,4.7309,4.7309,4.7309,4.7309,4.7309,4.7309,4.7309,4.7309,4.7309,4.7309,4.7309,4.7309,4.7309,4.7309,4.7309,4.7309,4.7399,4.7563,4.8057,4.8558,4.9217,4.9875,5.0571,4.6288,4.6289,4.6289,4.6289,4.6289,4.6289,4.6289,4.6289,4.6288,4.6304,4.6299,4.6302,4.6263,4.6198,4.6139,4.6117,4.6082,4.5972,4.5892,4.5893,4.576,4.5704,4.568,4.5646,4.5594,4.5594,4.5594,4.5594,4.5594,4.5594,4.5594,4.5568,4.5467,4.5346,4.5232,4.5108,4.498,4.4731,4.4565,4.4418,4.4278,4.3987,4.3796,4.3788,4.3543,4.334,4.3205,4.2937,4.2746,4.258,4.2212,4.1902,4.1615,4.1352,4.0989,4.0614,4.0485,4.0116,3.9877,3.99,4.0324,4.0267,4.0341,4.0696,4.0943,4.0416,4.0117,4.0107,4.0335,4.0815,4.1343,4.2006,4.2616,4.31,4.3305,4.3305,4.3379,4.3848,4.4371,4.508,4.5603,4.6202,4.6995,4.7279,4.7309,4.7309,4.7309,4.7309,4.7309,4.7309,4.7309,4.7309,4.7309,4.7309,4.7309,4.7309,4.7309,4.7309,4.7309,4.7309,4.7309,4.7309,4.7309,4.7309,4.7309,4.7309,4.7339,4.7414,4.7623,4.7908,4.8506,4.906,4.9658,5.0287,5.0915,4.6289,4.6289,4.6289,4.6289,4.6289,4.6289,4.6289,4.6289,4.6305,4.6302,4.6299,4.6299,4.6259,4.6198,4.6139,4.6119,4.6089,4.5969,4.5892,4.589,4.578,4.5704,4.568,4.5646,4.5603,4.5594,4.5594,4.5594,4.5594,4.5594,4.5568,4.5504,4.5434,4.5291,4.5167,4.5068,4.4956,4.4725,4.4551,4.4416,4.4233,4.4011,4.3804,4.3738,4.3567,4.3349,4.3196,4.3003,4.2821,4.256,4.2246,4.1912,4.1626,4.1329,4.0977,4.065,4.0234,4.0011,3.9976,4.0369,4.0663,4.0524,4.0706,4.0903,4.0991,4.0487,4.0172,4.0152,4.0489,4.0913,4.1422,4.21,4.2791,4.329,4.3305,4.3305,4.3439,4.3878,4.4506,4.5229,4.5927,4.6591,4.713,4.7219,4.7309,4.7309,4.7309,4.7309,4.7309,4.7309,4.7309,4.7309,4.7309,4.7309,4.7309,4.7309,4.7309,4.7309,4.7309,4.7309,4.7309,4.7309,4.7309,4.7309,4.7309,4.7324,4.7384,4.7519,4.7923,4.8491,4.9164,4.9688,5.0121,5.0637,5.1161,4.6289,4.6289,4.6289,4.6289,4.6289,4.6289,4.6289,4.6289,4.6305,4.6302,4.6301,4.6299,4.6259,4.6199,4.6135,4.6119,4.6082,4.5947,4.5904,4.5871,4.578,4.5712,4.5657,4.5618,4.5603,4.5594,4.5594,4.5594,4.5594,4.5577,4.5532,4.5453,4.5424,4.5265,4.514,4.5028,4.4883,4.4693,4.4517,4.4401,4.4248,4.3971,4.3829,4.3738,4.3601,4.3393,4.3233,4.3095,4.2879,4.2609,4.2269,4.1934,4.1631,4.1334,4.0954,4.0529,4.0033,3.999,4.021,4.0731,4.097,4.0924,4.1293,4.1329,4.1052,4.0589,4.0224,4.039,4.0761,4.1107,4.1531,4.2361,4.319,4.3305,4.3305,4.3349,4.3439,4.3923,4.4616,4.5319,4.6031,4.6659,4.7145,4.7309,4.7309,4.7309,4.7309,4.7309,4.7309,4.7309,4.7309,4.7309,4.7309,4.7309,4.7309,4.7309,4.7309,4.7309,4.7309,4.7309,4.7309,4.7309,4.7309,4.7309,4.7309,4.7339,4.7369,4.7803,4.8438,4.9037,4.9553,5.0092,5.0473,5.0787,5.1206,4.6289,4.6289,4.6289,4.6289,4.6289,4.6289,4.6289,4.6289,4.6305,4.6302,4.6301,4.6299,4.6259,4.6203,4.6137,4.6123,4.6049,4.5983,4.591,4.5858,4.5783,4.5712,4.5676,4.5642,4.5603,4.5594,4.5594,4.5594,4.5586,4.5568,4.5499,4.5415,4.5404,4.5272,4.5117,4.4979,4.484,4.4699,4.4503,4.4376,4.4214,4.3963,4.3853,4.3754,4.36,4.341,4.3242,4.3142,4.2927,4.2609,4.2279,4.1945,4.1609,4.1352,4.0989,4.0505,4.0075,3.9874,4.0296,4.0733,4.1081,4.1227,4.1452,4.1377,4.1069,4.0658,4.0257,4.0545,4.1046,4.1468,4.182,4.2536,4.316,4.3305,4.3305,4.3334,4.3529,4.4222,4.4915,4.5663,4.636,4.6809,4.7264,4.7309,4.7309,4.7309,4.7309,4.7309,4.7309,4.7309,4.7309,4.7309,4.7309,4.7309,4.7309,4.7309,4.7309,4.7309,4.7309,4.7309,4.7309,4.7309,4.7309,4.7309,4.7309,4.7309,4.7324,4.7908,4.8708,4.9202,4.9703,5.0287,5.0772,5.1026,5.1206,4.6289,4.6289,4.6289,4.6289,4.6289,4.6289,4.6289,4.6289,4.6305,4.6302,4.63,4.6302,4.6263,4.6203,4.6165,4.6125,4.6087,4.5972,4.5892,4.5877,4.578,4.5712,4.5676,4.5642,4.5603,4.5594,4.5594,4.5594,4.5581,4.5522,4.5457,4.54,4.5375,4.5251,4.5095,4.4943,4.4802,4.4666,4.4503,4.438,4.4195,4.3971,4.3853,4.3763,4.3592,4.341,4.3242,4.3151,4.2947,4.2639,4.23,4.2019,4.1631,4.1272,4.0924,4.05,4.0387,4.0461,4.0865,4.1222,4.1439,4.1578,4.1644,4.1442,4.1103,4.0693,4.0528,4.0623,4.1264,4.1836,4.2207,4.2611,4.2965,4.3305,4.3305,4.3305,4.3908,4.4601,4.5334,4.6082,4.6636,4.7085,4.7309,4.7309,4.7309,4.7309,4.7309,4.7309,4.7309,4.7309,4.7309,4.7309,4.7309,4.7309,4.7309,4.7309,4.7309,4.7309,4.7309,4.7309,4.7309,4.7309,4.7309,4.7309,4.7309,4.7309,4.7324,4.8214,4.8962,4.9396,4.9898,5.0601,5.0966,5.1086,5.1206,4.6289,4.6289,4.6289,4.6289,4.6289,4.6289,4.6289,4.6289,4.6305,4.6302,4.63,4.6288,4.6269,4.6206,4.6191,4.6152,4.608,4.5972,4.5892,4.5902,4.578,4.5708,4.5661,4.5622,4.5599,4.5594,4.5594,4.5594,4.5577,4.5513,4.5438,4.5376,4.5329,4.5219,4.5084,4.4901,4.4757,4.4634,4.4461,4.4326,4.4211,4.4003,4.3796,4.3771,4.3592,4.3401,4.3269,4.3142,4.3013,4.267,4.2389,4.2103,4.1598,4.1117,4.0728,4.0608,4.0564,4.0923,4.1275,4.1661,4.1986,4.2074,4.2093,4.1619,4.1152,4.078,4.065,4.0829,4.1418,4.1912,4.2312,4.278,4.317,4.3305,4.3305,4.3305,4.3609,4.4567,4.58,4.6542,4.7162,4.7531,4.751,4.7531,4.7439,4.7374,4.7309,4.7309,4.7309,4.7309,4.7309,4.7309,4.7309,4.7309,4.7309,4.7309,4.7309,4.7309,4.7309,4.7309,4.7309,4.7309,4.7309,4.7309,4.7309,4.7309,4.7474,4.8364,4.9067,4.9426,5.0017,5.0885,5.1206,5.1206,5.1206,4.6289,4.6289,4.6289,4.6289,4.6289,4.6289,4.6289,4.6289,4.6305,4.6302,4.63,4.6288,4.627,4.6206,4.6193,4.6154,4.6082,4.5972,4.5904,4.5867,4.576,4.5708,4.5669,4.5622,4.5599,4.5594,4.5594,4.559,4.5577,4.5499,4.5434,4.5386,4.5304,4.5175,4.5097,4.4889,4.4744,4.4632,4.4444,4.4311,4.4226,4.3995,4.3788,4.3728,4.3592,4.3392,4.3277,4.3196,4.2975,4.2658,4.2419,4.1988,4.1368,4.0942,4.0673,4.0573,4.0792,4.1204,4.1632,4.2001,4.2228,4.225,4.2093,4.1652,4.1235,4.0916,4.0882,4.1168,4.1497,4.1961,4.2466,4.2969,4.3305,4.3305,4.3359,4.3359,4.3389,4.4764,4.6207,4.6984,4.7652,4.7788,4.7767,4.7681,4.7574,4.7482,4.7352,4.7309,4.7309,4.7309,4.7309,4.7309,4.7309,4.7309,4.7309,4.7309,4.7309,4.7309,4.7309,4.7309,4.7309,4.7309,4.7309,4.7309,4.7309,4.7369,4.7713,4.8528,4.9127,4.9531,5.0152,5.1035,5.1206,5.1206,5.1206,4.6289,4.6289,4.6289,4.6289,4.6289,4.6289,4.6289,4.6289,4.6305,4.6302,4.63,4.6305,4.6264,4.6202,4.6167,4.6152,4.6082,4.5947,4.5904,4.5871,4.5778,4.5708,4.5653,4.5622,4.5607,4.5594,4.5594,4.559,4.5573,4.5485,4.54,4.5371,4.5253,4.5136,4.5074,4.4896,4.4718,4.4599,4.4401,4.427,4.4195,4.3947,4.3771,4.3694,4.3566,4.3383,4.3286,4.3187,4.2965,4.2629,4.2318,4.1859,4.134,4.0965,4.0915,4.103,4.1287,4.1562,4.2038,4.2342,4.2485,4.2473,4.2206,4.1784,4.1337,4.1081,4.1295,4.1553,4.1638,4.2055,4.2814,4.3368,4.3329,4.3305,4.3598,4.3772,4.4348,4.544,4.6626,4.7531,4.7922,4.7922,4.788,4.788,4.7767,4.7574,4.746,4.7352,4.7352,4.7309,4.7309,4.7309,4.7309,4.7309,4.7309,4.7309,4.7309,4.7309,4.7309,4.7309,4.7309,4.7309,4.7309,4.7309,4.7384,4.7534,4.7997,4.8678,4.9329,4.9823,5.0466,5.1176,5.1206,5.1206,5.1206,4.6289,4.6289,4.6289,4.6289,4.6289,4.6289,4.6289,4.6289,4.6305,4.6301,4.6298,4.6297,4.6259,4.6196,4.6137,4.6123,4.6071,4.5961,4.592,4.5867,4.5757,4.5704,4.5657,4.5622,4.5607,4.5594,4.5594,4.5586,4.5573,4.5476,4.539,4.5351,4.5243,4.5103,4.5028,4.4865,4.4659,4.4556,4.438,4.4177,4.4034,4.3875,4.3753,4.3634,4.3522,4.3392,4.3277,4.3151,4.2984,4.2619,4.2222,4.1758,4.134,4.1006,4.1192,4.1345,4.1662,4.2151,4.2712,4.2943,4.2947,4.2806,4.2365,4.1916,4.1472,4.1401,4.1616,4.1917,4.1989,4.2383,4.313,4.3551,4.3468,4.3458,4.3821,4.4326,4.5223,4.6006,4.6914,4.7893,4.8112,4.8112,4.8091,4.807,4.7922,4.7746,4.7574,4.7503,4.7417,4.7331,4.7309,4.7309,4.7309,4.7309,4.7309,4.7309,4.7309,4.7309,4.7309,4.7309,4.7309,4.7309,4.7309,4.7309,4.7414,4.7519,4.7997,4.8648,4.9314,4.992,5.0637,5.1176,5.1206,5.1206,5.1206,4.6289,4.6289,4.6289,4.6289,4.6289,4.6289,4.6289,4.6288,4.6304,4.63,4.6291,4.625,4.6209,4.6205,4.6135,4.6111,4.6059,4.5953,4.5918,4.587,4.5746,4.57,4.5661,4.5614,4.5603,4.5594,4.559,4.5568,4.5527,4.5462,4.5395,4.5365,4.5189,4.5074,4.4973,4.4815,4.4626,4.4489,4.4351,4.4173,4.3915,4.3786,4.3736,4.3634,4.3549,4.3375,4.3269,4.3214,4.2975,4.2619,4.2202,4.1736,4.1381,4.1151,4.1353,4.1728,4.203,4.2525,4.2982,4.3232,4.3217,4.2914,4.246,4.2013,4.1652,4.1397,4.1776,4.2394,4.2597,4.2916,4.3502,4.3769,4.3797,4.3817,4.404,4.4926,4.5791,4.6314,4.6936,4.7865,4.8516,4.8495,4.8469,4.8391,4.8244,4.8028,4.7767,4.7639,4.751,4.7417,4.7309,4.7309,4.7309,4.7309,4.7309,4.7309,4.7309,4.7309,4.7309,4.7309,4.7309,4.7309,4.7309,4.7309,4.7324,4.7399,4.7952,4.8663,4.9172,4.9808,5.0646,5.1169,5.1176,5.1206,5.1206]}]]